ftp/pub/palmer/observations_modified/2019/November/original_files/AR191108_BASE.txt
Download
Sample DateTime Unit Id WS Avg 2min WD Avg 2min WGS 10min WGD 10min Air Temp Rel Humidity Dew Point Pyranometer Quantum Air Pressure Snow Level Rainfall PW Current Visibility CBase 1 CBase 2 CBase 3 Vert Vis
2019/11/08 00:00:00 BASE 0.92 335 2.37 321 -1.3 91 -2.6 34 0 990.9 NA 0.0000 9999 0 0 0 0
2019/11/08 00:01:00 BASE 1.21 338 2.37 321 -1.3 91 -2.6 33 0 990.9 NA 0.0000 9999 0 0 0 0
2019/11/08 00:02:00 BASE 1.71 346 2.37 321 -1.4 92 -2.6 32 0 990.9 NA 0.0000 9999 0 0 0 0
2019/11/08 00:03:00 BASE 2.00 352 2.37 321 -1.5 92 -2.6 31 0 990.9 NA 0.0000 9999 0 0 0 0
2019/11/08 00:04:00 BASE 2.11 357 2.37 321 -1.6 92 -2.7 30 0 990.9 NA 0.0000 9999 0 0 0 0
2019/11/08 00:05:00 BASE 1.99 2 2.37 321 -1.7 93 -2.7 29 0 990.9 NA 0.0000 9999 0 0 0 0
2019/11/08 00:06:00 BASE 1.98 13 2.31 354 -1.7 93 -2.7 28 0 990.9 NA 0.0000 9999 0 0 0 0
2019/11/08 00:07:00 BASE 2.03 22 2.31 354 -1.8 93 -2.8 26 0 990.9 NA 0.0000 9999 0 0 0 0
2019/11/08 00:08:00 BASE 2.07 24 2.31 25 -1.9 93 -2.9 25 0 990.9 NA 0.0000 9999 0 0 0 0
2019/11/08 00:09:00 BASE 1.89 27 2.31 25 -2.0 93 -3.0 25 0 990.9 NA 0.0000 9999 0 0 0 0
2019/11/08 00:10:00 BASE 1.65 28 2.31 25 -2.0 93 -3.1 24 0 990.9 NA 0.0000 9999 0 0 0 0
2019/11/08 00:11:00 BASE 1.51 29 2.31 25 -2.1 92 -3.3 23 0 990.9 NA 0.0000 9999 0 0 0 0
2019/11/08 00:12:00 BASE 1.43 24 2.31 25 -2.0 91 -3.4 22 0 990.9 NA 0.0000 9999 0 0 0 0
2019/11/08 00:13:00 BASE 1.55 16 2.31 25 -2.0 89 -3.5 21 0 990.9 NA 0.0000 9999 0 0 0 0
2019/11/08 00:14:00 BASE 1.97 12 2.62 7 -2.0 88 -3.7 20 0 990.9 NA 0.0000 9999 0 0 0 0
2019/11/08 00:15:00 BASE 2.40 13 2.62 15 -2.0 87 -3.8 20 0 991.0 NA 0.0000 9999 0 0 0 0
2019/11/08 00:16:00 BASE 2.52 16 2.68 13 -2.0 87 -3.9 19 0 991.0 NA 0.0000 9999 0 0 0 0
2019/11/08 00:17:00 BASE 2.51 22 2.68 13 -2.0 87 -3.9 18 0 991.0 NA 0.0000 9999 0 0 0 0
2019/11/08 00:18:00 BASE 2.57 32 3.04 40 -2.0 86 -4.0 17 0 991.0 NA 0.0000 9999 0 0 0 0
2019/11/08 00:19:00 BASE 2.19 62 3.04 40 -2.0 86 -3.9 17 0 991.0 NA 0.0000 9999 0 0 0 0
2019/11/08 00:20:00 BASE 1.65 77 3.04 40 -2.0 86 -3.9 16 0 991.0 NA 0.0000 9999 0 0 0 0
2019/11/08 00:21:00 BASE 1.79 67 3.04 40 -1.9 86 -4.0 15 0 991.0 NA 0.0000 9999 0 0 0 0
2019/11/08 00:22:00 BASE 1.64 57 3.04 40 -1.9 86 -4.0 14 0 991.0 NA 0.0000 9999 0 0 0 0
2019/11/08 00:23:00 BASE 1.52 46 3.04 40 -1.9 85 -4.0 13 0 991.0 NA 0.0000 9999 0 0 0 0
2019/11/08 00:24:00 BASE 1.66 40 3.04 40 -1.9 85 -4.1 13 0 991.0 NA 0.0000 9999 0 0 0 0
2019/11/08 00:25:00 BASE 1.52 37 3.04 40 -1.9 85 -4.1 13 0 991.0 NA 0.0000 9999 0 0 0 0
2019/11/08 00:26:00 BASE 1.62 33 3.04 40 -1.9 84 -4.2 12 0 991.0 NA 0.0000 9999 0 0 0 0
2019/11/08 00:27:00 BASE 1.66 28 3.04 40 -1.9 84 -4.3 12 0 991.0 NA 0.0000 9999 0 0 0 0
2019/11/08 00:28:00 BASE 1.55 28 2.37 83 -1.9 83 -4.3 11 0 991.0 NA 0.0000 9999 0 0 0 0
2019/11/08 00:29:00 BASE 1.53 37 2.37 83 -1.9 83 -4.4 10 0 991.0 NA 0.0000 9999 0 0 0 0
2019/11/08 00:30:00 BASE 1.55 44 2.37 83 -1.9 83 -4.4 10 0 991.0 NA 0.0000 9999 0 0 0 0
2019/11/08 00:31:00 BASE 1.68 37 2.16 40 -1.9 83 -4.4 9 0 991.0 NA 0.0000 9999 0 0 0 0
2019/11/08 00:32:00 BASE 1.78 36 2.16 40 -1.9 84 -4.3 9 0 991.0 NA 0.0000 9999 0 0 0 0
2019/11/08 00:33:00 BASE 1.87 41 2.42 32 -1.9 84 -4.3 9 0 991.0 NA 0.0000 9999 0 0 0 0
2019/11/08 00:34:00 BASE 1.83 39 2.42 32 -1.9 84 -4.3 8 0 991.0 NA 0.0000 9999 0 0 0 0
2019/11/08 00:35:00 BASE 1.65 40 2.42 32 -1.9 84 -4.3 8 0 991.0 NA 0.0000 9999 0 0 0 0
2019/11/08 00:36:00 BASE 1.68 44 2.42 32 -2.0 84 -4.3 8 0 991.0 NA 0.0000 9999 0 0 0 0
2019/11/08 00:37:00 BASE 1.74 43 2.42 32 -2.0 84 -4.3 7 0 991.0 NA 0.0000 9999 0 0 0 0
2019/11/08 00:38:00 BASE 1.66 39 2.42 32 -2.0 85 -4.2 7 0 991.0 NA 0.0000 9999 0 0 0 0
2019/11/08 00:39:00 BASE 1.86 40 2.42 39 -2.0 85 -4.2 7 0 991.0 NA 0.0000 9999 0 0 0 0
2019/11/08 00:40:00 BASE 2.12 42 2.42 39 -2.0 86 -4.1 7 0 991.0 NA 0.0000 9999 0 0 0 0
2019/11/08 00:41:00 BASE 2.10 40 2.42 39 -2.1 86 -4.1 6 0 991.0 NA 0.0000 9999 0 0 0 0
2019/11/08 00:42:00 BASE 2.19 41 2.52 43 -2.1 87 -4.0 6 0 991.0 NA 0.0000 9999 0 0 0 0
2019/11/08 00:43:00 BASE 2.30 44 2.52 43 -2.1 87 -4.0 6 0 991.0 NA 0.0000 9999 0 0 0 0
2019/11/08 00:44:00 BASE 2.25 42 2.52 27 -2.1 88 -3.9 6 0 991.0 NA 0.0000 9999 0 0 0 0
2019/11/08 00:45:00 BASE 2.31 41 3.24 36 -2.1 88 -3.8 5 0 991.0 NA 0.0000 9999 0 0 0 0
2019/11/08 00:46:00 BASE 2.46 40 3.24 36 -2.1 89 -3.8 5 0 991.0 NA 0.0000 9999 0 0 0 0
2019/11/08 00:47:00 BASE 2.38 37 3.24 36 -2.1 89 -3.7 5 0 991.0 NA 0.0000 9999 0 0 0 0
2019/11/08 00:48:00 BASE 2.29 35 3.24 36 -2.1 89 -3.6 5 0 991.0 NA 0.0000 9999 0 0 0 0
2019/11/08 00:49:00 BASE 2.26 34 3.24 36 -2.1 90 -3.6 5 0 991.1 NA 0.0000 9999 0 0 0 0
2019/11/08 00:50:00 BASE 2.09 35 3.24 36 -2.2 90 -3.6 4 0 991.1 NA 0.0000 9999 0 0 0 0
2019/11/08 00:51:00 BASE 1.99 35 3.24 36 -2.2 90 -3.6 4 0 991.1 NA 0.0000 9999 0 0 0 0
2019/11/08 00:52:00 BASE 2.01 33 3.24 36 -2.3 90 -3.7 4 0 991.2 NA 0.0000 9999 0 0 0 0
2019/11/08 00:53:00 BASE 2.04 32 3.24 36 -2.3 90 -3.7 4 0 991.1 NA 0.0000 9999 0 0 0 0
2019/11/08 00:54:00 BASE 2.01 30 3.24 36 -2.4 90 -3.7 4 0 991.2 NA 0.0000 9999 0 0 0 0
2019/11/08 00:55:00 BASE 1.93 30 2.98 35 -2.4 91 -3.7 4 0 991.2 NA 0.0000 9999 0 0 0 0
2019/11/08 00:56:00 BASE 1.91 33 2.57 30 -2.4 91 -3.7 3 0 991.2 NA 0.0000 9999 0 0 0 0
2019/11/08 00:57:00 BASE 1.99 35 2.57 30 -2.4 91 -3.7 3 0 991.2 NA 0.0000 9999 0 0 0 0
2019/11/08 00:58:00 BASE 2.09 36 2.37 36 -2.4 91 -3.7 3 0 991.2 NA 0.0000 9999 0 0 0 0
2019/11/08 00:59:00 BASE 2.11 37 2.31 37 -2.5 91 -3.7 3 0 991.2 NA 0.0000 9999 0 0 0 0
2019/11/08 01:00:00 BASE 2.09 37 2.31 42 -2.5 92 -3.6 3 0 991.2 NA 0.0000 9999 0 0 0 0
2019/11/08 01:01:00 BASE 2.18 40 2.47 41 -2.4 92 -3.6 3 0 991.2 NA 0.0000 9999 0 0 0 0
2019/11/08 01:02:00 BASE 2.30 42 2.52 41 -2.4 92 -3.5 3 0 991.2 NA 0.0000 9999 0 0 0 0
2019/11/08 01:03:00 BASE 2.37 38 2.62 31 -2.4 92 -3.6 2 0 991.2 NA 0.0000 9999 0 0 0 0
2019/11/08 01:04:00 BASE 2.45 34 2.62 35 -2.5 92 -3.6 2 0 991.2 NA 0.0000 9999 0 0 0 0
2019/11/08 01:05:00 BASE 2.50 35 2.68 34 -2.5 92 -3.6 2 0 991.2 NA 0.0000 9999 0 0 0 0
2019/11/08 01:06:00 BASE 2.48 35 2.68 34 -2.5 92 -3.6 2 0 991.3 NA 0.0000 9999 0 0 0 0
2019/11/08 01:07:00 BASE 2.56 36 2.93 40 -2.5 92 -3.7 2 0 991.3 NA 0.0000 9999 0 0 0 0
2019/11/08 01:08:00 BASE 2.77 36 3.09 36 -2.6 92 -3.7 2 0 991.3 NA 0.0000 9999 0 0 0 0
2019/11/08 01:09:00 BASE 3.11 35 3.55 38 -2.6 92 -3.8 2 0 991.3 NA 0.0000 9999 0 0 0 0
2019/11/08 01:10:00 BASE 3.41 37 3.65 43 -2.7 92 -3.8 2 0 991.3 NA 0.0000 9999 0 0 0 0
2019/11/08 01:11:00 BASE 3.42 37 3.65 43 -2.8 92 -3.9 2 0 991.3 NA 0.0000 9999 0 0 0 0
2019/11/08 01:12:00 BASE 3.27 39 3.65 43 -2.8 92 -3.9 2 0 991.3 NA 0.0000 9999 0 0 0 0
2019/11/08 01:13:00 BASE 3.00 42 3.65 43 -2.8 92 -3.9 1 0 991.3 NA 0.0000 9999 0 0 0 0
2019/11/08 01:14:00 BASE 2.79 39 3.65 43 -2.8 92 -3.9 1 0 991.3 NA 0.0000 9999 0 0 0 0
2019/11/08 01:15:00 BASE 2.87 36 3.65 43 -2.8 92 -3.9 1 0 991.3 NA 0.0000 9999 0 0 0 0
2019/11/08 01:16:00 BASE 2.92 37 3.65 43 -2.8 92 -3.9 1 0 991.3 NA 0.0000 9999 0 0 0 0
2019/11/08 01:17:00 BASE 2.90 36 3.65 43 -2.8 92 -3.9 1 0 991.3 NA 0.0000 9999 0 0 0 0
2019/11/08 01:18:00 BASE 2.88 36 3.65 43 -2.8 92 -4.0 1 0 991.3 NA 0.0000 9999 0 0 0 0
2019/11/08 01:19:00 BASE 2.82 39 3.65 43 -2.8 92 -4.0 1 0 991.3 NA 0.0000 9999 0 0 0 0
2019/11/08 01:20:00 BASE 2.88 39 3.60 34 -2.8 92 -4.0 1 0 991.3 NA 0.0000 9999 0 0 0 0
2019/11/08 01:21:00 BASE 2.84 39 3.55 42 -2.8 92 -4.0 1 0 991.3 NA 0.0000 9999 0 0 0 0
2019/11/08 01:22:00 BASE 2.66 39 3.45 37 -2.8 92 -3.9 1 0 991.3 NA 0.0000 9999 0 0 0 0
2019/11/08 01:23:00 BASE 2.90 39 3.45 42 -2.8 92 -3.9 1 0 991.4 NA 0.0000 9999 0 0 0 0
2019/11/08 01:24:00 BASE 3.02 43 3.45 42 -2.8 92 -3.9 1 0 991.4 NA 0.0000 9999 0 0 0 0
2019/11/08 01:25:00 BASE 2.83 46 3.45 42 -2.8 92 -3.9 1 0 991.4 NA 0.0000 9999 0 0 0 0
2019/11/08 01:26:00 BASE 2.79 47 3.45 42 -2.8 92 -3.9 1 0 991.4 NA 0.0000 9999 0 0 0 0
2019/11/08 01:27:00 BASE 2.73 46 3.45 42 -2.8 92 -3.9 1 0 991.4 NA 0.0000 9999 0 0 0 0
2019/11/08 01:28:00 BASE 2.70 44 3.45 42 -2.8 92 -3.9 1 0 991.4 NA 0.0000 9999 0 0 0 0
2019/11/08 01:29:00 BASE 2.66 43 3.45 42 -2.8 92 -3.9 1 0 991.4 NA 0.0000 9999 0 0 0 0
2019/11/08 01:30:00 BASE 2.52 39 3.45 42 -2.8 92 -4.0 1 0 991.4 NA 0.0000 9999 0 0 0 0
2019/11/08 01:31:00 BASE 2.32 37 3.45 42 -2.9 91 -4.1 0 0 991.4 NA 0.0000 9999 0 0 0 0
2019/11/08 01:32:00 BASE 2.09 37 3.45 42 -2.9 91 -4.1 0 0 991.4 NA 0.0000 9999 0 0 0 0
2019/11/08 01:33:00 BASE 1.88 40 3.24 40 -2.9 91 -4.2 0 0 991.5 NA 0.0000 9999 0 0 0 0
2019/11/08 01:34:00 BASE 1.93 39 3.04 43 -2.9 91 -4.1 0 0 991.4 NA 0.0000 9999 0 0 0 0
2019/11/08 01:35:00 BASE 2.10 34 2.98 48 -2.9 91 -4.1 0 0 991.4 NA 0.0000 9999 0 0 0 0
2019/11/08 01:36:00 BASE 2.24 31 2.88 44 -2.9 91 -4.1 0 0 991.5 NA 0.0000 9999 0 0 0 0
2019/11/08 01:37:00 BASE 2.35 34 2.88 44 -2.9 91 -4.1 0 0 991.5 NA 0.0000 9999 0 0 0 0
2019/11/08 01:38:00 BASE 2.46 37 2.88 44 -2.9 91 -4.1 0 0 991.5 NA 0.0000 9999 0 0 0 0
2019/11/08 01:39:00 BASE 2.49 34 2.78 38 -2.9 91 -4.2 0 0 991.5 NA 0.0000 9999 0 0 0 0
2019/11/08 01:40:00 BASE 2.58 32 2.98 36 -2.9 91 -4.2 0 0 991.5 NA 0.0000 9999 0 0 0 0
2019/11/08 01:41:00 BASE 2.62 33 2.98 36 -2.9 91 -4.2 0 0 991.5 NA 0.0000 9999 0 0 0 0
2019/11/08 01:42:00 BASE 2.39 35 2.98 36 -3.0 91 -4.2 0 0 991.5 NA 0.0000 9999 0 0 0 0
2019/11/08 01:43:00 BASE 2.33 36 2.98 36 -3.0 91 -4.2 0 0 991.5 NA 0.0000 9999 0 0 0 0
2019/11/08 01:44:00 BASE 2.37 38 2.98 36 -3.0 91 -4.3 0 0 991.5 NA 0.0000 9999 0 0 0 0
2019/11/08 01:45:00 BASE 2.42 40 2.98 36 -3.0 91 -4.3 0 0 991.5 NA 0.0000 9999 0 0 0 0
2019/11/08 01:46:00 BASE 2.51 37 2.98 36 -3.0 91 -4.3 0 0 991.5 NA 0.0000 9999 0 0 0 0
2019/11/08 01:47:00 BASE 2.48 34 2.98 36 -3.0 91 -4.3 0 0 991.5 NA 0.0000 9999 0 0 0 0
2019/11/08 01:48:00 BASE 2.27 34 2.98 36 -3.0 91 -4.3 0 0 991.5 NA 0.0000 9999 0 0 0 0
2019/11/08 01:49:00 BASE 2.19 35 2.98 36 -3.0 91 -4.3 0 0 991.5 NA 0.0000 9999 0 0 0 0
2019/11/08 01:50:00 BASE 2.27 35 2.78 35 -3.0 91 -4.3 0 0 991.6 NA 0.0000 9999 0 0 0 0
2019/11/08 01:51:00 BASE 2.24 34 2.78 35 -3.0 91 -4.3 0 0 991.6 NA 0.0000 9999 0 0 0 0
2019/11/08 01:52:00 BASE 2.29 23 2.78 35 -3.1 91 -4.3 0 0 991.6 NA 0.0000 9999 0 0 0 0
2019/11/08 01:53:00 BASE 2.39 17 2.78 35 -3.1 91 -4.4 0 0 991.6 NA 0.0000 9999 0 0 0 0
2019/11/08 01:54:00 BASE 2.42 18 2.78 35 -3.2 91 -4.5 0 0 991.6 NA 0.0000 9999 0 0 0 0
2019/11/08 01:55:00 BASE 2.33 18 2.78 35 -3.2 90 -4.5 0 0 991.6 NA 0.0000 9999 0 0 0 0
2019/11/08 01:56:00 BASE 2.30 21 2.62 20 -3.2 90 -4.6 0 0 991.6 NA 0.0000 9999 0 0 0 0
2019/11/08 01:57:00 BASE 2.31 26 2.62 20 -3.2 90 -4.7 0 0 991.6 NA 0.0000 9999 0 0 0 0
2019/11/08 01:58:00 BASE 2.06 22 2.62 20 -3.2 89 -4.7 0 0 991.6 NA 0.0000 9999 0 0 0 0
2019/11/08 01:59:00 BASE 1.79 12 2.62 20 -3.2 89 -4.7 0 0 991.6 NA 0.0000 9999 0 0 0 0
2019/11/08 02:00:00 BASE 1.65 4 2.62 20 -3.1 89 -4.7 0 0 991.6 NA 0.0000 9999 0 0 0 0
2019/11/08 02:01:00 BASE 1.52 353 2.62 20 -3.1 89 -4.7 0 0 991.6 NA 0.0000 9999 0 0 0 0
2019/11/08 02:02:00 BASE 1.51 328 2.62 20 -3.2 89 -4.7 0 0 991.6 NA 0.0000 9999 0 0 0 0
2019/11/08 02:03:00 BASE 1.49 313 2.62 20 -3.2 89 -4.7 0 0 991.6 NA 0.0000 9999 0 0 0 0
2019/11/08 02:04:00 BASE 1.18 325 2.62 20 -3.2 90 -4.6 0 0 991.6 NA 0.0000 9999 0 0 0 0
2019/11/08 02:05:00 BASE 0.82 324 2.57 32 -3.2 90 -4.6 0 0 991.6 NA 0.0000 9999 0 0 0 0
2019/11/08 02:06:00 BASE 1.19 296 2.57 32 -3.3 91 -4.5 0 0 991.6 NA 0.0000 9999 0 0 0 0
2019/11/08 02:07:00 BASE 1.37 293 2.06 279 -3.4 92 -4.5 0 0 991.6 NA 0.0000 9999 0 0 0 0
2019/11/08 02:08:00 BASE 0.94 301 2.06 279 -3.4 92 -4.5 0 0 991.7 NA 0.0000 9999 0 0 0 0
2019/11/08 02:09:00 BASE 1.21 297 2.11 294 -3.5 93 -4.5 0 0 991.7 NA 0.0000 9999 0 0 0 0
2019/11/08 02:10:00 BASE 1.94 299 2.42 301 -3.6 93 -4.5 0 0 991.7 NA 0.0000 9999 0 0 0 0
2019/11/08 02:11:00 BASE 2.05 301 2.42 301 -3.6 94 -4.5 0 0 991.7 NA 0.0000 9999 0 0 0 0
2019/11/08 02:12:00 BASE 1.88 303 2.47 305 -3.7 94 -4.4 0 0 991.7 NA 0.0000 9999 0 0 0 0
2019/11/08 02:13:00 BASE 2.17 304 2.68 302 -3.7 95 -4.4 0 0 991.7 NA 0.0000 9999 0 0 0 0
2019/11/08 02:14:00 BASE 2.51 306 2.88 307 -3.7 95 -4.4 0 0 991.7 NA 0.0000 9999 0 0 0 0
2019/11/08 02:15:00 BASE 2.50 309 2.93 315 -3.7 96 -4.3 0 0 991.7 NA 0.0000 9999 0 0 0 0
2019/11/08 02:16:00 BASE 2.53 312 2.98 316 -3.8 96 -4.3 0 0 991.7 NA 0.0000 9999 0 0 0 0
2019/11/08 02:17:00 BASE 2.70 314 2.98 310 -3.8 96 -4.3 0 0 991.7 NA 0.0000 9999 0 0 0 0
2019/11/08 02:18:00 BASE 2.75 315 2.98 324 -3.9 96 -4.4 0 0 991.8 NA 0.0000 9999 0 0 0 0
2019/11/08 02:19:00 BASE 2.76 313 3.19 307 -3.9 96 -4.4 0 0 991.8 NA 0.0000 9999 0 0 0 0
2019/11/08 02:20:00 BASE 2.92 311 3.24 312 -3.9 97 -4.4 0 0 991.8 NA 0.0000 9999 0 0 0 0
2019/11/08 02:21:00 BASE 3.11 312 3.24 314 -4.0 97 -4.4 0 0 991.8 NA 0.0000 9999 0 0 0 0
2019/11/08 02:22:00 BASE 3.12 312 3.29 313 -4.0 97 -4.4 0 0 991.8 NA 0.0000 9999 0 0 0 0
2019/11/08 02:23:00 BASE 3.08 314 3.45 313 -4.1 97 -4.5 0 0 991.8 NA 0.0000 9999 0 0 0 0
2019/11/08 02:24:00 BASE 2.84 317 3.45 315 -4.1 97 -4.5 0 0 991.9 NA 0.0000 9999 0 0 0 0
2019/11/08 02:25:00 BASE 2.59 322 3.45 315 -4.2 98 -4.5 0 0 991.9 NA 0.0000 9999 0 0 0 0
2019/11/08 02:26:00 BASE 2.52 323 3.45 315 -4.2 98 -4.5 0 0 991.9 NA 0.0000 9999 0 0 0 0
2019/11/08 02:27:00 BASE 2.60 317 3.45 315 -4.3 98 -4.6 0 0 992.0 NA 0.0000 9999 0 0 0 0
2019/11/08 02:28:00 BASE 2.60 312 3.45 315 -4.3 98 -4.6 0 0 992.0 NA 0.0000 9999 0 0 0 0
2019/11/08 02:29:00 BASE 2.39 313 3.45 315 -4.4 98 -4.7 0 0 992.0 NA 0.0000 9999 0 0 0 0
2019/11/08 02:30:00 BASE 2.37 317 3.45 315 -4.4 98 -4.7 0 0 992.0 NA 0.0000 9999 0 0 0 0
2019/11/08 02:31:00 BASE 2.38 325 3.45 315 -4.4 98 -4.7 0 0 992.0 NA 0.0000 9999 0 0 0 0
2019/11/08 02:32:00 BASE 2.18 335 3.45 315 -4.5 98 -4.7 0 0 992.0 NA 0.0000 9999 0 0 0 0
2019/11/08 02:33:00 BASE 2.05 344 3.45 315 -4.5 98 -4.7 0 0 992.0 NA 0.0000 9999 0 0 0 0
2019/11/08 02:34:00 BASE 1.94 347 3.19 326 -4.4 99 -4.6 0 0 992.0 NA 0.0000 9999 0 0 0 0
2019/11/08 02:35:00 BASE 1.86 343 3.04 311 -4.4 99 -4.6 0 0 992.0 NA 0.0000 9999 0 0 0 0
2019/11/08 02:36:00 BASE 1.88 331 3.04 311 -4.4 99 -4.5 0 0 992.0 NA 0.0000 9999 0 0 0 0
2019/11/08 02:37:00 BASE 2.07 320 2.68 308 -4.4 99 -4.5 0 0 992.1 NA 0.0000 9999 0 0 0 0
2019/11/08 02:38:00 BASE 2.22 322 2.62 318 -4.4 99 -4.6 0 0 992.1 NA 0.0000 9999 0 0 0 0
2019/11/08 02:39:00 BASE 2.02 331 2.62 318 -4.4 99 -4.6 0 0 992.1 NA 0.0000 9999 0 0 0 0
2019/11/08 02:40:00 BASE 1.80 337 2.62 318 -4.4 99 -4.6 0 0 992.1 NA 0.0000 9999 0 0 0 0
2019/11/08 02:41:00 BASE 1.85 339 2.62 318 -4.4 99 -4.6 0 0 992.1 NA 0.0000 9999 0 0 0 0
2019/11/08 02:42:00 BASE 2.10 336 2.62 318 -4.4 99 -4.5 0 0 992.1 NA 0.0000 9999 0 0 0 0
2019/11/08 02:43:00 BASE 2.04 329 2.62 318 -4.4 99 -4.5 0 0 992.1 NA 0.0000 9999 0 0 0 0
2019/11/08 02:44:00 BASE 1.70 328 2.62 318 -4.3 99 -4.4 0 0 992.2 NA 0.0000 9999 0 0 0 0
2019/11/08 02:45:00 BASE 1.61 330 2.62 318 -4.4 99 -4.4 0 0 992.2 NA 0.0000 9999 0 0 0 0
2019/11/08 02:46:00 BASE 1.61 330 2.62 318 -4.4 99 -4.5 0 0 992.2 NA 0.0000 9999 0 0 0 0
2019/11/08 02:47:00 BASE 1.54 330 2.42 332 -4.4 99 -4.5 0 0 992.2 NA 0.0000 9999 0 0 0 0
2019/11/08 02:48:00 BASE 1.49 328 2.42 332 -4.5 99 -4.6 0 0 992.2 NA 0.0000 9999 0 0 0 0
2019/11/08 02:49:00 BASE 1.41 332 2.42 332 -4.5 99 -4.6 0 0 992.2 NA 0.0000 9999 0 0 0 0
2019/11/08 02:50:00 BASE 1.41 337 2.42 332 -4.5 99 -4.6 0 0 992.2 NA 0.0000 9999 0 0 0 0
2019/11/08 02:51:00 BASE 1.54 341 2.42 332 -4.5 99 -4.6 0 0 992.2 NA 0.0000 9999 0 0 0 0
2019/11/08 02:52:00 BASE 1.78 350 2.16 354 -4.5 99 -4.6 0 0 992.2 NA 0.0000 9999 0 0 0 0
2019/11/08 02:53:00 BASE 1.76 358 2.16 354 -4.4 99 -4.6 0 0 992.2 NA 0.0000 9999 0 0 0 0
2019/11/08 02:54:00 BASE 1.89 359 2.62 354 -4.4 99 -4.5 0 0 992.2 NA 0.0000 9999 0 0 0 0
2019/11/08 02:55:00 BASE 2.44 1 3.04 350 -4.4 99 -4.5 0 0 992.2 NA 0.0000 9999 0 0 0 0
2019/11/08 02:56:00 BASE 2.65 2 3.04 350 -4.3 99 -4.4 0 0 992.2 NA 0.0000 9999 0 0 0 0
2019/11/08 02:57:00 BASE 2.57 0 3.04 350 -4.3 99 -4.4 0 0 992.2 NA 0.0000 9999 0 0 0 0
2019/11/08 02:58:00 BASE 2.52 0 3.04 350 -4.2 99 -4.4 0 0 992.2 NA 0.0000 9999 0 0 0 0
2019/11/08 02:59:00 BASE 2.51 1 3.04 350 -4.2 99 -4.4 0 0 992.2 NA 0.0000 9999 0 0 0 0
2019/11/08 03:00:00 BASE 2.33 360 3.04 350 -4.2 99 -4.4 0 0 992.2 NA 0.0000 9999 0 0 0 0
2019/11/08 03:01:00 BASE 1.93 359 3.04 350 -4.2 99 -4.4 0 0 992.3 NA 0.0000 9999 0 0 0 0
2019/11/08 03:02:00 BASE 1.79 3 3.04 350 -4.2 98 -4.4 0 0 992.3 NA 0.0000 9999 0 0 0 0
2019/11/08 03:03:00 BASE 1.66 360 3.04 350 -4.2 98 -4.4 0 0 992.3 NA 0.0000 9999 0 0 0 0
2019/11/08 03:04:00 BASE 1.15 355 3.04 350 -4.2 98 -4.5 0 0 992.3 NA 0.0000 9999 0 0 0 0
2019/11/08 03:05:00 BASE 0.78 350 2.93 348 -4.2 98 -4.5 0 0 992.3 NA 0.0000 9999 0 0 0 0
2019/11/08 03:06:00 BASE 1.23 343 2.93 348 -4.2 97 -4.5 0 0 992.3 NA 0.0000 9999 0 0 0 0
2019/11/08 03:07:00 BASE 1.11 336 2.93 348 -4.2 97 -4.6 0 0 992.3 NA 0.0000 9999 0 0 0 0
2019/11/08 03:08:00 BASE 1.04 337 2.88 351 -4.2 97 -4.6 0 0 992.4 NA 0.0000 9999 0 0 0 0
2019/11/08 03:09:00 BASE 1.93 343 2.68 347 -4.2 97 -4.6 0 0 992.4 NA 0.0000 9999 0 0 0 0
2019/11/08 03:10:00 BASE 2.12 350 2.68 347 -4.2 97 -4.6 0 0 992.4 NA 0.0000 9999 0 0 0 0
2019/11/08 03:11:00 BASE 2.17 359 2.68 350 -4.2 97 -4.6 0 0 992.4 NA 0.0000 9999 0 0 0 0
2019/11/08 03:12:00 BASE 2.55 356 3.24 3 -4.2 97 -4.6 0 0 992.4 NA 0.0000 9999 0 0 0 0
2019/11/08 03:13:00 BASE 2.64 360 3.24 3 -4.1 96 -4.6 0 0 992.4 NA 0.0000 9999 0 0 0 0
2019/11/08 03:14:00 BASE 2.64 3 3.40 349 -4.1 96 -4.6 0 0 992.4 NA 0.0000 9999 0 0 0 0
2019/11/08 03:15:00 BASE 2.37 355 3.40 349 -4.1 96 -4.6 0 0 992.4 NA 0.0000 9999 0 0 0 0
2019/11/08 03:16:00 BASE 2.21 0 3.40 349 -4.0 96 -4.6 0 0 992.4 NA 0.0000 9999 0 0 0 0
2019/11/08 03:17:00 BASE 2.38 10 3.40 349 -4.0 96 -4.6 0 0 992.4 NA 0.0000 9999 0 0 0 0
2019/11/08 03:18:00 BASE 2.69 9 3.65 2 -4.0 96 -4.5 0 0 992.4 NA 0.0000 9999 0 0 0 0
2019/11/08 03:19:00 BASE 2.69 3 3.65 2 -3.9 96 -4.5 0 0 992.5 NA 0.0000 9999 0 0 0 0
2019/11/08 03:20:00 BASE 2.13 355 3.65 2 -3.9 96 -4.5 0 0 992.5 NA 0.0000 9999 0 0 0 0
2019/11/08 03:21:00 BASE 2.04 343 3.65 2 -3.9 96 -4.4 0 0 992.6 NA 0.0000 9999 0 0 0 0
2019/11/08 03:22:00 BASE 2.43 344 3.65 2 -3.9 96 -4.4 0 0 992.6 NA 0.0000 9999 0 0 0 0
2019/11/08 03:23:00 BASE 2.73 350 3.65 2 -3.9 96 -4.4 0 0 992.6 NA 0.0000 9999 0 0 0 0
2019/11/08 03:24:00 BASE 2.57 346 3.65 2 -3.9 96 -4.4 0 0 992.6 NA 0.0000 9999 0 0 0 0
2019/11/08 03:25:00 BASE 2.33 339 3.65 2 -3.9 96 -4.4 0 0 992.6 NA 0.0000 9999 0 0 0 0
2019/11/08 03:26:00 BASE 2.11 339 3.65 2 -3.9 96 -4.4 0 0 992.6 NA 0.0000 9999 0 0 0 0
2019/11/08 03:27:00 BASE 2.52 348 3.76 352 -3.9 96 -4.5 0 0 992.6 NA 0.0000 9999 0 0 0 0
2019/11/08 03:28:00 BASE 3.44 353 4.53 353 -3.9 96 -4.5 0 0 992.6 NA 0.0000 9999 0 0 0 0
2019/11/08 03:29:00 BASE 4.06 351 5.35 343 -3.9 95 -4.6 0 0 992.6 NA 0.0000 9999 0 0 0 0
2019/11/08 03:30:00 BASE 4.13 349 5.35 343 -4.0 95 -4.6 0 0 992.6 NA 0.0000 9999 0 0 0 0
2019/11/08 03:31:00 BASE 4.03 347 5.35 343 -4.0 95 -4.7 0 0 992.7 NA 0.0000 9999 0 0 0 0
2019/11/08 03:32:00 BASE 4.64 345 5.35 347 -4.0 95 -4.7 0 0 992.7 NA 0.0000 9999 0 0 0 0
2019/11/08 03:33:00 BASE 5.20 344 5.61 341 -4.0 95 -4.7 0 0 992.7 NA 0.0000 9999 0 0 0 0
2019/11/08 03:34:00 BASE 5.23 346 5.92 346 -4.0 95 -4.7 0 0 992.7 NA 0.0000 9999 0 0 0 0
2019/11/08 03:35:00 BASE 4.94 346 5.92 346 -4.0 95 -4.7 0 0 992.7 NA 0.0000 9999 0 0 0 0
2019/11/08 03:36:00 BASE 4.60 346 5.92 346 -4.0 95 -4.7 0 0 992.7 NA 0.0000 9999 0 0 0 0
2019/11/08 03:37:00 BASE 4.64 348 5.92 346 -4.0 95 -4.7 0 0 992.7 NA 0.0000 9999 0 0 0 0
2019/11/08 03:38:00 BASE 4.44 345 5.92 346 -4.0 95 -4.7 0 0 992.7 NA 0.0000 9999 0 0 0 0
2019/11/08 03:39:00 BASE 4.48 342 5.92 346 -3.9 94 -4.7 0 0 992.7 NA 0.0000 9999 0 0 0 0
2019/11/08 03:40:00 BASE 4.77 342 5.92 346 -3.9 94 -4.7 0 0 992.7 NA 0.0000 9999 0 0 0 0
2019/11/08 03:41:00 BASE 4.55 343 5.92 346 -3.9 94 -4.7 0 0 992.7 NA 0.0000 9999 0 0 0 0
2019/11/08 03:42:00 BASE 4.38 343 5.92 346 -3.9 94 -4.7 0 0 992.7 NA 0.0000 9999 0 0 0 0
2019/11/08 03:43:00 BASE 4.74 344 5.92 346 -3.9 94 -4.7 0 0 992.8 NA 0.0000 9999 0 0 0 0
2019/11/08 03:44:00 BASE 4.99 346 5.45 343 -3.9 94 -4.7 0 0 992.8 NA 0.0000 9999 0 0 0 0
2019/11/08 03:45:00 BASE 4.94 345 5.45 343 -3.9 94 -4.7 0 0 992.8 NA 0.0000 9999 0 0 0 0
2019/11/08 03:46:00 BASE 4.85 342 5.45 343 -3.9 94 -4.7 0 0 992.8 NA 0.0000 9999 0 0 0 0
2019/11/08 03:47:00 BASE 4.79 345 5.45 343 -3.9 94 -4.7 0 0 992.8 NA 0.0000 9999 0 0 0 0
2019/11/08 03:48:00 BASE 4.88 347 5.45 343 -3.9 94 -4.7 0 0 992.8 NA 0.0000 9999 0 0 0 0
2019/11/08 03:49:00 BASE 4.75 347 5.45 343 -3.9 94 -4.7 0 0 992.8 NA 0.0000 9999 0 0 0 0
2019/11/08 03:50:00 BASE 4.26 351 5.45 343 -3.8 94 -4.7 0 0 992.8 NA 0.0000 9999 0 0 0 0
2019/11/08 03:51:00 BASE 3.78 357 5.45 343 -3.8 94 -4.7 0 0 992.8 NA 0.0000 9999 0 0 0 0
2019/11/08 03:52:00 BASE 3.51 1 5.45 343 -3.8 94 -4.6 0 0 992.8 NA 0.0000 9999 0 0 0 0
2019/11/08 03:53:00 BASE 3.11 6 5.35 344 -3.8 94 -4.6 0 0 992.8 NA 0.0000 9999 0 0 0 0
2019/11/08 03:54:00 BASE 2.77 5 5.35 344 -3.8 94 -4.6 0 0 992.8 NA 0.0000 9999 0 0 0 0
2019/11/08 03:55:00 BASE 2.68 0 5.35 344 -3.8 94 -4.6 0 0 992.8 NA 0.0000 9999 0 0 0 0
2019/11/08 03:56:00 BASE 2.83 0 5.35 344 -3.8 94 -4.6 0 0 992.8 NA 0.0000 9999 0 0 0 0
2019/11/08 03:57:00 BASE 3.04 7 5.35 344 -3.8 94 -4.6 0 0 992.8 NA 0.0000 9999 0 0 0 0
2019/11/08 03:58:00 BASE 2.72 15 5.14 344 -3.8 94 -4.6 0 0 992.8 NA 0.0000 9999 0 0 0 0
2019/11/08 03:59:00 BASE 1.78 16 4.12 354 -3.8 94 -4.6 0 0 992.9 NA 0.0000 9999 0 0 0 0
2019/11/08 04:00:00 BASE 1.85 10 4.12 354 -3.8 94 -4.6 0 0 992.9 NA 0.0000 9999 0 0 0 0
2019/11/08 04:02:00 BASE 2.27 6 3.81 341 -3.8 94 -4.6 0 0 992.9 NA 0.0000 9999 0 0 0 0
2019/11/08 04:03:00 BASE 2.07 10 3.60 28 -3.7 94 -4.6 0 0 992.9 NA 0.0000 9999 0 0 0 0
2019/11/08 04:04:00 BASE 1.75 19 3.60 28 -3.7 93 -4.6 0 0 992.9 NA 0.0000 9999 0 0 0 0
2019/11/08 04:05:00 BASE 1.64 25 3.60 28 -3.7 93 -4.6 0 0 992.9 NA 0.0000 9999 0 0 0 0
2019/11/08 04:06:00 BASE 1.67 20 3.60 28 -3.7 93 -4.7 0 0 992.9 NA 0.0000 9999 0 0 0 0
2019/11/08 04:07:00 BASE 1.66 28 3.60 28 -3.7 93 -4.6 0 0 992.9 NA 0.0000 9999 0 0 0 0
2019/11/08 04:08:00 BASE 2.26 41 3.14 22 -3.7 93 -4.6 0 0 992.9 NA 0.0000 9999 0 0 0 0
2019/11/08 04:09:00 BASE 2.79 44 3.34 55 -3.7 93 -4.7 0 0 992.9 NA 0.0000 9999 0 0 0 0
2019/11/08 04:10:00 BASE 2.80 51 3.34 55 -3.7 92 -4.8 0 0 992.9 NA 0.0000 9999 0 0 0 0
2019/11/08 04:11:00 BASE 2.71 58 3.34 55 -3.8 92 -4.9 0 0 992.9 NA 0.0000 9999 0 0 0 0
2019/11/08 04:12:00 BASE 2.77 60 3.34 55 -3.9 92 -5.0 0 0 992.9 NA 0.0000 9999 0 0 0 0
2019/11/08 04:13:00 BASE 3.00 51 3.55 53 -4.0 92 -5.1 0 0 992.9 NA 0.0000 9999 0 0 0 0
2019/11/08 04:14:00 BASE 3.07 42 3.55 53 -4.0 92 -5.1 0 0 992.9 NA 0.0000 9999 0 0 0 0
2019/11/08 04:15:00 BASE 3.24 43 3.91 41 -4.0 92 -5.1 0 0 992.9 NA 0.0000 9999 0 0 0 0
2019/11/08 04:16:00 BASE 3.27 45 3.91 41 -4.0 92 -5.1 0 0 992.9 NA 0.0000 9999 0 0 0 0
2019/11/08 04:17:00 BASE 2.98 49 3.91 41 -4.0 92 -5.1 0 0 992.9 NA 0.0000 9999 0 0 0 0
2019/11/08 04:18:00 BASE 2.68 55 3.91 41 -4.0 92 -5.1 0 0 992.9 NA 0.0000 9999 0 0 0 0
2019/11/08 04:19:00 BASE 2.20 58 3.91 41 -4.1 92 -5.2 0 0 992.9 NA 0.0000 9999 0 0 0 0
2019/11/08 04:20:00 BASE 2.06 57 3.91 41 -4.1 92 -5.2 0 0 992.9 NA 0.0000 9999 0 0 0 0
2019/11/08 04:21:00 BASE 2.23 51 3.91 41 -4.1 92 -5.2 0 0 992.9 NA 0.0000 9999 0 0 0 0
2019/11/08 04:22:00 BASE 2.45 45 3.91 41 -4.1 92 -5.2 0 0 992.9 NA 0.0000 9999 0 0 0 0
2019/11/08 04:23:00 BASE 2.71 44 3.91 41 -4.0 92 -5.1 0 0 992.9 NA 0.0000 9999 0 0 0 0
2019/11/08 04:24:00 BASE 2.71 46 3.91 41 -4.0 92 -5.1 0 0 992.9 NA 0.0000 9999 0 0 0 0
2019/11/08 04:25:00 BASE 2.77 47 3.55 42 -4.0 92 -5.1 0 0 993.0 NA 0.0000 9999 0 0 0 0
2019/11/08 04:26:00 BASE 2.89 47 3.24 56 -4.0 92 -5.1 0 0 993.0 NA 0.0000 9999 0 0 0 0
2019/11/08 04:27:00 BASE 3.15 48 3.81 47 -4.0 92 -5.1 0 0 993.0 NA 0.0000 9999 0 0 0 0
2019/11/08 04:28:00 BASE 3.47 43 3.81 38 -4.0 92 -5.1 0 0 993.0 NA 0.0000 9999 0 0 0 0
2019/11/08 04:29:00 BASE 3.60 41 4.06 50 -4.0 92 -5.1 0 0 993.0 NA 0.0000 9999 0 0 0 0
2019/11/08 04:30:00 BASE 3.82 44 4.27 49 -4.0 92 -5.1 0 0 993.0 NA 0.0000 9999 0 0 0 0
2019/11/08 04:31:00 BASE 4.05 43 4.48 47 -4.0 92 -5.1 0 0 993.0 NA 0.0000 9999 0 0 0 0
2019/11/08 04:32:00 BASE 4.09 43 4.58 41 -4.0 92 -5.1 0 0 993.0 NA 0.0000 9999 0 0 0 0
2019/11/08 04:33:00 BASE 3.92 44 4.58 41 -4.0 92 -5.1 0 0 993.0 NA 0.0000 9999 0 0 0 0
2019/11/08 04:34:00 BASE 3.70 46 4.58 41 -4.0 92 -5.1 0 0 993.0 NA 0.0000 9999 0 0 0 0
2019/11/08 04:35:00 BASE 3.51 49 4.58 41 -4.0 92 -5.1 0 0 993.1 NA 0.0000 9999 0 0 0 0
2019/11/08 04:36:00 BASE 3.47 49 4.58 41 -4.0 92 -5.2 0 0 993.1 NA 0.0000 9999 0 0 0 0
2019/11/08 04:37:00 BASE 3.61 50 4.58 41 -4.0 92 -5.1 0 0 993.1 NA 0.0000 9999 0 0 0 0
2019/11/08 04:38:00 BASE 3.71 50 4.63 49 -4.0 92 -5.1 0 0 993.2 NA 0.0000 9999 0 0 0 0
2019/11/08 04:39:00 BASE 3.73 48 4.63 49 -4.0 92 -5.2 0 0 993.2 NA 0.0000 9999 0 0 0 0
2019/11/08 04:40:00 BASE 3.85 49 4.63 49 -4.1 92 -5.2 0 0 993.2 NA 0.0000 9999 0 0 0 0
2019/11/08 04:41:00 BASE 4.05 52 4.63 49 -4.1 92 -5.2 0 0 993.2 NA 0.0000 9999 0 0 0 0
2019/11/08 04:42:00 BASE 4.47 54 5.25 53 -4.1 92 -5.2 0 0 993.2 NA 0.0000 9999 0 0 0 0
2019/11/08 04:43:00 BASE 4.78 55 5.25 53 -4.1 92 -5.2 0 0 993.2 NA 0.0000 9999 0 0 0 0
2019/11/08 04:44:00 BASE 4.71 54 5.25 53 -4.1 92 -5.2 0 0 993.2 NA 0.0000 9999 0 0 0 0
2019/11/08 04:45:00 BASE 4.65 54 5.25 53 -4.1 92 -5.2 0 0 993.2 NA 0.0000 9999 0 0 0 0
2019/11/08 04:46:00 BASE 4.49 52 5.25 53 -4.1 92 -5.2 0 0 993.2 NA 0.0000 9999 0 0 0 0
2019/11/08 04:47:00 BASE 4.08 49 5.25 53 -4.1 92 -5.2 0 0 993.2 NA 0.0000 9999 0 0 0 0
2019/11/08 04:48:00 BASE 3.87 50 5.25 53 -4.1 92 -5.2 0 0 993.2 NA 0.0000 9999 0 0 0 0
2019/11/08 04:49:00 BASE 3.89 52 5.25 53 -4.1 92 -5.2 0 0 993.2 NA 0.0000 9999 0 0 0 0
2019/11/08 04:50:00 BASE 3.67 49 5.25 53 -4.1 92 -5.2 0 0 993.2 NA 0.0000 9999 0 0 0 0
2019/11/08 04:51:00 BASE 3.36 47 5.25 53 -4.1 92 -5.2 0 0 993.2 NA 0.0000 9999 0 0 0 0
2019/11/08 04:52:00 BASE 3.18 51 4.99 54 -4.1 92 -5.2 0 0 993.2 NA 0.0000 9999 0 0 0 0
2019/11/08 04:53:00 BASE 3.23 56 4.89 58 -4.1 92 -5.2 0 0 993.2 NA 0.0000 9999 0 0 0 0
2019/11/08 04:54:00 BASE 3.44 57 4.89 58 -4.1 92 -5.2 0 0 993.2 NA 0.0000 9999 0 0 0 0
2019/11/08 04:55:00 BASE 3.61 52 4.68 50 -4.1 92 -5.2 0 0 993.2 NA 0.0000 9999 0 0 0 0
2019/11/08 04:56:00 BASE 3.63 45 4.32 54 -4.1 92 -5.2 0 0 993.2 NA 0.0000 9999 0 0 0 0
2019/11/08 04:57:00 BASE 3.51 41 4.32 54 -4.0 92 -5.1 0 0 993.2 NA 0.0000 9999 0 0 0 0
2019/11/08 04:58:00 BASE 3.40 41 4.32 54 -4.0 92 -5.1 0 0 993.2 NA 0.0000 9999 0 0 0 0
2019/11/08 04:59:00 BASE 3.28 47 4.01 36 -4.0 92 -5.1 0 0 993.2 NA 0.0000 9999 0 0 0 0
2019/11/08 05:00:00 BASE 3.20 56 4.01 36 -4.0 92 -5.2 0 0 993.2 NA 0.0000 9999 0 0 0 0
2019/11/08 05:01:00 BASE 3.38 58 4.01 36 -4.1 92 -5.2 0 0 993.3 NA 0.0000 9999 0 0 0 0
2019/11/08 05:02:00 BASE 3.20 55 4.01 36 -4.1 92 -5.2 0 0 993.3 NA 0.0000 9999 0 0 0 0
2019/11/08 05:03:00 BASE 2.79 53 4.01 36 -4.1 92 -5.2 0 0 993.3 NA 0.0000 9999 0 0 0 0
2019/11/08 05:04:00 BASE 2.99 50 4.01 36 -4.1 92 -5.2 0 0 993.3 NA 0.0000 9999 0 0 0 0
2019/11/08 05:05:01 BASE 3.27 47 4.01 36 -4.1 92 -5.2 0 0 993.3 NA 0.0000 9999 0 0 0 0
2019/11/08 05:06:01 BASE 3.18 50 4.01 36 -4.1 92 -5.2 0 0 993.3 NA 0.0000 9999 0 0 0 0
2019/11/08 05:07:01 BASE 3.11 56 3.86 64 -4.1 92 -5.2 0 0 993.3 NA 0.0000 9999 0 0 0 0
2019/11/08 05:08:01 BASE 3.33 56 3.86 64 -4.1 92 -5.2 0 0 993.3 NA 0.0000 9999 0 0 0 0
2019/11/08 05:09:00 BASE 3.40 55 3.86 64 -4.1 92 -5.2 0 0 993.3 NA 0.0000 9999 0 0 0 0
2019/11/08 05:10:00 BASE 3.28 55 3.86 64 -4.1 93 -5.2 0 0 993.3 NA 0.0000 9999 0 0 0 0
2019/11/08 05:11:00 BASE 3.40 53 3.76 49 -4.1 93 -5.1 0 0 993.3 NA 0.0000 9999 0 0 0 0
2019/11/08 05:12:00 BASE 3.42 52 3.76 49 -4.2 93 -5.1 0 0 993.3 NA 0.0000 9999 0 0 0 0
2019/11/08 05:13:01 BASE 3.29 54 3.76 49 -4.2 93 -5.2 0 0 993.3 NA 0.0000 9999 0 0 0 0
2019/11/08 05:14:00 BASE 3.28 55 3.76 49 -4.2 93 -5.2 0 0 993.3 NA 0.0000 9999 0 0 0 0
2019/11/08 05:15:00 BASE 3.20 55 3.76 49 -4.2 93 -5.1 0 0 993.3 NA 0.0000 9999 0 0 0 0
2019/11/08 05:16:00 BASE 3.10 55 3.76 49 -4.1 93 -5.1 0 0 993.3 NA 0.0000 9999 0 0 0 0
2019/11/08 05:17:00 BASE 3.19 53 3.76 49 -4.1 93 -5.1 0 0 993.3 NA 0.0000 9999 0 0 0 0
2019/11/08 05:18:00 BASE 3.10 49 3.76 49 -4.1 93 -5.1 0 0 993.3 NA 0.0000 9999 0 0 0 0
2019/11/08 05:19:00 BASE 2.87 46 3.76 49 -4.1 93 -5.1 0 0 993.3 NA 0.0000 9999 0 0 0 0
2019/11/08 05:20:00 BASE 2.77 47 3.76 49 -4.1 93 -5.1 0 0 993.4 NA 0.0000 9999 0 0 0 0
2019/11/08 05:21:00 BASE 2.77 49 3.45 52 -4.1 92 -5.1 0 0 993.4 NA 0.0000 9999 0 0 0 0
2019/11/08 05:22:01 BASE 2.79 48 3.45 52 -4.1 92 -5.2 0 0 993.4 NA 0.0000 9999 0 0 0 0
2019/11/08 05:23:00 BASE 2.70 42 3.45 52 -4.1 92 -5.2 0 0 993.4 NA 0.0000 9999 0 0 0 0
2019/11/08 05:24:00 BASE 2.50 40 3.45 52 -4.1 92 -5.2 0 0 993.4 NA 0.0000 9999 0 0 0 0
2019/11/08 05:25:00 BASE 2.29 42 3.45 52 -4.1 92 -5.2 0 0 993.4 NA 0.0000 9999 0 0 0 0
2019/11/08 05:26:00 BASE 2.36 45 3.45 52 -4.1 92 -5.2 0 0 993.4 NA 0.0000 9999 0 0 0 0
2019/11/08 05:27:00 BASE 2.57 44 3.09 51 -4.1 92 -5.2 0 0 993.4 NA 0.0000 9999 0 0 0 0
2019/11/08 05:28:00 BASE 2.71 43 3.04 55 -4.1 92 -5.2 0 0 993.4 NA 0.0000 9999 0 0 0 0
2019/11/08 05:29:00 BASE 2.92 47 3.45 57 -4.1 93 -5.2 0 0 993.4 NA 0.0000 9999 0 0 0 0
2019/11/08 05:30:00 BASE 3.04 50 3.45 57 -4.1 93 -5.1 0 0 993.4 NA 0.0000 9999 0 0 0 0
2019/11/08 05:31:00 BASE 3.02 51 3.45 57 -4.1 93 -5.1 0 0 993.4 NA 0.0000 9999 0 0 0 0
2019/11/08 05:32:00 BASE 2.97 53 3.45 57 -4.1 93 -5.2 0 0 993.4 NA 0.0000 9999 0 0 0 0
2019/11/08 05:33:00 BASE 2.87 51 3.45 57 -4.1 93 -5.2 0 0 993.4 NA 0.0000 9999 0 0 0 0
2019/11/08 05:34:00 BASE 3.03 49 3.60 49 -4.1 92 -5.2 0 0 993.4 NA 0.0000 9999 0 0 0 0
2019/11/08 05:35:00 BASE 3.09 49 3.60 49 -4.1 92 -5.2 0 0 993.4 NA 0.0000 9999 0 0 0 0
2019/11/08 05:36:00 BASE 2.91 47 3.60 49 -4.1 92 -5.2 0 0 993.4 NA 0.0000 9999 0 0 0 0
2019/11/08 05:37:00 BASE 2.87 47 3.60 49 -4.2 92 -5.2 0 0 993.4 NA 0.0000 9999 0 0 0 0
2019/11/08 05:38:00 BASE 2.81 49 3.60 49 -4.2 92 -5.3 0 0 993.5 NA 0.0000 9999 0 0 0 0
2019/11/08 05:39:00 BASE 2.86 53 3.60 49 -4.2 92 -5.3 0 0 993.5 NA 0.0000 9999 0 0 0 0
2019/11/08 05:40:00 BASE 2.86 54 3.60 49 -4.2 92 -5.3 0 0 993.5 NA 0.0000 9999 0 0 0 0
2019/11/08 05:41:00 BASE 2.56 52 3.60 49 -4.2 92 -5.3 0 0 993.5 NA 0.0000 9999 0 0 0 0
2019/11/08 05:42:00 BASE 2.26 41 3.60 49 -4.1 92 -5.2 0 0 993.5 NA 0.0000 9999 0 0 0 0
2019/11/08 05:43:00 BASE 2.04 33 3.60 49 -4.1 92 -5.2 0 0 993.5 NA 0.0000 9999 0 0 0 0
2019/11/08 05:44:00 BASE 1.99 37 3.34 51 -4.1 92 -5.2 0 0 993.5 NA 0.0000 9999 0 0 0 0
2019/11/08 05:45:00 BASE 2.07 40 3.19 52 -4.1 92 -5.2 0 0 993.5 NA 0.0000 9999 0 0 0 0
2019/11/08 05:46:00 BASE 2.18 41 3.19 52 -4.1 92 -5.2 0 0 993.5 NA 0.0000 9999 0 0 0 0
2019/11/08 05:47:00 BASE 2.29 45 3.19 52 -4.1 92 -5.2 0 0 993.5 NA 0.0000 9999 0 0 0 0
2019/11/08 05:48:00 BASE 2.29 45 3.19 52 -4.1 92 -5.2 0 0 993.5 NA 0.0000 9999 0 0 0 0
2019/11/08 05:49:00 BASE 2.25 41 3.09 53 -4.1 92 -5.2 0 0 993.5 NA 0.0000 9999 0 0 0 0
2019/11/08 05:50:00 BASE 2.34 41 2.62 44 -4.1 92 -5.2 0 0 993.5 NA 0.0000 9999 0 0 0 0
2019/11/08 05:51:00 BASE 2.37 42 2.62 44 -4.1 92 -5.2 0 0 993.5 NA 0.0000 9999 0 0 0 0
2019/11/08 05:52:00 BASE 2.29 40 2.62 44 -4.1 92 -5.2 0 0 993.5 NA 0.0000 9999 0 0 0 0
2019/11/08 05:53:00 BASE 2.16 39 2.62 44 -4.1 92 -5.2 0 0 993.5 NA 0.0000 9999 0 0 0 0
2019/11/08 05:54:00 BASE 2.04 43 2.62 44 -4.1 92 -5.2 0 0 993.5 NA 0.0000 9999 0 0 0 0
2019/11/08 05:55:00 BASE 2.04 47 2.62 44 -4.1 92 -5.2 0 0 993.5 NA 0.0000 9999 0 0 0 0
2019/11/08 05:56:00 BASE 2.04 44 2.62 44 -4.1 92 -5.3 0 0 993.5 NA 0.0000 9999 0 0 0 0
2019/11/08 05:57:00 BASE 2.11 40 2.62 44 -4.1 92 -5.3 0 0 993.5 NA 0.0000 9999 0 0 0 0
2019/11/08 05:58:00 BASE 2.21 36 2.62 44 -4.2 91 -5.3 0 0 993.5 NA 0.0000 9999 0 0 0 0
2019/11/08 05:59:00 BASE 2.18 39 2.62 44 -4.2 91 -5.4 0 0 993.6 NA 0.0000 9999 0 0 0 0
2019/11/08 06:00:00 BASE 2.13 40 2.47 42 -4.2 91 -5.4 0 0 993.6 NA 0.0000 9999 0 0 0 0
2019/11/08 06:01:00 BASE 2.25 41 2.57 45 -4.2 91 -5.4 0 0 993.6 NA 0.0000 9999 0 0 0 0
2019/11/08 06:02:00 BASE 2.53 46 2.78 46 -4.2 91 -5.4 0 0 993.6 NA 0.0000 9999 0 0 0 0
2019/11/08 06:03:00 BASE 2.61 49 2.78 46 -4.2 91 -5.4 0 0 993.6 NA 0.0000 9999 0 0 0 0
2019/11/08 06:04:00 BASE 2.53 47 2.78 46 -4.2 91 -5.4 0 0 993.6 NA 0.0000 9999 0 0 0 0
2019/11/08 06:05:00 BASE 2.47 44 2.78 46 -4.2 92 -5.4 0 0 993.6 NA 0.0000 9999 0 0 0 0
2019/11/08 06:06:00 BASE 2.29 44 2.78 46 -4.2 92 -5.3 0 0 993.6 NA 0.0000 9999 0 0 0 0
2019/11/08 06:07:00 BASE 2.21 43 2.78 46 -4.2 92 -5.3 0 0 993.6 NA 0.0000 9999 0 0 0 0
2019/11/08 06:08:00 BASE 2.20 38 2.78 46 -4.2 92 -5.3 0 0 993.6 NA 0.0000 9999 0 0 0 0
2019/11/08 06:09:00 BASE 2.24 33 2.78 46 -4.2 92 -5.3 0 0 993.6 NA 0.0000 9999 0 0 0 0
2019/11/08 06:10:00 BASE 2.24 30 2.78 46 -4.2 92 -5.3 0 0 993.6 NA 0.0000 9999 0 0 0 0
2019/11/08 06:11:00 BASE 2.10 29 2.78 46 -4.2 92 -5.3 0 0 993.6 NA 0.0000 9999 0 0 0 0
2019/11/08 06:12:00 BASE 2.03 30 2.68 46 -4.2 92 -5.4 0 0 993.6 NA 0.0000 9999 0 0 0 0
2019/11/08 06:13:00 BASE 2.07 27 2.62 48 -4.2 91 -5.4 0 0 993.6 NA 0.0000 9999 0 0 0 0
2019/11/08 06:14:00 BASE 2.09 28 2.52 31 -4.3 91 -5.5 0 0 993.6 NA 0.0000 9999 0 0 0 0
2019/11/08 06:15:00 BASE 2.15 27 2.52 23 -4.3 91 -5.5 0 0 993.6 NA 0.0000 9999 0 0 0 0
2019/11/08 06:16:00 BASE 2.30 25 2.52 26 -4.4 91 -5.6 0 0 993.6 NA 0.0000 9999 0 0 0 0
2019/11/08 06:17:00 BASE 2.43 26 2.68 22 -4.4 92 -5.6 0 0 993.6 NA 0.0000 9999 0 0 0 0
2019/11/08 06:18:01 BASE 2.48 23 2.73 22 -4.4 92 -5.5 0 0 993.7 NA 0.0000 9999 0 0 0 0
2019/11/08 06:19:00 BASE 2.53 22 2.83 23 -4.4 93 -5.5 0 0 993.7 NA 0.0000 9999 0 0 0 0
2019/11/08 06:20:00 BASE 2.67 24 2.93 25 -4.4 93 -5.4 0 0 993.7 NA 0.0000 9999 0 0 0 0
2019/11/08 06:21:00 BASE 2.74 26 3.19 24 -4.4 93 -5.4 0 0 993.7 NA 0.0000 9999 0 0 0 0
2019/11/08 06:22:00 BASE 2.78 25 3.19 26 -4.4 93 -5.3 0 0 993.7 NA 0.0000 9999 0 0 0 0
2019/11/08 06:23:00 BASE 2.73 24 3.19 26 -4.3 93 -5.3 0 0 993.7 NA 0.0000 9999 0 0 0 0
2019/11/08 06:24:00 BASE 2.69 28 3.19 26 -4.3 93 -5.3 0 0 993.7 NA 0.0000 9999 0 0 0 0
2019/11/08 06:25:00 BASE 2.81 31 3.34 32 -4.3 93 -5.3 0 0 993.7 NA 0.0000 9999 0 0 0 0
2019/11/08 06:26:00 BASE 2.98 30 3.34 32 -4.3 93 -5.3 0 0 993.7 NA 0.0000 9999 0 0 0 0
2019/11/08 06:27:00 BASE 3.08 31 3.34 32 -4.4 93 -5.3 0 0 993.7 NA 0.0000 9999 0 0 0 0
2019/11/08 06:28:00 BASE 3.04 31 3.34 32 -4.4 93 -5.4 0 0 993.7 NA 0.0000 9999 0 0 0 0
2019/11/08 06:29:00 BASE 3.16 33 3.55 39 -4.5 93 -5.4 0 0 993.7 NA 0.0000 9999 0 0 0 0
2019/11/08 06:30:00 BASE 3.34 35 3.55 39 -4.5 93 -5.4 1 0 993.7 NA 0.0000 9999 0 0 0 0
2019/11/08 06:31:00 BASE 3.27 34 3.55 39 -4.5 93 -5.5 1 0 993.7 NA 0.0000 9999 0 0 0 0
2019/11/08 06:32:00 BASE 3.15 34 3.55 39 -4.5 93 -5.5 1 0 993.7 NA 0.0000 9999 0 0 0 0
2019/11/08 06:33:00 BASE 2.95 34 3.55 39 -4.5 93 -5.5 1 0 993.8 NA 0.0000 9999 0 0 0 0
2019/11/08 06:34:00 BASE 2.90 32 3.55 39 -4.5 93 -5.5 1 0 993.9 NA 0.0000 9999 0 0 0 0
2019/11/08 06:35:00 BASE 3.01 26 3.55 39 -4.5 93 -5.4 1 0 993.9 NA 0.0000 9999 0 0 0 0
2019/11/08 06:36:00 BASE 3.16 25 3.55 27 -4.5 94 -5.4 1 0 993.9 NA 0.0000 9999 0 0 0 0
2019/11/08 06:37:00 BASE 3.38 29 3.91 31 -4.5 94 -5.4 1 0 993.9 NA 0.0000 9999 0 0 0 0
2019/11/08 06:38:00 BASE 3.70 31 4.17 27 -4.6 94 -5.4 1 0 993.9 NA 0.0000 9999 0 0 0 0
2019/11/08 06:39:00 BASE 3.75 30 4.17 27 -4.6 94 -5.4 1 0 993.9 NA 0.0000 9999 0 0 0 0
2019/11/08 06:40:00 BASE 3.42 31 4.17 27 -4.6 94 -5.4 1 0 993.9 NA 0.0000 9999 0 0 0 0
2019/11/08 06:41:00 BASE 2.93 31 4.17 27 -4.6 94 -5.4 1 0 993.9 NA 0.0000 9999 0 0 0 0
2019/11/08 06:42:00 BASE 2.45 27 4.17 27 -4.6 94 -5.4 1 0 993.9 NA 0.0000 9999 0 0 0 0
2019/11/08 06:43:00 BASE 2.03 23 4.17 27 -4.6 94 -5.4 1 0 994.0 NA 0.0000 9999 0 0 0 0
2019/11/08 06:44:00 BASE 2.01 26 4.17 27 -4.7 94 -5.5 1 0 994.0 NA 0.0000 9999 0 0 0 0
2019/11/08 06:45:00 BASE 2.55 29 4.17 27 -4.8 94 -5.5 1 0 994.0 NA 0.0000 9999 0 0 0 0
2019/11/08 06:46:00 BASE 2.96 29 4.17 27 -4.8 94 -5.6 1 0 994.0 NA 0.0000 9999 0 0 0 0
2019/11/08 06:47:00 BASE 3.21 29 4.17 27 -4.8 95 -5.6 2 0 994.0 NA 0.0000 9999 0 0 0 0
2019/11/08 06:48:00 BASE 3.27 28 3.86 34 -4.8 95 -5.5 2 0 994.0 NA 0.0000 9999 0 0 0 0
2019/11/08 06:49:00 BASE 3.22 30 3.55 23 -4.8 95 -5.4 2 0 994.0 NA 0.0000 9999 0 0 0 0
2019/11/08 06:50:00 BASE 3.04 29 3.55 23 -4.7 96 -5.3 2 0 994.0 NA 0.0000 9999 0 0 0 0
2019/11/08 06:51:00 BASE 2.81 22 3.55 23 -4.7 96 -5.2 2 0 994.0 NA 0.0000 9999 0 0 0 0
2019/11/08 06:52:00 BASE 2.60 19 3.55 23 -4.6 96 -5.2 2 0 994.0 NA 0.0000 9999 0 0 0 0
2019/11/08 06:53:00 BASE 2.34 19 3.55 23 -4.6 96 -5.1 2 0 994.0 NA 0.0000 9999 0 0 0 0
2019/11/08 06:54:00 BASE 2.20 20 3.55 23 -4.6 96 -5.1 2 0 994.0 NA 0.0000 9999 0 0 0 0
2019/11/08 06:55:00 BASE 2.18 25 3.55 23 -4.6 96 -5.1 2 0 994.1 NA 0.0000 9999 0 0 0 0
2019/11/08 06:56:00 BASE 2.23 29 3.55 23 -4.5 96 -5.1 2 0 994.1 NA 0.0000 9999 0 0 0 0
2019/11/08 06:57:00 BASE 2.17 30 3.55 23 -4.5 96 -5.1 3 0 994.1 NA 0.0000 9999 0 0 0 0
2019/11/08 06:58:00 BASE 2.12 33 3.45 32 -4.5 96 -5.1 3 0 994.1 NA 0.0000 9999 0 0 0 0
2019/11/08 06:59:00 BASE 2.30 37 3.24 38 -4.5 96 -5.1 3 0 994.1 NA 0.0000 9999 0 0 0 0
2019/11/08 07:00:00 BASE 2.25 36 2.98 22 -4.4 96 -5.0 3 0 994.1 NA 0.0000 9999 0 0 0 0
2019/11/08 07:01:00 BASE 1.98 30 2.78 41 -4.4 95 -5.0 3 0 994.1 NA 0.0000 9999 0 0 0 0
2019/11/08 07:02:00 BASE 1.44 31 2.78 41 -4.4 95 -5.0 3 0 994.1 NA 0.0000 9999 0 0 0 0
2019/11/08 07:03:00 BASE 1.16 29 2.78 41 -4.3 95 -5.0 3 0 994.1 NA 0.0000 9999 0 0 0 0
2019/11/08 07:04:00 BASE 1.66 22 2.78 41 -4.3 95 -5.0 3 0 994.1 NA 0.0000 9999 0 0 0 0
2019/11/08 07:05:00 BASE 1.92 20 2.78 41 -4.3 95 -4.9 3 0 994.1 NA 0.0000 9999 0 0 0 0
2019/11/08 07:06:00 BASE 1.86 21 2.78 41 -4.2 95 -4.9 4 0 994.1 NA 0.0000 9999 0 0 0 0
2019/11/08 07:07:00 BASE 1.94 24 2.78 41 -4.2 95 -4.9 4 0 994.1 NA 0.0000 9999 0 0 0 0
2019/11/08 07:08:00 BASE 2.09 21 2.78 41 -4.2 95 -4.9 4 0 994.1 NA 0.0000 9999 0 0 0 0
2019/11/08 07:09:00 BASE 2.20 20 2.47 23 -4.2 94 -5.0 4 0 994.1 NA 0.0000 9999 0 0 0 0
2019/11/08 07:10:00 BASE 2.38 24 2.62 24 -4.2 94 -5.0 4 0 994.1 NA 0.0000 9999 0 0 0 0
2019/11/08 07:11:00 BASE 2.52 31 2.62 45 -4.2 94 -5.0 4 0 994.1 NA 0.0000 9999 0 0 0 0
2019/11/08 07:12:00 BASE 2.65 41 2.98 57 -4.2 94 -5.0 5 0 994.1 NA 0.0000 9999 0 0 0 0
2019/11/08 07:13:00 BASE 2.75 49 2.98 57 -4.2 94 -5.0 5 0 994.1 NA 0.0000 9999 0 0 0 0
2019/11/08 07:14:00 BASE 2.77 51 2.98 49 -4.2 94 -5.0 5 0 994.1 NA 0.0000 9999 0 0 0 0
2019/11/08 07:15:00 BASE 2.93 54 3.24 60 -4.2 94 -5.0 5 0 994.1 NA 0.0000 9999 0 0 0 0
2019/11/08 07:16:00 BASE 2.91 54 3.24 60 -4.2 94 -5.0 5 0 994.1 NA 0.0000 9999 0 0 0 0
2019/11/08 07:17:00 BASE 2.80 50 3.24 60 -4.2 94 -5.0 5 0 994.1 NA 0.0000 9999 0 0 0 0
2019/11/08 07:18:00 BASE 2.86 48 3.24 60 -4.2 94 -5.0 6 0 994.1 NA 0.0000 9999 0 0 0 0
2019/11/08 07:19:00 BASE 2.86 46 3.24 60 -4.2 94 -5.0 6 0 994.1 NA 0.0000 9999 0 0 0 0
2019/11/08 07:20:00 BASE 2.87 43 3.24 60 -4.2 94 -5.0 6 0 994.1 NA 0.0000 9999 0 0 0 0
2019/11/08 07:21:00 BASE 2.98 42 3.34 48 -4.2 94 -5.0 6 0 994.1 NA 0.0000 9999 0 0 0 0
2019/11/08 07:22:00 BASE 2.88 37 3.34 48 -4.2 94 -5.1 6 0 994.1 NA 0.0000 9999 0 0 0 0
2019/11/08 07:23:00 BASE 2.62 32 3.34 48 -4.2 93 -5.1 7 0 994.2 NA 0.0000 9999 0 0 0 0
2019/11/08 07:24:00 BASE 2.30 31 3.34 48 -4.1 93 -5.1 7 0 994.2 NA 0.0000 9999 0 0 0 0
2019/11/08 07:25:00 BASE 1.56 27 3.34 48 -4.1 93 -5.0 7 0 994.2 NA 0.0000 9999 0 0 0 0
2019/11/08 07:26:00 BASE 0.58 37 3.34 48 -4.0 93 -5.0 7 0 994.2 NA 0.0000 9999 0 0 0 0
2019/11/08 07:27:00 BASE 0.92 49 3.34 48 -4.0 93 -4.9 7 0 994.2 NA 0.0000 9999 0 0 0 0
2019/11/08 07:28:00 BASE 1.94 48 3.34 48 -3.9 93 -4.9 8 0 994.2 NA 0.0000 9999 0 0 0 0
2019/11/08 07:29:00 BASE 2.15 37 3.34 48 -3.9 93 -4.8 8 0 994.2 NA 0.0000 9999 0 0 0 0
2019/11/08 07:30:00 BASE 2.22 31 3.34 48 -3.9 93 -4.9 8 0 994.2 NA 0.0000 9999 0 0 0 0
2019/11/08 07:31:00 BASE 2.39 36 3.09 28 -3.9 93 -4.9 8 0 994.2 NA 0.0000 9999 0 0 0 0
2019/11/08 07:32:00 BASE 2.46 39 2.68 29 -3.9 92 -4.9 9 0 994.3 NA 0.0000 9999 0 0 0 0
2019/11/08 07:33:00 BASE 2.44 45 2.62 38 -3.9 92 -5.0 9 0 994.4 NA 0.0000 9999 0 0 0 0
2019/11/08 07:34:00 BASE 2.45 48 2.62 48 -3.9 92 -5.0 10 0 994.4 NA 0.0000 9999 0 0 0 0
2019/11/08 07:35:00 BASE 2.28 46 2.62 48 -3.9 92 -5.0 10 0 994.4 NA 0.0000 9999 0 0 0 0
2019/11/08 07:36:00 BASE 2.23 42 2.62 48 -3.9 92 -5.0 11 0 994.4 NA 0.0000 9999 0 0 0 0
2019/11/08 07:37:00 BASE 2.44 34 2.62 25 -3.9 92 -5.0 11 0 994.4 NA 0.0000 9999 0 0 0 0
2019/11/08 07:38:00 BASE 2.44 27 2.62 25 -3.9 92 -5.0 12 0 994.4 NA 0.0000 9999 0 0 0 0
2019/11/08 07:39:00 BASE 2.40 28 2.62 34 -3.9 92 -5.0 13 0 994.4 NA 0.0000 9999 0 0 0 0
2019/11/08 07:40:00 BASE 2.49 32 2.73 35 -3.9 92 -5.1 14 0 994.4 NA 0.0000 9999 0 0 0 0
2019/11/08 07:41:00 BASE 2.57 37 2.78 39 -4.0 92 -5.1 15 0 994.4 NA 0.0000 9999 0 0 0 0
2019/11/08 07:42:00 BASE 2.66 41 2.78 42 -4.0 92 -5.1 16 0 994.4 NA 0.0000 9999 0 0 0 0
2019/11/08 07:43:00 BASE 2.69 40 2.78 42 -4.0 92 -5.1 18 0 994.5 NA 0.0000 9999 0 0 0 0
2019/11/08 07:44:00 BASE 2.58 35 2.78 21 -4.0 92 -5.1 19 0 994.4 NA 0.0000 9999 0 0 0 0
2019/11/08 07:45:00 BASE 2.41 30 2.78 21 -4.0 92 -5.1 19 0 994.4 NA 0.0000 9999 0 0 0 0
2019/11/08 07:46:00 BASE 2.09 29 2.78 21 -4.0 92 -5.1 17 0 994.4 NA 0.0000 9999 0 0 0 0
2019/11/08 07:47:00 BASE 2.05 28 2.78 21 -4.0 93 -5.0 18 0 994.4 NA 0.0000 9999 0 0 0 0
2019/11/08 07:48:00 BASE 2.16 24 2.78 21 -4.0 93 -5.0 23 0 994.5 NA 0.0000 9999 0 0 0 0
2019/11/08 07:49:00 BASE 1.99 23 2.78 21 -4.0 93 -4.9 24 0 994.5 NA 0.0000 9999 0 0 0 0
2019/11/08 07:50:00 BASE 1.88 28 2.78 21 -4.0 93 -4.9 25 0 994.5 NA 0.0000 9999 0 0 0 0
2019/11/08 07:51:00 BASE 1.84 26 2.78 21 -4.0 93 -4.9 26 0 994.5 NA 0.0000 9999 0 0 0 0
2019/11/08 07:52:00 BASE 1.93 22 2.78 21 -4.0 93 -4.9 27 0 994.5 NA 0.0000 9999 0 0 0 0
2019/11/08 07:53:00 BASE 2.10 20 2.78 21 -4.0 93 -4.9 28 0 994.5 NA 0.0000 9999 0 0 0 0
2019/11/08 07:54:00 BASE 2.17 4 2.62 20 -4.0 93 -4.9 29 0 994.5 NA 0.0000 9999 0 0 0 0
2019/11/08 07:55:00 BASE 2.01 357 2.52 278 -4.0 93 -4.9 31 0 994.5 NA 0.0000 9999 0 0 0 0
2019/11/08 07:56:00 BASE 1.81 1 2.52 278 -4.0 93 -4.9 32 0 994.5 NA 0.0000 9999 0 0 0 0
2019/11/08 07:57:00 BASE 1.76 0 2.52 278 -3.9 93 -4.9 33 0 994.5 NA 0.0000 9999 0 0 0 0
2019/11/08 07:58:00 BASE 1.57 2 2.52 278 -4.0 93 -4.9 34 0 994.6 NA 0.0000 9999 0 0 0 0
2019/11/08 07:59:00 BASE 1.36 6 2.52 278 -4.0 93 -4.9 35 0 994.6 NA 0.0000 9999 0 0 0 0
2019/11/08 08:00:00 BASE 1.28 8 2.52 278 -4.0 93 -5.0 36 0 994.6 NA 0.0000 9999 0 0 0 0
2019/11/08 08:01:00 BASE 1.23 3 2.52 278 -4.1 93 -5.0 37 0 994.6 NA 0.0000 9999 0 0 0 0
2019/11/08 08:02:00 BASE 1.32 7 2.52 278 -4.2 93 -5.1 39 0 994.6 NA 0.0000 9999 0 0 0 0
2019/11/08 08:03:00 BASE 1.48 19 2.52 278 -4.2 94 -5.1 40 0 994.6 NA 0.0000 9999 0 0 0 0
2019/11/08 08:04:00 BASE 1.62 21 2.06 11 -4.3 94 -5.1 41 0 994.6 NA 0.0000 9999 0 0 0 0
2019/11/08 08:05:00 BASE 1.86 15 2.21 13 -4.3 94 -5.0 42 0 994.6 NA 0.0000 9999 0 0 0 0
2019/11/08 08:06:00 BASE 2.04 12 2.21 13 -4.3 95 -5.0 43 0 994.7 NA 0.0000 9999 0 0 0 0
2019/11/08 08:07:00 BASE 2.10 16 2.26 23 -4.3 95 -5.0 45 0 994.7 NA 0.0000 9999 0 0 0 0
2019/11/08 08:08:00 BASE 2.24 23 2.42 28 -4.3 96 -4.9 46 0 994.7 NA 0.0000 9999 0 0 0 0
2019/11/08 08:09:00 BASE 2.37 30 2.57 29 -4.3 96 -4.9 48 0 994.7 NA 0.0000 9999 0 0 0 0
2019/11/08 08:10:00 BASE 2.53 31 2.88 27 -4.3 96 -4.8 49 0 994.7 NA 0.0000 9999 0 0 0 0
2019/11/08 08:11:00 BASE 2.56 28 2.88 27 -4.3 96 -4.8 51 0 994.7 NA 0.0000 9999 0 0 0 0
2019/11/08 08:12:00 BASE 2.36 26 2.88 27 -4.3 97 -4.7 52 0 994.7 NA 0.0000 9999 0 0 0 0
2019/11/08 08:13:00 BASE 2.39 25 2.88 27 -4.2 97 -4.7 53 0 994.7 NA 0.0000 9999 0 0 0 0
2019/11/08 08:14:00 BASE 2.52 20 2.88 27 -4.2 97 -4.6 55 0 994.7 NA 0.0000 9999 0 0 0 0
2019/11/08 08:15:00 BASE 2.26 16 2.88 27 -4.1 97 -4.5 53 0 994.7 NA 0.0000 9999 0 0 0 0
2019/11/08 08:16:00 BASE 1.93 18 2.88 27 -4.1 97 -4.5 58 0 994.7 NA 0.0000 9999 0 0 0 0
2019/11/08 08:17:00 BASE 1.87 20 2.88 27 -4.1 97 -4.5 60 0 994.7 NA 0.0000 9999 0 0 0 0
2019/11/08 08:18:00 BASE 1.99 26 2.88 27 -4.1 96 -4.5 61 0 994.7 NA 0.0000 9999 0 0 0 0
2019/11/08 08:19:00 BASE 1.92 25 2.88 27 -4.1 96 -4.6 63 0 994.7 NA 0.0000 9999 0 0 0 0
2019/11/08 08:20:00 BASE 1.66 26 2.78 8 -4.1 96 -4.6 64 0 994.7 NA 0.0000 9999 0 0 0 0
2019/11/08 08:21:00 BASE 1.32 30 2.78 8 -4.1 96 -4.6 66 0 994.7 NA 0.0000 9999 0 0 0 0
2019/11/08 08:22:00 BASE 1.17 20 2.78 8 -4.1 96 -4.6 68 0 994.7 NA 0.0000 9999 0 0 0 0
2019/11/08 08:23:00 BASE 0.90 20 2.78 8 -4.0 96 -4.6 69 0 994.7 NA 0.0000 9999 0 0 0 0
2019/11/08 08:24:00 BASE 0.86 34 2.31 17 -4.0 96 -4.6 71 0 994.7 NA 0.0000 9999 0 0 0 0
2019/11/08 08:25:00 BASE 1.33 38 2.21 22 -3.9 95 -4.6 73 0 994.7 NA 0.0000 9999 0 0 0 0
2019/11/08 08:26:00 BASE 1.60 34 2.21 22 -3.9 95 -4.6 75 0 994.7 NA 0.0000 9999 0 0 0 0
2019/11/08 08:27:00 BASE 1.84 34 2.21 41 -3.9 95 -4.6 77 0 994.7 NA 0.0000 9999 0 0 0 0
2019/11/08 08:28:00 BASE 2.02 36 2.42 47 -3.9 95 -4.6 79 0 994.7 NA 0.0000 9999 0 0 0 0
2019/11/08 08:29:00 BASE 2.01 37 2.42 47 -3.9 94 -4.7 80 0 994.7 NA 0.0000 9999 0 0 0 0
2019/11/08 08:30:00 BASE 1.86 35 2.42 47 -3.9 94 -4.7 82 0 994.7 NA 0.0000 9999 0 0 0 0
2019/11/08 08:31:00 BASE 1.68 37 2.42 47 -3.9 94 -4.7 84 0 994.8 NA 0.0000 9999 0 0 0 0
2019/11/08 08:32:00 BASE 1.47 34 2.42 47 -3.9 94 -4.7 86 0 994.8 NA 0.0000 9999 0 0 0 0
2019/11/08 08:33:00 BASE 1.35 28 2.42 47 -3.9 94 -4.7 88 0 994.8 NA 0.0000 9999 0 0 0 0
2019/11/08 08:34:00 BASE 1.34 26 2.42 47 -3.9 94 -4.8 90 0 994.8 NA 0.0000 9999 0 0 0 0
2019/11/08 08:35:00 BASE 1.57 13 2.42 47 -3.9 94 -4.8 92 0 994.8 NA 0.0000 9999 0 0 0 0
2019/11/08 08:36:00 BASE 1.65 7 2.42 47 -4.0 93 -4.9 94 0 994.8 NA 0.0000 9999 0 0 0 0
2019/11/08 08:37:00 BASE 1.66 8 2.42 47 -4.1 93 -5.1 96 0 994.8 NA 0.0000 9999 0 0 0 0
2019/11/08 08:38:00 BASE 1.84 2 2.21 36 -4.2 93 -5.2 98 0 994.9 NA 0.0000 9999 0 0 0 0
2019/11/08 08:39:00 BASE 1.47 348 2.06 33 -4.2 93 -5.2 100 0 994.9 NA 0.0000 9999 0 0 0 0
2019/11/08 08:40:00 BASE 1.32 330 1.95 313 -4.3 93 -5.3 102 0 994.9 NA 0.0000 9999 0 0 0 0
2019/11/08 08:41:00 BASE 1.62 322 2.11 312 -4.3 94 -5.2 105 0 994.9 NA 0.0000 9999 0 0 0 0
2019/11/08 08:42:00 BASE 1.51 324 2.11 312 -4.3 94 -5.1 106 0 994.9 NA 0.0000 9999 0 0 0 0
2019/11/08 08:43:00 BASE 0.92 338 2.11 312 -4.2 94 -5.0 108 0 994.9 NA 0.0000 9999 0 0 0 0
2019/11/08 08:44:00 BASE 0.24 349 2.11 312 -4.2 95 -4.9 110 0 994.9 NA 0.0000 9999 0 0 0 0
2019/11/08 08:45:00 BASE 0.00 344 2.11 312 -4.2 95 -4.9 112 0 994.9 NA 0.0000 9999 0 0 0 0
2019/11/08 08:46:00 BASE 0.00 321 2.11 312 -4.1 95 -4.8 115 0 994.9 NA 0.0000 9999 0 0 0 0
2019/11/08 08:47:00 BASE 0.00 297 2.11 312 -4.1 95 -4.8 116 0 994.9 NA 0.0000 9999 0 0 0 0
2019/11/08 08:48:00 BASE 0.00 318 2.11 312 -4.0 95 -4.7 118 0 994.9 NA 0.0000 9999 0 0 0 0
2019/11/08 08:49:00 BASE 0.00 359 2.11 312 -4.0 95 -4.7 120 0 994.9 NA 0.0000 9999 0 0 0 0
2019/11/08 08:50:00 BASE 0.00 22 2.11 312 -3.9 95 -4.6 122 0 994.9 NA 0.0000 9999 0 0 0 0
2019/11/08 08:51:00 BASE 0.00 22 1.65 318 -3.9 95 -4.6 124 0 994.9 NA 0.0000 9999 0 0 0 0
2019/11/08 08:52:00 BASE 0.78 29 1.95 34 -3.9 94 -4.7 126 0 995.0 NA 0.0000 9999 0 0 0 0
2019/11/08 08:53:00 BASE 1.90 43 2.42 48 -3.9 94 -4.7 128 0 995.1 NA 0.0000 9999 0 0 0 0
2019/11/08 08:54:00 BASE 2.19 50 2.42 49 -3.9 94 -4.8 130 0 995.1 NA 0.0000 9999 0 0 0 0
2019/11/08 08:55:00 BASE 2.25 55 2.52 58 -4.0 94 -4.9 132 0 995.1 NA 0.0000 9999 0 0 0 0
2019/11/08 08:56:00 BASE 2.45 57 2.68 59 -4.0 93 -4.9 134 0 995.1 NA 0.0000 9999 0 0 0 0
2019/11/08 08:57:00 BASE 2.60 57 2.83 60 -4.1 93 -5.0 136 0 995.0 NA 0.0000 9999 0 0 0 0
2019/11/08 08:58:00 BASE 2.71 55 3.04 52 -4.1 93 -5.0 138 0 995.0 NA 0.0000 9999 0 0 0 0
2019/11/08 08:59:00 BASE 2.80 54 3.04 52 -4.0 93 -5.0 139 0 995.0 NA 0.0000 9999 0 0 0 0
2019/11/08 09:00:00 BASE 2.93 57 3.19 60 -4.0 93 -5.0 141 0 995.0 NA 0.0000 9999 0 0 0 0
2019/11/08 09:01:00 BASE 2.92 60 3.24 64 -4.0 93 -5.0 142 0 995.1 NA 0.0000 9999 0 0 0 0
2019/11/08 09:02:00 BASE 2.69 61 3.24 64 -4.0 93 -5.0 144 0 995.1 NA 0.0000 9999 0 0 0 0
2019/11/08 09:03:00 BASE 2.42 61 3.24 64 -4.0 93 -5.0 146 0 995.1 NA 0.0000 9999 0 0 0 0
2019/11/08 09:04:00 BASE 2.17 59 3.24 64 -4.0 92 -5.0 147 0 995.1 NA 0.0000 9999 0 0 0 0
2019/11/08 09:05:00 BASE 1.95 56 3.24 64 -4.0 92 -5.0 149 0 995.1 NA 0.0000 9999 0 0 0 0
2019/11/08 09:06:00 BASE 1.85 57 3.24 64 -3.9 92 -5.1 151 0 995.1 NA 0.0000 9999 0 0 0 0
2019/11/08 09:07:00 BASE 2.09 59 3.24 64 -3.9 92 -5.1 153 0 995.1 NA 0.0000 9999 0 0 0 0
2019/11/08 09:08:00 BASE 2.37 56 3.24 64 -3.9 91 -5.1 154 0 995.1 NA 0.0000 9999 0 0 0 0
2019/11/08 09:09:00 BASE 2.31 55 3.24 64 -3.9 91 -5.1 156 0 995.1 NA 0.0000 9999 0 0 0 0
2019/11/08 09:10:00 BASE 2.18 55 3.24 64 -3.9 91 -5.2 157 0 995.1 NA 0.0000 9999 0 0 0 0
2019/11/08 09:11:00 BASE 2.23 54 2.78 57 -3.9 90 -5.2 159 0 995.1 NA 0.0000 9999 0 0 0 0
2019/11/08 09:12:00 BASE 2.25 54 2.68 54 -3.9 90 -5.3 161 0 995.2 NA 0.0000 9999 0 0 0 0
2019/11/08 09:13:00 BASE 2.13 55 2.68 54 -3.9 90 -5.3 164 0 995.2 NA 0.0000 9999 0 0 0 0
2019/11/08 09:14:00 BASE 1.92 57 2.68 54 -3.9 90 -5.3 166 0 995.2 NA 0.0000 9999 0 0 0 0
2019/11/08 09:15:00 BASE 1.84 57 2.68 54 -3.9 90 -5.3 168 0 995.2 NA 0.0000 9999 0 0 0 0
2019/11/08 09:16:00 BASE 1.92 56 2.68 54 -3.9 90 -5.3 170 0 995.2 NA 0.0000 9999 0 0 0 0
2019/11/08 09:17:00 BASE 2.01 55 2.57 54 -3.9 90 -5.3 172 0 995.2 NA 0.0000 9999 0 0 0 0
2019/11/08 09:18:00 BASE 2.12 51 2.57 54 -3.9 90 -5.3 174 0 995.2 NA 0.0000 9999 0 0 0 0
2019/11/08 09:19:00 BASE 2.24 50 2.57 54 -3.9 90 -5.3 177 0 995.2 NA 0.0000 9999 0 0 0 0
2019/11/08 09:20:00 BASE 2.35 51 2.57 54 -4.0 90 -5.4 179 0 995.2 NA 0.0000 9999 0 0 0 0
2019/11/08 09:21:00 BASE 2.26 51 2.52 48 -4.0 90 -5.4 182 0 995.2 NA 0.0000 9999 0 0 0 0
2019/11/08 09:22:00 BASE 2.10 49 2.52 48 -4.0 90 -5.4 184 0 995.2 NA 0.0000 9999 0 0 0 0
2019/11/08 09:23:00 BASE 1.91 46 2.52 48 -4.0 90 -5.4 187 0 995.2 NA 0.0000 9999 0 0 0 0
2019/11/08 09:24:00 BASE 2.05 46 2.52 48 -4.0 90 -5.4 190 0 995.2 NA 0.0000 9999 0 0 0 0
2019/11/08 09:25:00 BASE 2.36 45 2.57 44 -4.0 90 -5.4 193 0 995.2 NA 0.0000 9999 0 0 0 0
2019/11/08 09:26:00 BASE 2.48 44 2.68 45 -4.0 90 -5.4 196 0 995.2 NA 0.0000 9999 0 0 0 0
2019/11/08 09:27:00 BASE 2.58 44 2.78 42 -4.0 90 -5.4 198 0 995.2 NA 0.0000 9999 2360 0 0 0
2019/11/08 09:28:00 BASE 2.66 42 2.83 37 -4.0 90 -5.4 198 0 995.3 NA 0.0000 9999 2400 0 0 0
2019/11/08 09:29:00 BASE 2.69 43 2.88 42 -4.0 90 -5.4 199 0 995.3 NA 0.0000 9999 2400 0 0 0
2019/11/08 09:30:00 BASE 2.75 44 3.14 48 -4.0 90 -5.4 202 0 995.3 NA 0.0000 9999 0 0 0 0
2019/11/08 09:31:00 BASE 2.82 45 3.14 48 -4.0 90 -5.4 206 0 995.3 NA 0.0000 9999 0 0 0 0
2019/11/08 09:32:00 BASE 2.73 46 3.14 48 -4.0 90 -5.4 209 0 995.3 NA 0.0000 9999 0 0 0 0
2019/11/08 09:33:00 BASE 2.49 48 3.14 48 -4.0 90 -5.4 215 0 995.3 NA 0.0000 9999 0 0 0 0
2019/11/08 09:34:00 BASE 2.27 56 3.14 48 -4.0 90 -5.4 222 0 995.3 NA 0.0000 9999 2330 0 0 0
2019/11/08 09:35:00 BASE 1.95 62 3.14 48 -3.9 90 -5.3 228 0 995.3 NA 0.0000 9999 2490 0 0 0
2019/11/08 09:36:00 BASE 1.67 61 3.14 48 -3.9 90 -5.3 232 0 995.3 NA 0.0000 9999 2430 0 0 0
2019/11/08 09:37:00 BASE 1.62 62 3.14 48 -3.8 90 -5.2 237 0 995.3 NA 0.0000 9999 2560 0 0 0
2019/11/08 09:38:00 BASE 1.52 58 3.14 48 -3.8 90 -5.2 242 0 995.3 NA 0.0000 9999 2360 0 0 0
2019/11/08 09:39:00 BASE 1.44 47 3.14 48 -3.7 89 -5.2 249 0 995.3 NA 0.0000 9999 2400 0 0 0
2019/11/08 09:40:00 BASE 1.52 40 3.04 49 -3.7 89 -5.2 256 0 995.3 NA 0.0000 9999 2460 0 0 0
2019/11/08 09:41:00 BASE 1.67 39 2.73 45 -3.7 89 -5.3 264 0 995.3 NA 0.0000 9999 2400 0 0 0
2019/11/08 09:42:00 BASE 1.82 36 2.47 55 -3.7 89 -5.3 272 0 995.3 NA 0.0000 9999 2360 0 0 0
2019/11/08 09:43:00 BASE 2.01 35 2.42 60 -3.7 89 -5.3 279 0 995.3 NA 0.0000 9999 2330 0 0 0
2019/11/08 09:44:00 BASE 2.36 38 2.78 43 -3.6 88 -5.3 283 0 995.3 NA 0.0000 9999 2400 0 0 0
2019/11/08 09:45:00 BASE 2.44 40 2.78 43 -3.6 88 -5.3 287 0 995.3 NA 0.0000 9999 2300 0 0 0
2019/11/08 09:46:00 BASE 2.38 41 2.78 43 -3.6 88 -5.3 297 0 995.3 NA 0.0000 9999 2200 0 0 0
2019/11/08 09:47:00 BASE 2.42 42 2.78 43 -3.5 88 -5.3 317 0 995.3 NA 0.0000 9999 2200 0 0 0
2019/11/08 09:48:00 BASE 2.46 45 2.78 43 -3.5 88 -5.3 340 0 995.3 NA 0.0000 9999 2170 0 0 0
2019/11/08 09:49:00 BASE 2.47 49 2.78 43 -3.5 87 -5.3 367 0 995.3 NA 0.0000 9999 2130 0 0 0
2019/11/08 09:50:00 BASE 2.34 52 2.78 43 -3.5 87 -5.3 380 0 995.3 NA 0.0000 9999 2200 0 0 0
2019/11/08 09:51:00 BASE 2.19 56 2.78 43 -3.5 87 -5.3 393 0 995.3 NA 0.0000 9999 2170 0 0 0
2019/11/08 09:52:00 BASE 2.00 63 2.78 43 -3.4 87 -5.3 350 0 995.3 NA 0.0000 9999 2200 0 0 0
2019/11/08 09:53:00 BASE 1.80 65 2.78 43 -3.4 87 -5.2 270 0 995.3 NA 0.0000 9999 2170 0 0 0
2019/11/08 09:54:00 BASE 1.68 63 2.68 48 -3.3 87 -5.1 253 0 995.3 NA 0.0000 9999 2230 0 0 0
2019/11/08 09:55:00 BASE 1.59 61 2.68 48 -3.2 87 -5.1 305 0 995.4 NA 0.0000 9999 2130 0 0 0
2019/11/08 09:56:00 BASE 1.57 60 2.68 48 -3.2 87 -5.1 356 0 995.4 NA 0.0000 9999 2200 0 0 0
2019/11/08 09:57:00 BASE 1.73 57 2.68 48 -3.1 86 -5.1 317 0 995.4 NA 0.0000 9999 2300 0 0 0
2019/11/08 09:58:00 BASE 1.74 56 2.68 48 -3.1 86 -5.1 335 0 995.4 NA 0.0000 9999 2230 22570 0 0
2019/11/08 09:59:00 BASE 1.71 56 2.42 52 -3.1 86 -5.1 320 0 995.4 NA 0.0000 9999 2330 0 0 0
2019/11/08 10:00:00 BASE 1.92 53 2.31 48 -3.0 86 -5.1 282 0 995.4 NA 0.0000 9999 2230 0 0 0
2019/11/08 10:01:00 BASE 2.06 50 2.31 48 -3.0 85 -5.1 315 0 995.4 NA 0.0000 9999 2330 0 0 0
2019/11/08 10:02:00 BASE 2.15 47 2.47 46 -3.0 85 -5.1 340 0 995.4 NA 0.0000 9999 2400 0 0 0
2019/11/08 10:03:00 BASE 2.07 45 2.47 46 -2.9 85 -5.1 353 0 995.4 NA 0.0000 9999 2400 0 0 0
2019/11/08 10:04:00 BASE 1.94 42 2.47 46 -2.9 85 -5.1 347 0 995.4 NA 0.0000 9999 2460 0 0 0
2019/11/08 10:05:00 BASE 2.02 39 2.47 46 -2.9 85 -5.1 335 0 995.4 NA 0.0000 9999 2460 0 0 0
2019/11/08 10:06:00 BASE 2.16 46 2.47 46 -2.9 85 -5.1 335 0 995.4 NA 0.0000 9999 2530 0 0 0
2019/11/08 10:07:01 BASE 2.24 52 2.47 46 -2.9 85 -5.1 344 0 995.4 NA 0.0000 9999 2030 2620 0 0
2019/11/08 10:08:00 BASE 2.18 53 2.47 46 -2.9 85 -5.1 356 0 995.4 NA 0.0000 9999 2030 0 0 0
2019/11/08 10:09:00 BASE 1.97 56 2.47 46 -2.8 85 -5.1 364 0 995.4 NA 0.0000 9999 2070 2620 0 0
2019/11/08 10:10:00 BASE 1.75 56 2.47 46 -2.8 85 -5.0 371 0 995.4 NA 0.0000 9999 2170 0 0 0
2019/11/08 10:11:00 BASE 1.64 56 2.47 46 -2.7 84 -5.0 387 0 995.4 NA 0.0000 9999 2200 2660 0 0
2019/11/08 10:12:00 BASE 1.70 56 2.42 53 -2.7 84 -5.0 427 0 995.4 NA 0.0000 9999 2170 0 0 0
2019/11/08 10:13:00 BASE 1.77 53 2.42 53 -2.7 84 -5.0 401 0 995.5 NA 0.0000 9999 2170 0 0 0
2019/11/08 10:14:00 BASE 1.77 51 2.42 53 -2.7 84 -5.0 288 0 995.5 NA 0.0000 9999 2170 0 0 0
2019/11/08 10:15:00 BASE 1.76 49 2.42 53 -2.7 84 -5.0 397 0 995.5 NA 0.0000 9999 2170 0 0 0
2019/11/08 10:16:00 BASE 1.88 50 2.37 51 -2.6 84 -5.0 352 0 995.4 NA 0.0000 9999 2130 0 0 0
2019/11/08 10:17:00 BASE 2.10 52 2.31 51 -2.6 84 -5.0 270 0 995.5 NA 0.0000 9999 2130 0 0 0
2019/11/08 10:18:00 BASE 2.14 54 2.31 48 -2.6 84 -5.0 237 0 995.5 NA 0.0000 9999 2130 0 0 0
2019/11/08 10:19:00 BASE 2.08 52 2.31 48 -2.6 83 -5.1 222 0 995.5 NA 0.0000 9999 2100 0 0 0
2019/11/08 10:20:00 BASE 2.01 49 2.31 48 -2.6 83 -5.1 210 0 995.5 NA 0.0000 9999 2130 0 0 0
2019/11/08 10:21:00 BASE 2.01 44 2.31 48 -2.7 83 -5.2 200 0 995.5 NA 0.0000 9999 2130 0 0 0
2019/11/08 10:22:00 BASE 2.11 38 2.31 48 -2.7 83 -5.2 199 0 995.5 NA 0.0000 9999 2100 0 0 0
2019/11/08 10:23:00 BASE 2.06 37 2.31 48 -2.7 83 -5.2 206 0 995.5 NA 0.0000 9999 2100 0 0 0
2019/11/08 10:24:00 BASE 1.84 38 2.31 48 -2.7 83 -5.2 199 0 995.5 NA 0.0000 9999 2030 0 0 0
2019/11/08 10:25:00 BASE 1.70 40 2.31 48 -2.7 83 -5.2 198 0 995.5 NA 0.0000 9999 2130 0 0 0
2019/11/08 10:26:00 BASE 1.66 47 2.31 48 -2.8 83 -5.2 197 0 995.6 NA 0.0000 9999 2100 0 0 0
2019/11/08 10:27:00 BASE 1.62 47 2.31 48 -2.8 84 -5.2 193 0 995.6 NA 0.0000 9999 2070 0 0 0
2019/11/08 10:28:00 BASE 1.56 39 2.26 39 -2.8 84 -5.1 193 0 995.6 NA 0.0000 9999 2070 0 0 0
2019/11/08 10:29:00 BASE 1.45 33 2.26 39 -2.7 84 -5.1 192 0 995.7 NA 0.0000 9999 2030 0 0 0
2019/11/08 10:30:00 BASE 1.32 26 2.26 39 -2.7 84 -5.1 196 0 995.7 NA 0.0000 9999 2070 0 0 0
2019/11/08 10:31:00 BASE 0.95 360 2.21 35 -2.7 84 -5.0 192 0 995.7 NA 0.0000 9999 2070 0 0 0
2019/11/08 10:32:00 BASE 1.06 316 2.11 307 -2.7 84 -4.9 192 0 995.7 NA 0.0000 9999 2100 0 0 0
2019/11/08 10:33:00 BASE 1.63 306 2.21 310 -2.7 85 -4.9 188 0 995.7 NA 0.0000 9999 2030 0 0 0
2019/11/08 10:34:00 BASE 1.60 307 2.21 310 -2.7 85 -4.9 185 0 995.7 NA 0.0000 9999 2070 0 0 0
2019/11/08 10:35:00 BASE 1.24 298 2.21 310 -2.7 86 -4.8 183 0 995.7 NA 0.0000 9999 2130 0 0 0
2019/11/08 10:36:00 BASE 0.93 293 2.21 310 -2.8 86 -4.8 182 0 995.7 NA 0.0000 9999 2170 0 0 0
2019/11/08 10:37:00 BASE 1.02 292 2.21 310 -2.9 86 -4.8 184 0 995.7 NA 0.0000 9999 2130 0 0 0
2019/11/08 10:38:00 BASE 0.60 290 2.21 310 -2.9 87 -4.8 187 0 995.7 NA 0.0000 9999 2130 0 0 0
2019/11/08 10:39:00 BASE 0.43 277 2.21 310 -2.9 87 -4.8 195 0 995.7 NA 0.0000 9999 2100 0 0 0
2019/11/08 10:40:00 BASE 1.06 268 2.21 310 -2.9 87 -4.8 200 0 995.8 NA 0.0000 9999 2130 0 0 0
2019/11/08 10:41:00 BASE 1.31 262 2.21 310 -3.0 87 -4.8 205 0 995.8 NA 0.0000 9999 2130 0 0 0
2019/11/08 10:42:00 BASE 1.28 265 2.21 310 -3.0 88 -4.8 199 0 995.8 NA 0.0000 9999 2070 0 0 0
2019/11/08 10:43:00 BASE 1.01 278 1.95 273 -3.1 88 -4.8 194 0 995.8 NA 0.0000 9999 2070 22640 0 0
2019/11/08 10:44:00 BASE 0.40 292 1.95 273 -3.1 89 -4.6 195 0 995.8 NA 0.0000 9999 2100 0 0 0
2019/11/08 10:45:00 BASE 0.23 295 1.95 273 -3.0 90 -4.5 196 0 995.8 NA 0.0000 9999 2200 0 0 0
2019/11/08 10:46:00 BASE 0.70 286 1.95 273 -3.0 90 -4.4 196 0 995.7 NA 0.0000 9999 2070 0 0 0
2019/11/08 10:47:00 BASE 0.56 282 1.95 273 -2.9 91 -4.2 198 0 995.7 NA 0.0000 9999 2070 0 0 0
2019/11/08 10:48:00 BASE 0.32 284 1.95 273 -2.9 91 -4.2 198 0 995.7 NA 0.0000 9999 2100 18080 0 0
2019/11/08 10:49:00 BASE 0.76 269 1.54 263 -2.9 90 -4.2 196 0 995.8 NA 0.0000 9999 2070 0 0 0
2019/11/08 10:50:00 BASE 0.91 244 1.54 238 -2.9 90 -4.3 192 0 995.8 NA 0.0000 9999 2170 0 0 0
2019/11/08 10:51:00 BASE 0.47 238 1.54 238 -2.9 89 -4.4 189 0 995.8 NA 0.0000 9999 2130 0 0 0
2019/11/08 10:52:00 BASE 0.09 232 1.54 238 -2.9 89 -4.4 191 0 995.8 NA 0.0000 9999 2170 0 0 0
2019/11/08 10:53:00 BASE 0.00 211 1.54 238 -2.8 89 -4.4 194 0 995.8 NA 0.0000 9999 2260 0 0 0
2019/11/08 10:54:00 BASE 0.00 229 1.54 238 -2.8 89 -4.4 195 0 995.8 NA 0.0000 9999 2360 0 0 0
2019/11/08 10:55:00 BASE 0.00 246 1.54 238 -2.7 88 -4.4 194 0 995.8 NA 0.0000 9999 2100 0 0 0
2019/11/08 10:56:00 BASE 0.00 242 1.54 238 -2.6 88 -4.4 192 0 995.8 NA 0.0000 9999 2130 0 0 0
2019/11/08 10:57:00 BASE 0.00 278 1.54 238 -2.6 87 -4.5 191 0 995.8 NA 0.0000 9999 2130 0 0 0
2019/11/08 10:58:00 BASE 0.51 299 1.54 238 -2.6 87 -4.6 189 0 995.8 NA 0.0000 9999 2170 0 0 0
2019/11/08 10:59:00 BASE 1.12 301 1.54 238 -2.6 86 -4.6 193 0 995.9 NA 0.0000 9999 2230 0 0 0
2019/11/08 11:00:00 BASE 1.27 295 1.44 295 -2.6 86 -4.6 200 0 995.9 NA 0.0000 9999 2260 0 0 0
2019/11/08 11:01:00 BASE 1.48 288 1.85 287 -2.6 86 -4.6 206 0 995.9 NA 0.0000 9999 2200 0 0 0
2019/11/08 11:02:00 BASE 1.81 285 2.31 279 -2.6 86 -4.6 207 0 995.9 NA 0.0000 9999 2170 0 0 0
2019/11/08 11:03:00 BASE 2.09 280 2.42 273 -2.7 87 -4.6 207 0 995.9 NA 0.0000 9999 2200 0 0 0
2019/11/08 11:04:00 BASE 2.26 275 2.42 275 -2.8 87 -4.6 207 0 995.9 NA 0.0000 9999 2200 0 0 0
2019/11/08 11:05:00 BASE 2.22 273 2.42 262 -2.9 88 -4.7 209 0 995.9 NA 0.0000 9999 2170 0 0 0
2019/11/08 11:06:00 BASE 2.13 269 2.47 277 -2.9 88 -4.6 213 0 995.9 NA 0.0000 9999 2170 0 0 0
2019/11/08 11:07:00 BASE 2.21 263 2.88 267 -3.0 89 -4.5 216 0 995.9 NA 0.0000 9999 2200 0 0 0
2019/11/08 11:08:00 BASE 2.24 259 2.88 267 -3.0 89 -4.5 217 0 995.9 NA 0.0000 9999 2170 0 0 0
2019/11/08 11:09:00 BASE 2.03 255 2.88 267 -3.0 90 -4.4 218 0 995.9 NA 0.0000 9999 2200 0 0 0
2019/11/08 11:10:00 BASE 1.82 255 2.88 267 -3.0 90 -4.3 219 0 996.0 NA 0.0000 9999 2360 0 0 0
2019/11/08 11:11:00 BASE 1.96 259 2.88 267 -3.0 91 -4.3 221 0 996.0 NA 0.0000 9999 2200 0 0 0
2019/11/08 11:12:00 BASE 2.12 263 2.88 267 -3.0 91 -4.3 222 0 995.9 NA 0.0000 9999 2170 0 0 0
2019/11/08 11:13:00 BASE 2.00 273 2.88 267 -3.0 91 -4.3 219 0 995.9 NA 0.0000 9999 2130 0 0 0
2019/11/08 11:14:00 BASE 1.70 273 2.88 267 -3.0 91 -4.3 219 0 995.9 NA 0.0000 9999 2200 0 0 0
2019/11/08 11:15:00 BASE 1.58 263 2.88 267 -3.0 91 -4.3 221 0 995.9 NA 0.0000 9999 2230 0 0 0
2019/11/08 11:16:00 BASE 1.53 258 2.88 267 -3.1 92 -4.2 226 0 996.0 NA 0.0000 9999 2260 0 0 0
2019/11/08 11:17:00 BASE 1.37 260 2.42 257 -3.1 92 -4.2 236 0 996.0 NA 0.0000 9999 2200 0 0 0
2019/11/08 11:18:00 BASE 1.21 266 2.37 257 -3.1 92 -4.2 244 0 996.0 NA 0.0000 9999 2260 0 0 0
2019/11/08 11:19:00 BASE 1.23 277 2.37 257 -3.0 92 -4.1 244 0 996.0 NA 0.0000 9999 2230 0 0 0
2019/11/08 11:20:00 BASE 1.35 285 2.37 257 -3.0 92 -4.1 243 0 996.0 NA 0.0000 9999 2230 0 0 0
2019/11/08 11:21:00 BASE 1.16 282 2.31 273 -3.0 92 -4.1 242 0 996.0 NA 0.0000 9999 2170 0 0 0
2019/11/08 11:22:00 BASE 1.22 269 2.06 261 -3.0 92 -4.1 237 0 996.0 NA 0.0000 9999 2200 0 0 0
2019/11/08 11:23:00 BASE 1.44 257 2.06 261 -3.0 92 -4.2 228 0 996.0 NA 0.0000 9999 2170 21390 0 0
2019/11/08 11:24:00 BASE 1.32 258 2.06 261 -3.0 91 -4.2 226 0 996.0 NA 0.0000 9999 2130 0 0 0
2019/11/08 11:25:00 BASE 0.75 264 1.90 282 -3.0 91 -4.3 228 0 996.0 NA 0.0000 9999 2170 0 0 0
2019/11/08 11:26:00 BASE 0.28 268 1.90 282 -3.0 91 -4.3 231 0 996.0 NA 0.0000 9999 2200 0 0 0
2019/11/08 11:27:00 BASE 0.14 262 1.90 282 -3.0 91 -4.2 231 0 996.0 NA 0.0000 9999 2200 0 0 0
2019/11/08 11:28:00 BASE 0.00 255 1.90 282 -3.0 91 -4.2 237 0 996.0 NA 0.0000 9999 2170 0 0 0
2019/11/08 11:29:00 BASE 0.00 258 1.85 262 -3.0 91 -4.2 242 0 996.0 NA 0.0000 9999 2230 0 0 0
2019/11/08 11:30:00 BASE 0.05 273 1.85 262 -3.0 92 -4.2 242 0 996.0 NA 0.0000 9999 2130 0 0 0
2019/11/08 11:31:00 BASE 0.34 295 1.85 262 -3.0 92 -4.1 243 0 996.0 NA 0.0000 9999 2170 0 0 0
2019/11/08 11:32:00 BASE 0.82 310 1.75 319 -2.9 92 -4.0 241 0 996.0 NA 0.0000 9999 2200 0 0 0
2019/11/08 11:33:00 BASE 1.52 310 2.11 312 -2.8 92 -3.9 240 0 996.1 NA 0.0000 9999 2200 0 0 0
2019/11/08 11:34:00 BASE 2.00 309 2.11 309 -2.7 92 -3.9 237 0 996.1 NA 0.0000 9999 2170 0 0 0
2019/11/08 11:35:00 BASE 1.82 315 2.11 309 -2.7 92 -3.9 236 0 996.1 NA 0.0000 9999 2200 0 0 0
2019/11/08 11:36:00 BASE 1.22 325 2.11 309 -2.7 91 -3.9 233 0 996.1 NA 0.0000 9999 2170 0 0 0
2019/11/08 11:37:00 BASE 0.93 333 2.11 309 -2.7 91 -3.9 232 0 996.1 NA 0.0000 9999 2170 0 0 0
2019/11/08 11:38:00 BASE 1.09 333 2.11 309 -2.8 91 -4.0 232 0 996.1 NA 0.0000 9999 2130 0 0 0
2019/11/08 11:39:00 BASE 1.13 330 2.11 309 -2.8 91 -4.0 231 0 996.1 NA 0.0000 9999 2130 0 0 0
2019/11/08 11:40:00 BASE 0.82 336 2.11 309 -2.8 91 -4.0 230 0 996.1 NA 0.0000 9999 2170 0 0 0
2019/11/08 11:41:00 BASE 0.96 345 2.11 309 -2.8 91 -4.0 230 0 996.1 NA 0.0000 9999 2170 0 0 0
2019/11/08 11:42:00 BASE 0.94 345 2.11 309 -2.8 91 -4.0 232 0 996.1 NA 0.0000 9999 2170 0 0 0
2019/11/08 11:43:00 BASE 0.29 338 2.11 309 -2.8 91 -4.0 234 0 996.2 NA 0.0000 9999 2200 0 0 0
2019/11/08 11:44:00 BASE 0.05 331 1.85 314 -2.8 92 -4.0 236 0 996.2 NA 0.0000 9999 2130 22540 0 0
2019/11/08 11:45:00 BASE 0.45 347 1.59 6 -2.8 92 -4.0 235 0 996.3 NA 0.0000 9999 2170 0 0 0
2019/11/08 11:46:00 BASE 0.80 3 1.59 6 -2.8 92 -4.0 232 0 996.3 NA 0.0000 9999 2200 0 0 0
2019/11/08 11:47:00 BASE 0.35 357 1.59 6 -2.8 91 -4.0 231 0 996.3 NA 0.0000 9999 2230 0 0 0
2019/11/08 11:48:00 BASE 0.09 350 1.59 6 -2.8 91 -4.1 231 0 996.3 NA 0.0000 9999 2200 0 0 0
2019/11/08 11:49:00 BASE 0.09 338 1.59 6 -2.8 91 -4.0 232 0 996.3 NA 0.0000 9999 2200 0 0 0
2019/11/08 11:50:00 BASE 0.00 298 1.59 6 -2.7 91 -4.0 234 0 996.3 NA 0.0000 9999 2200 0 0 0
2019/11/08 11:51:00 BASE 0.15 250 1.44 350 -2.7 91 -3.9 235 0 996.3 NA 0.0000 9999 2200 0 0 0
2019/11/08 11:52:00 BASE 0.34 235 1.39 7 -2.7 91 -4.0 233 0 996.3 NA 0.0000 9999 2200 0 0 0
2019/11/08 11:53:00 BASE 0.28 227 1.39 7 -2.7 91 -4.0 234 0 996.3 NA 0.0000 9999 2230 0 0 0
2019/11/08 11:54:00 BASE 0.09 207 1.39 7 -2.7 91 -4.0 237 0 996.3 NA 0.0000 9999 2230 0 0 0
2019/11/08 11:55:00 BASE 0.00 187 1.34 7 -2.8 91 -4.1 240 0 996.4 NA 0.0000 9999 2260 0 0 0
2019/11/08 11:56:00 BASE 0.00 179 1.29 235 -2.8 90 -4.2 242 0 996.4 NA 0.0000 9999 2230 0 0 0
2019/11/08 11:57:00 BASE 0.00 179 1.29 235 -2.8 91 -4.1 243 0 996.4 NA 0.0000 9999 2230 0 0 0
2019/11/08 11:58:00 BASE 0.05 194 1.29 235 -2.8 90 -4.1 247 0 996.4 NA 0.0000 9999 2260 0 0 0
2019/11/08 11:59:00 BASE 0.94 212 2.11 212 -2.8 90 -4.2 249 0 996.4 NA 0.0000 9999 2300 0 0 0
2019/11/08 12:00:00 BASE 1.89 212 2.31 205 -2.8 90 -4.2 248 0 996.4 NA 0.0000 9999 2230 0 0 0
2019/11/08 12:01:00 BASE 1.85 197 2.31 205 -2.8 90 -4.2 249 0 996.4 NA 0.0000 9999 2260 0 0 0
2019/11/08 12:02:00 BASE 1.57 188 2.31 205 -2.8 90 -4.2 252 0 996.4 NA 0.0000 9999 2300 20410 21290 0
2019/11/08 12:03:00 BASE 1.72 190 2.62 189 -2.8 90 -4.3 256 0 996.4 NA 0.0000 9999 2300 0 0 0
2019/11/08 12:04:00 BASE 2.18 202 2.68 213 -2.9 90 -4.3 259 0 996.4 NA 0.0000 9999 2330 0 0 0
2019/11/08 12:05:00 BASE 2.43 208 3.09 209 -2.9 90 -4.3 263 0 996.4 NA 0.0000 9999 2330 0 0 0
2019/11/08 12:06:00 BASE 2.58 209 3.24 204 -2.9 90 -4.3 264 0 996.5 NA 0.0000 9999 2300 0 0 0
2019/11/08 12:07:00 BASE 2.31 207 3.24 204 -2.9 90 -4.3 263 0 996.5 NA 0.0000 9999 2300 0 0 0
2019/11/08 12:08:00 BASE 1.71 203 3.24 204 -3.0 91 -4.3 263 0 996.5 NA 0.0000 9999 2260 0 0 0
2019/11/08 12:09:00 BASE 1.27 207 3.24 204 -3.0 91 -4.2 263 0 996.5 NA 0.0000 9999 2260 0 0 0
2019/11/08 12:10:00 BASE 1.44 209 3.24 204 -2.9 91 -4.2 265 0 996.5 NA 0.0000 9999 2300 0 0 0
2019/11/08 12:11:00 BASE 1.80 208 3.24 204 -3.0 91 -4.2 268 0 996.5 NA 0.0000 9999 2300 0 0 0
2019/11/08 12:12:00 BASE 2.10 210 3.24 204 -2.9 91 -4.2 269 0 996.5 NA 0.0000 9999 2260 0 0 0
2019/11/08 12:13:00 BASE 2.29 209 3.24 204 -2.9 91 -4.1 269 0 996.5 NA 0.0000 9999 2300 0 0 0
2019/11/08 12:14:00 BASE 2.29 200 3.24 204 -3.0 92 -4.1 271 0 996.5 NA 0.0000 9999 2260 0 0 0
2019/11/08 12:15:00 BASE 2.23 189 3.24 204 -3.0 92 -4.1 274 0 996.5 NA 0.0000 9999 2360 0 0 0
2019/11/08 12:16:00 BASE 2.12 184 2.93 204 -3.0 92 -4.1 277 0 996.5 NA 0.0000 9999 2330 0 0 0
2019/11/08 12:17:00 BASE 2.39 188 2.93 204 -3.0 92 -4.0 279 0 996.5 NA 0.0000 9999 2330 0 0 0
2019/11/08 12:18:00 BASE 2.33 188 2.93 204 -3.0 92 -4.0 278 0 996.5 NA 0.0000 9999 2300 0 0 0
2019/11/08 12:19:00 BASE 2.29 192 2.93 204 -2.9 93 -4.0 277 0 996.5 NA 0.0000 9999 2300 0 0 0
2019/11/08 12:20:00 BASE 2.56 211 3.04 221 -2.9 93 -3.9 276 0 996.5 NA 0.0000 9999 2360 0 0 0
2019/11/08 12:21:00 BASE 2.46 218 3.04 221 -3.0 93 -3.9 275 0 996.5 NA 0.0000 9999 2330 0 0 0
2019/11/08 12:22:01 BASE 2.18 214 3.04 221 -3.0 93 -4.0 276 0 996.6 NA 0.0000 9999 2230 0 0 0
2019/11/08 12:23:00 BASE 1.72 204 3.04 221 -3.0 93 -4.0 278 0 996.6 NA 0.0000 9999 2230 0 0 0
2019/11/08 12:24:00 BASE 1.51 196 3.04 221 -3.0 93 -4.0 279 0 996.6 NA 0.0000 9999 2260 0 0 0
2019/11/08 12:25:00 BASE 1.90 181 3.04 221 -3.0 93 -4.0 278 0 996.6 NA 0.0000 9999 2300 0 0 0
2019/11/08 12:26:00 BASE 2.26 174 3.04 221 -3.0 93 -3.9 277 0 996.6 NA 0.0000 9999 2360 0 0 0
2019/11/08 12:27:00 BASE 2.15 183 3.04 221 -2.9 93 -3.9 277 0 996.5 NA 0.0000 9999 2300 0 0 0
2019/11/08 12:28:00 BASE 1.85 197 3.04 221 -2.9 94 -3.8 277 0 996.5 NA 0.0000 9999 2330 0 0 0
2019/11/08 12:29:00 BASE 1.46 199 3.04 221 -2.9 94 -3.8 278 0 996.5 NA 0.0000 9999 2360 0 0 0
2019/11/08 12:30:00 BASE 1.18 181 2.98 175 -2.9 94 -3.8 281 0 996.6 NA 0.0000 9999 2400 0 0 0
2019/11/08 12:31:00 BASE 1.40 175 2.98 175 -2.9 94 -3.7 284 0 996.6 NA 0.0000 9999 2430 0 0 0
2019/11/08 12:32:00 BASE 1.18 185 2.98 175 -2.9 94 -3.7 288 0 996.6 NA 0.0000 9999 2400 21460 0 0
2019/11/08 12:33:00 BASE 0.60 188 2.98 175 -2.9 94 -3.7 292 0 996.6 NA 0.0000 9999 2460 0 0 0
2019/11/08 12:34:00 BASE 0.21 193 2.98 175 -2.9 94 -3.7 295 0 996.6 NA 0.0000 9999 2360 0 0 0
2019/11/08 12:35:00 BASE 0.20 191 2.98 175 -2.9 94 -3.7 298 0 996.6 NA 0.0000 9999 2400 0 0 0
2019/11/08 12:36:00 BASE 0.76 182 2.62 205 -2.9 94 -3.7 300 0 996.6 NA 0.0000 9999 2400 0 0 0
2019/11/08 12:37:00 BASE 1.51 183 2.62 205 -2.9 94 -3.7 300 0 996.6 NA 0.0000 9999 2400 0 0 0
2019/11/08 12:38:00 BASE 1.65 181 2.37 165 -2.9 94 -3.7 299 0 996.6 NA 0.0000 9999 2400 0 0 0
2019/11/08 12:39:00 BASE 1.12 195 2.37 165 -2.9 94 -3.7 300 0 996.6 NA 0.0000 9999 2360 0 0 0
2019/11/08 12:40:00 BASE 0.41 208 2.37 165 -2.9 94 -3.8 304 0 996.6 NA 0.0000 9999 2400 0 0 0
2019/11/08 12:41:00 BASE 0.14 183 2.37 165 -3.0 94 -3.8 308 0 996.6 NA 0.0000 9999 2360 0 0 0
2019/11/08 12:42:00 BASE 0.20 180 2.37 165 -3.0 93 -3.9 310 0 996.6 NA 0.0000 9999 2400 0 0 0
2019/11/08 12:43:00 BASE 0.19 205 2.37 165 -3.0 93 -3.9 308 0 996.6 NA 0.0000 9999 2400 0 0 0
2019/11/08 12:44:00 BASE 0.13 219 2.37 165 -3.0 93 -3.9 308 0 996.6 NA 0.0000 9999 2400 0 0 0
2019/11/08 12:45:00 BASE 0.00 243 2.37 165 -2.9 93 -3.9 309 0 996.6 NA 0.0000 9999 2460 0 0 0
2019/11/08 12:46:00 BASE 0.00 261 2.37 165 -2.9 93 -3.9 310 0 996.6 NA 0.0000 9999 2400 0 0 0
2019/11/08 12:47:00 BASE 0.24 257 2.11 187 -2.9 93 -3.9 312 0 996.6 NA 0.0000 9999 2360 0 0 0
2019/11/08 12:48:00 BASE 0.58 252 1.75 237 -2.9 93 -3.9 312 0 996.6 NA 0.0000 9999 2430 0 0 0
2019/11/08 12:49:00 BASE 1.28 230 2.31 201 -2.9 92 -3.9 311 0 996.6 NA 0.0000 9999 2430 0 0 0
2019/11/08 12:50:00 BASE 1.94 200 2.47 200 -2.9 92 -4.0 310 0 996.6 NA 0.0000 9999 2360 0 0 0
2019/11/08 12:51:00 BASE 1.89 187 2.47 200 -2.9 92 -4.0 310 0 996.6 NA 0.0000 9999 2400 0 0 0
2019/11/08 12:52:00 BASE 1.69 193 2.47 200 -2.9 92 -4.0 311 0 996.6 NA 0.0000 9999 2430 0 0 0
2019/11/08 12:53:00 BASE 1.75 204 2.47 200 -2.9 92 -4.0 311 0 996.6 NA 0.0000 9999 2430 0 0 0
2019/11/08 12:54:00 BASE 2.12 193 2.73 179 -3.0 93 -4.0 312 0 996.6 NA 0.0000 9999 2430 0 0 0
2019/11/08 12:55:00 BASE 2.06 175 2.73 179 -3.0 93 -4.0 313 0 996.7 NA 0.0000 9999 2490 0 0 0
2019/11/08 12:56:00 BASE 1.23 167 2.73 179 -2.9 93 -3.9 316 0 996.7 NA 0.0000 9999 2460 0 0 0
2019/11/08 12:57:00 BASE 0.33 184 2.73 179 -2.9 93 -3.9 320 0 996.7 NA 0.0000 9999 2430 24440 0 0
2019/11/08 12:58:00 BASE 0.00 211 2.73 179 -2.9 93 -3.9 324 0 996.7 NA 0.0000 9999 2430 0 0 0
2019/11/08 12:59:00 BASE 0.00 193 2.73 179 -2.8 93 -3.9 328 0 996.7 NA 0.0000 9999 2430 0 0 0
2019/11/08 13:00:00 BASE 0.46 171 2.73 179 -2.8 92 -3.9 333 0 996.7 NA 0.0000 9999 2400 0 0 0
2019/11/08 13:01:00 BASE 1.40 189 2.73 179 -2.8 92 -3.9 337 0 996.7 NA 0.0000 9999 2430 0 0 0
2019/11/08 13:02:00 BASE 2.15 195 2.73 186 -2.8 92 -3.9 340 0 996.7 NA 0.0000 9999 2460 0 0 0
2019/11/08 13:03:00 BASE 2.34 201 3.24 207 -2.8 92 -3.9 341 0 996.7 NA 0.0000 9999 2360 0 0 0
2019/11/08 13:04:00 BASE 2.26 221 3.24 207 -2.8 92 -4.0 342 0 996.7 NA 0.0000 9999 2430 0 0 0
2019/11/08 13:05:00 BASE 1.90 222 3.24 207 -2.8 91 -4.0 346 0 996.7 NA 0.0000 9999 2360 0 0 0
2019/11/08 13:06:00 BASE 1.39 222 3.24 207 -2.8 91 -4.0 350 0 996.7 NA 0.0000 9999 2360 22050 0 0
2019/11/08 13:07:00 BASE 1.41 219 3.24 207 -2.9 91 -4.1 350 0 996.7 NA 0.0000 9999 2490 0 0 0
2019/11/08 13:08:00 BASE 1.51 206 3.24 207 -2.9 92 -4.1 348 0 996.7 NA 0.0000 9999 2430 0 0 0
2019/11/08 13:09:00 BASE 1.38 201 3.24 207 -2.8 92 -4.0 346 0 996.8 NA 0.0000 9999 2400 0 0 0
2019/11/08 13:10:00 BASE 1.12 195 3.24 207 -2.8 92 -3.9 344 0 996.8 NA 0.0000 9999 2360 0 0 0
2019/11/08 13:11:00 BASE 1.63 188 3.24 207 -2.8 92 -3.9 341 0 996.8 NA 0.0000 9999 2360 0 0 0
2019/11/08 13:12:00 BASE 2.28 198 3.24 207 -2.7 92 -3.8 339 0 996.8 NA 0.0000 9999 2330 0 0 0
2019/11/08 13:13:00 BASE 1.99 200 3.19 209 -2.7 92 -3.9 341 0 996.8 NA 0.0000 9999 2400 0 0 0
2019/11/08 13:14:00 BASE 1.70 189 3.19 209 -2.8 92 -3.9 344 0 996.8 NA 0.0000 9999 2400 0 0 0
2019/11/08 13:15:00 BASE 1.53 172 3.19 209 -2.8 92 -3.9 344 0 996.8 NA 0.0000 9999 2360 0 0 0
2019/11/08 13:16:00 BASE 1.97 164 3.19 209 -2.8 92 -3.9 341 0 996.8 NA 0.0000 9999 2360 0 0 0
2019/11/08 13:17:00 BASE 2.62 172 3.24 166 -2.8 92 -4.0 340 0 996.8 NA 0.0000 9999 2330 0 0 0
2019/11/08 13:18:00 BASE 2.85 174 3.55 169 -2.8 92 -3.9 343 0 996.8 NA 0.0000 9999 2400 0 0 0
2019/11/08 13:19:00 BASE 3.08 176 3.55 189 -2.8 92 -3.9 348 0 996.8 NA 0.0000 9999 2330 0 0 0
2019/11/08 13:20:00 BASE 3.23 179 3.86 181 -2.8 92 -3.9 348 0 996.8 NA 0.0000 9999 2400 0 0 0
2019/11/08 13:21:00 BASE 2.86 177 3.86 181 -2.8 92 -4.0 346 0 996.8 NA 0.0000 9999 2360 0 0 0
2019/11/08 13:22:00 BASE 2.00 166 3.86 181 -2.8 92 -4.0 346 0 996.8 NA 0.0000 9999 2360 0 0 0
2019/11/08 13:23:00 BASE 1.94 156 3.86 181 -2.8 92 -4.0 348 0 996.8 NA 0.0000 9999 2400 0 0 0
2019/11/08 13:24:00 BASE 2.40 161 3.86 181 -2.8 92 -3.9 348 0 996.8 NA 0.0000 9999 2360 0 0 0
2019/11/08 13:25:00 BASE 2.25 171 3.86 181 -2.7 92 -3.9 347 0 996.9 NA 0.0000 9999 2330 0 0 0
2019/11/08 13:26:00 BASE 1.89 174 3.86 181 -2.7 92 -3.9 348 0 996.9 NA 0.0000 9999 2330 0 0 0
2019/11/08 13:27:00 BASE 1.48 188 3.86 181 -2.7 92 -3.9 355 0 997.0 NA 0.0000 9999 2300 24310 0 0
2019/11/08 13:28:00 BASE 1.12 196 3.86 181 -2.7 91 -3.9 363 0 996.9 NA 0.0000 9999 2300 24020 0 0
2019/11/08 13:29:00 BASE 0.80 195 3.86 181 -2.8 91 -4.0 368 0 997.0 NA 0.0000 9999 2360 0 0 0
2019/11/08 13:30:00 BASE 1.29 195 3.65 176 -2.8 91 -4.1 369 0 997.0 NA 0.0000 9999 2400 0 0 0
2019/11/08 13:31:00 BASE 1.89 164 2.73 153 -2.8 91 -4.0 368 0 997.0 NA 0.0000 9999 2400 0 0 0
2019/11/08 13:32:00 BASE 1.91 132 2.73 153 -2.7 91 -3.9 368 0 997.0 NA 0.0000 9999 2400 0 0 0
2019/11/08 13:33:00 BASE 2.01 132 2.68 184 -2.7 92 -3.9 365 0 997.0 NA 0.0000 9999 2400 0 0 0
2019/11/08 13:34:00 BASE 1.81 141 2.68 184 -2.6 92 -3.8 362 0 997.0 NA 0.0000 9999 2360 0 0 0
2019/11/08 13:35:00 BASE 1.70 139 2.68 184 -2.5 92 -3.7 361 0 997.0 NA 0.0000 9999 2330 0 0 0
2019/11/08 13:36:00 BASE 1.88 128 2.68 184 -2.5 92 -3.6 362 0 997.0 NA 0.0000 9999 2400 0 0 0
2019/11/08 13:37:00 BASE 1.90 127 2.68 121 -2.5 92 -3.7 363 0 997.0 NA 0.0000 9999 2300 21920 0 0
2019/11/08 13:38:00 BASE 2.05 131 2.68 121 -2.6 92 -3.7 361 0 997.0 NA 0.0000 9999 2330 0 0 0
2019/11/08 13:39:00 BASE 2.37 134 2.68 129 -2.6 92 -3.7 358 0 997.0 NA 0.0000 9999 2360 0 0 0
2019/11/08 13:40:00 BASE 2.38 135 2.73 134 -2.6 91 -3.8 360 0 997.0 NA 0.0000 9999 2360 0 0 0
2019/11/08 13:41:00 BASE 1.84 141 2.73 134 -2.6 91 -3.9 365 0 997.0 NA 0.0000 9999 2400 0 0 0
2019/11/08 13:42:00 BASE 1.52 140 2.73 134 -2.6 91 -3.9 370 0 997.0 NA 0.0000 9999 2330 0 0 0
2019/11/08 13:43:00 BASE 1.62 129 2.73 134 -2.6 91 -3.8 371 0 997.1 NA 0.0000 9999 2330 0 0 0
2019/11/08 13:44:00 BASE 1.51 133 2.73 134 -2.6 91 -3.8 369 0 997.1 NA 0.0000 9999 2300 0 0 0
2019/11/08 13:45:00 BASE 1.09 143 2.73 134 -2.6 91 -3.8 371 0 997.1 NA 0.0000 9999 2330 0 0 0
2019/11/08 13:46:00 BASE 0.39 144 2.73 134 -2.6 91 -3.8 374 0 997.1 NA 0.0000 9999 2300 0 0 0
2019/11/08 13:47:00 BASE 0.00 133 2.73 134 -2.5 91 -3.7 378 0 997.1 NA 0.0000 9999 2330 0 0 0
2019/11/08 13:48:00 BASE 0.00 122 2.73 134 -2.4 91 -3.7 382 0 997.1 NA 0.0000 9999 2330 0 0 0
2019/11/08 13:49:00 BASE 0.24 120 2.73 134 -2.4 91 -3.7 383 0 997.1 NA 0.0000 9999 2360 0 0 0
2019/11/08 13:50:00 BASE 0.95 126 1.95 150 -2.3 91 -3.6 381 0 997.1 NA 0.0000 9999 2400 0 0 0
2019/11/08 13:51:00 BASE 1.44 142 1.85 134 -2.3 91 -3.7 378 0 997.1 NA 0.0000 9999 2360 0 0 0
2019/11/08 13:52:00 BASE 0.81 150 1.85 134 -2.4 90 -3.8 375 0 997.1 NA 0.0000 9999 2300 0 0 0
2019/11/08 13:53:00 BASE 0.29 156 1.85 205 -2.5 90 -3.8 375 0 997.1 NA 0.0000 9999 2430 0 0 0
2019/11/08 13:54:00 BASE 1.04 188 2.16 198 -2.5 90 -3.9 381 0 997.1 NA 0.0000 9999 2360 0 0 0
2019/11/08 13:55:00 BASE 1.90 204 2.52 204 -2.5 90 -4.0 395 0 997.1 NA 0.0000 9999 2400 0 0 0
2019/11/08 13:56:00 BASE 1.40 199 2.52 204 -2.5 89 -4.1 409 0 997.1 NA 0.0000 9999 2400 0 0 0
2019/11/08 13:57:00 BASE 1.09 199 2.52 204 -2.5 89 -4.1 410 0 997.1 NA 0.0000 9999 2360 0 0 0
2019/11/08 13:58:00 BASE 1.77 207 2.57 211 -2.6 89 -4.1 402 0 997.1 NA 0.0000 9999 2330 0 0 0
2019/11/08 13:59:00 BASE 2.05 207 2.57 211 -2.6 90 -4.1 393 0 997.0 NA 0.0000 9999 2330 16930 0 0
2019/11/08 14:00:00 BASE 2.04 195 2.57 211 -2.6 90 -4.1 389 0 997.0 NA 0.0000 9999 2300 0 0 0
2019/11/08 14:01:00 BASE 1.85 190 2.57 211 -2.6 90 -4.0 392 0 997.1 NA 0.0000 9999 2360 0 0 0
2019/11/08 14:02:00 BASE 1.52 189 2.57 211 -2.6 90 -4.0 391 0 997.2 NA 0.0000 9999 2400 0 0 0
2019/11/08 14:03:00 BASE 0.95 187 2.57 211 -2.6 90 -4.0 387 0 997.2 NA 0.0000 9999 2330 0 0 0
2019/11/08 14:04:00 BASE 0.67 167 2.57 211 -2.5 90 -3.9 393 0 997.1 NA 0.0000 9999 2300 0 0 0
2019/11/08 14:05:00 BASE 1.43 142 2.68 136 -2.5 90 -3.8 412 0 997.2 NA 0.0000 9999 2400 0 0 0
2019/11/08 14:06:00 BASE 2.32 140 2.98 142 -2.5 91 -3.8 440 0 997.2 NA 0.0000 9999 2400 23690 0 0
2019/11/08 14:07:00 BASE 2.66 139 3.19 134 -2.4 91 -3.8 447 0 997.2 NA 0.0000 9999 2400 0 0 0
2019/11/08 14:08:00 BASE 2.67 134 3.19 136 -2.4 91 -3.8 444 0 997.2 NA 0.0000 9999 2330 0 0 0
2019/11/08 14:09:00 BASE 2.61 124 3.19 136 -2.4 91 -3.7 454 0 997.2 NA 0.0000 9999 2360 0 0 0
2019/11/08 14:10:00 BASE 2.43 109 3.19 136 -2.4 90 -3.7 469 0 997.2 NA 0.0000 9999 2330 0 0 0
2019/11/08 14:11:00 BASE 1.93 113 3.19 136 -2.4 90 -3.8 474 0 997.2 NA 0.0000 9999 2360 0 0 0
2019/11/08 14:12:01 BASE 1.57 124 3.19 136 -2.3 90 -3.7 466 0 997.2 NA 0.0000 9999 2360 0 0 0
2019/11/08 14:13:00 BASE 1.35 123 3.19 136 -2.3 90 -3.7 447 0 997.2 NA 0.0000 9999 2360 0 0 0
2019/11/08 14:14:00 BASE 1.11 107 3.19 136 -2.3 90 -3.7 430 0 997.2 NA 0.0000 9999 2330 0 0 0
2019/11/08 14:15:00 BASE 1.19 89 3.19 136 -2.3 90 -3.8 431 0 997.2 NA 0.0000 9999 2330 0 0 0
2019/11/08 14:16:00 BASE 1.44 77 3.19 136 -2.3 90 -3.8 439 0 997.2 NA 0.0000 9999 2330 0 0 0
2019/11/08 14:17:00 BASE 1.80 74 3.19 136 -2.4 89 -3.9 446 0 997.2 NA 0.0000 9999 2300 0 0 0
2019/11/08 14:18:00 BASE 2.07 68 2.98 116 -2.4 89 -3.9 448 0 997.2 NA 0.0000 9999 2330 0 0 0
2019/11/08 14:19:00 BASE 2.11 60 2.98 116 -2.3 89 -3.9 431 0 997.2 NA 0.0000 9999 2330 0 0 0
2019/11/08 14:20:00 BASE 2.44 47 3.14 35 -2.2 89 -3.8 427 0 997.2 NA 0.0000 9999 2330 0 0 0
2019/11/08 14:21:00 BASE 3.12 39 3.86 48 -2.1 89 -3.7 453 0 997.2 NA 0.0000 9999 2400 0 0 0
2019/11/08 14:22:00 BASE 3.67 47 4.17 65 -2.0 89 -3.6 517 0 997.2 NA 0.0000 9999 2360 0 0 0
2019/11/08 14:23:00 BASE 3.69 54 4.17 65 -1.9 88 -3.6 498 0 997.2 NA 0.0000 9999 2430 0 0 0
2019/11/08 14:24:00 BASE 3.45 56 4.17 65 -1.8 88 -3.6 512 0 997.2 NA 0.0000 9999 2360 0 0 0
2019/11/08 14:25:00 BASE 3.23 52 4.17 65 -1.8 87 -3.7 580 0 997.2 NA 0.0000 9999 2360 0 0 0
2019/11/08 14:26:00 BASE 2.93 49 4.17 65 -1.8 87 -3.7 513 0 997.2 NA 0.0000 9999 2360 0 0 0
2019/11/08 14:27:00 BASE 2.77 45 4.17 65 -1.8 86 -3.8 523 0 997.2 NA 0.0000 9999 2430 0 0 0
2019/11/08 14:28:00 BASE 2.80 42 4.17 65 -1.8 86 -3.8 505 0 997.2 NA 0.0000 9999 2460 0 0 0
2019/11/08 14:29:00 BASE 2.71 40 4.17 65 -1.7 86 -3.8 593 0 997.2 NA 0.0000 9999 2360 0 0 0
2019/11/08 14:30:00 BASE 2.91 39 4.17 65 -1.7 86 -3.8 488 0 997.2 NA 0.0000 9999 2400 0 0 0
2019/11/08 14:31:00 BASE 3.58 43 4.27 42 -1.7 85 -3.8 437 0 997.2 NA 0.0000 9999 2430 0 0 0
2019/11/08 14:32:00 BASE 3.65 48 4.27 42 -1.7 85 -3.8 416 0 997.2 NA 0.0000 9999 2430 0 0 0
2019/11/08 14:33:00 BASE 3.14 52 4.27 42 -1.7 85 -3.9 444 0 997.2 NA 0.0000 9999 2490 0 0 0
2019/11/08 14:34:00 BASE 2.64 52 4.27 42 -1.7 85 -3.9 409 0 997.2 NA 0.0000 9999 2620 0 0 0
2019/11/08 14:35:00 BASE 2.43 49 4.27 42 -1.8 85 -4.0 357 0 997.2 NA 0.0000 9999 2620 0 0 0
2019/11/08 14:36:00 BASE 2.11 58 4.27 42 -1.8 85 -4.0 703 0 997.2 NA 0.0000 9999 2620 0 0 0
2019/11/08 14:37:00 BASE 1.25 56 4.27 42 -1.8 84 -4.1 779 0 997.2 NA 0.0000 9999 2690 0 0 0
2019/11/08 14:38:00 BASE 0.96 55 4.27 42 -1.8 84 -4.1 630 0 997.2 NA 0.0000 9999 2690 0 0 0
2019/11/08 14:39:00 BASE 1.46 62 4.27 42 -1.8 84 -4.2 727 0 997.2 NA 0.0000 9999 2720 0 0 0
2019/11/08 14:40:00 BASE 1.64 56 4.27 42 -1.7 83 -4.1 811 0 997.2 NA 0.0000 9999 2760 0 0 0
2019/11/08 14:41:00 BASE 1.53 40 3.81 62 -1.7 83 -4.2 807 0 997.2 NA 0.0000 9999 2760 0 0 0
2019/11/08 14:42:00 BASE 1.57 32 3.50 45 -1.6 82 -4.2 719 0 997.2 NA 0.0000 9999 0 0 0 0
2019/11/08 14:43:00 BASE 1.34 47 3.09 71 -1.6 82 -4.3 639 0 997.2 NA 0.0000 9999 0 0 0 0
2019/11/08 14:44:00 BASE 1.53 212 3.09 252 -1.6 81 -4.4 686 0 997.2 NA 0.0000 9999 0 0 0 0
2019/11/08 14:45:00 BASE 2.28 228 3.19 209 -1.7 81 -4.5 746 0 997.2 NA 0.0000 9999 0 0 0 0
2019/11/08 14:46:00 BASE 2.55 207 3.19 209 -1.7 81 -4.6 751 0 997.2 NA 0.0000 9999 0 0 0 0
2019/11/08 14:47:00 BASE 2.07 201 3.19 209 -1.8 81 -4.6 749 0 997.2 NA 0.0000 9999 0 0 0 0
2019/11/08 14:48:00 BASE 1.51 219 3.19 209 -1.9 81 -4.7 749 0 997.2 NA 0.0000 9999 0 0 0 0
2019/11/08 14:49:00 BASE 0.85 245 3.19 209 -2.0 81 -4.8 748 0 997.2 NA 0.0000 9999 0 0 0 0
2019/11/08 14:50:00 BASE 0.14 256 3.19 209 -2.0 81 -4.8 747 0 997.2 NA 0.0000 9999 0 0 0 0
2019/11/08 14:51:00 BASE 0.44 215 3.19 120 -1.9 81 -4.8 748 0 997.2 NA 0.0000 9999 0 0 0 0
2019/11/08 14:52:01 BASE 1.83 146 3.29 153 -1.8 81 -4.6 749 0 997.2 NA 0.0000 9999 0 0 0 0
2019/11/08 14:53:00 BASE 2.64 144 3.29 153 -1.7 81 -4.5 749 0 997.2 NA 0.0000 9999 0 0 0 0
2019/11/08 14:54:00 BASE 2.36 130 3.29 153 -1.7 81 -4.4 749 0 997.2 NA 0.0000 9999 0 0 0 0
2019/11/08 14:55:00 BASE 2.15 123 3.29 153 -1.6 82 -4.3 749 0 997.2 NA 0.0000 9999 0 0 0 0
2019/11/08 14:56:00 BASE 2.02 123 3.29 153 -1.5 82 -4.2 749 0 997.2 NA 0.0000 9999 0 0 0 0
2019/11/08 14:57:00 BASE 2.06 128 3.29 153 -1.5 82 -4.2 750 0 997.2 NA 0.0000 9999 0 0 0 0
2019/11/08 14:58:00 BASE 2.26 134 3.29 153 -1.5 83 -4.1 750 0 997.2 NA 0.0000 9999 0 0 0 0
2019/11/08 14:59:00 BASE 2.40 136 3.29 153 -1.6 83 -4.1 750 0 997.2 NA 0.0000 9999 0 0 0 0
2019/11/08 15:00:00 BASE 2.50 141 3.29 153 -1.6 83 -4.2 750 0 997.2 NA 0.0000 9999 0 0 0 0
2019/11/08 15:01:00 BASE 2.51 146 3.29 153 -1.6 83 -4.2 750 0 997.2 NA 0.0000 9999 0 0 0 0
2019/11/08 15:02:00 BASE 2.43 145 3.24 138 -1.6 82 -4.2 750 0 997.2 NA 0.0000 9999 0 0 0 0
2019/11/08 15:03:00 BASE 2.21 152 3.24 138 -1.6 82 -4.3 751 0 997.3 NA 0.0000 9999 0 0 0 0
2019/11/08 15:04:00 BASE 2.03 153 3.24 138 -1.6 82 -4.2 752 0 997.3 NA 0.0000 9999 0 0 0 0
2019/11/08 15:05:00 BASE 1.80 149 3.24 138 -1.6 82 -4.2 749 0 997.3 NA 0.0000 9999 0 0 0 0
2019/11/08 15:06:00 BASE 1.90 155 3.55 160 -1.6 82 -4.3 752 0 997.3 NA 0.0000 9999 0 0 0 0
2019/11/08 15:07:00 BASE 2.57 159 3.55 160 -1.5 81 -4.3 693 0 997.3 NA 0.0000 9999 0 0 0 0
2019/11/08 15:08:00 BASE 3.52 153 4.68 163 -1.5 81 -4.3 764 0 997.3 NA 0.0000 9999 0 0 0 0
2019/11/08 15:09:00 BASE 3.68 153 4.68 163 -1.5 81 -4.3 755 0 997.3 NA 0.0000 9999 0 0 0 0
2019/11/08 15:10:00 BASE 2.70 152 4.68 163 -1.5 81 -4.3 755 0 997.3 NA 0.0000 9999 0 0 0 0
2019/11/08 15:11:00 BASE 2.32 155 4.68 163 -1.5 82 -4.2 755 0 997.3 NA 0.0000 9999 0 0 0 0
2019/11/08 15:12:00 BASE 2.70 160 4.68 163 -1.5 82 -4.2 756 0 997.3 NA 0.0000 9999 0 0 0 0
2019/11/08 15:13:00 BASE 3.02 165 4.68 163 -1.5 82 -4.2 757 0 997.3 NA 0.0000 9999 0 0 0 0
2019/11/08 15:14:00 BASE 2.72 165 4.68 163 -1.6 82 -4.2 756 0 997.3 NA 0.0000 9999 0 0 0 0
2019/11/08 15:15:00 BASE 3.13 164 4.78 177 -1.6 82 -4.2 758 0 997.4 NA 0.0000 9999 0 0 0 0
2019/11/08 15:16:00 BASE 4.04 173 4.99 177 -1.6 82 -4.2 759 0 997.5 NA 0.0000 9999 0 0 0 0
2019/11/08 15:17:00 BASE 3.94 180 4.99 177 -1.7 82 -4.3 759 0 997.5 NA 0.0000 9999 0 0 0 0
2019/11/08 15:18:00 BASE 3.39 189 4.99 177 -1.7 82 -4.3 760 0 997.5 NA 0.0000 9999 0 0 0 0
2019/11/08 15:19:00 BASE 2.68 191 4.99 177 -1.8 83 -4.3 761 0 997.5 NA 0.0000 9999 0 0 0 0
2019/11/08 15:20:00 BASE 2.37 179 4.99 177 -1.8 83 -4.3 762 0 997.5 NA 0.0000 9999 0 0 0 0
2019/11/08 15:21:00 BASE 2.75 166 4.99 177 -1.8 83 -4.2 759 0 997.5 NA 0.0000 9999 0 0 0 0
2019/11/08 15:22:00 BASE 2.91 166 4.99 177 -1.8 84 -4.1 760 0 997.5 NA 0.0000 9999 0 0 0 0
2019/11/08 15:23:00 BASE 2.59 161 4.99 177 -1.7 84 -4.0 760 0 997.5 NA 0.0000 9999 0 0 0 0
2019/11/08 15:24:00 BASE 2.21 146 4.99 177 -1.7 85 -3.9 762 0 997.5 NA 0.0000 9999 0 0 0 0
2019/11/08 15:25:00 BASE 2.36 140 4.99 177 -1.6 85 -3.8 762 0 997.5 NA 0.0000 9999 0 0 0 0
2019/11/08 15:26:00 BASE 2.59 144 4.42 184 -1.6 85 -3.8 762 0 997.5 NA 0.0000 9999 0 0 0 0
2019/11/08 15:27:00 BASE 2.48 144 4.06 179 -1.6 85 -3.8 761 0 997.5 NA 0.0000 9999 0 0 0 0
2019/11/08 15:28:00 BASE 2.52 139 4.06 179 -1.6 84 -3.9 759 0 997.5 NA 0.0000 9999 0 0 0 0
2019/11/08 15:29:00 BASE 2.62 148 4.06 179 -1.6 84 -4.0 760 0 997.5 NA 0.0000 9999 0 0 0 0
2019/11/08 15:30:00 BASE 1.74 159 4.06 179 -1.7 84 -4.1 760 0 997.5 NA 0.0000 9999 0 0 0 0
2019/11/08 15:31:00 BASE 1.14 142 3.60 148 -1.7 83 -4.2 760 0 997.5 NA 0.0000 9999 0 0 0 0
2019/11/08 15:32:00 BASE 2.20 158 3.60 148 -1.7 83 -4.3 761 0 997.5 NA 0.0000 9999 0 0 0 0
2019/11/08 15:33:00 BASE 2.66 186 3.60 148 -1.8 83 -4.3 760 0 997.5 NA 0.0000 9999 0 0 0 0
2019/11/08 15:34:00 BASE 2.13 172 3.60 148 -1.8 82 -4.4 760 0 997.5 NA 0.0000 9999 0 0 0 0
2019/11/08 15:35:00 BASE 1.47 150 3.55 195 -1.8 82 -4.4 761 0 997.5 NA 0.0000 9999 0 0 0 0
2019/11/08 15:36:00 BASE 0.57 30 3.55 195 -1.8 82 -4.4 760 0 997.5 NA 0.0000 9999 0 0 0 0
2019/11/08 15:37:00 BASE 0.19 277 3.55 195 -1.8 83 -4.4 761 0 997.5 NA 0.0000 9999 0 0 0 0
2019/11/08 15:38:00 BASE 0.27 259 3.55 195 -1.8 83 -4.3 762 0 997.5 NA 0.0000 9999 0 0 0 0
2019/11/08 15:39:00 BASE 0.09 273 3.55 195 -1.7 83 -4.2 761 0 997.5 NA 0.0000 9999 0 0 0 0
2019/11/08 15:40:00 BASE 0.00 336 3.55 195 -1.6 83 -4.2 764 0 997.5 NA 0.0000 9999 0 0 0 0
2019/11/08 15:41:00 BASE 0.00 345 3.55 195 -1.6 82 -4.2 765 0 997.5 NA 0.0000 9999 0 0 0 0
2019/11/08 15:42:00 BASE 0.00 36 3.09 185 -1.5 82 -4.2 767 0 997.5 NA 0.0000 9999 0 0 0 0
2019/11/08 15:43:00 BASE 0.05 26 2.16 162 -1.5 82 -4.2 767 0 997.6 NA 0.0000 9999 0 0 0 0
2019/11/08 15:44:00 BASE 0.05 301 2.11 194 -1.5 81 -4.3 770 0 997.5 NA 0.0000 9999 1670 0 0 0
2019/11/08 15:45:00 BASE 0.55 243 1.70 212 -1.6 81 -4.4 779 0 997.5 NA 0.0000 9999 0 0 0 0
2019/11/08 15:46:00 BASE 1.16 228 1.85 210 -1.6 81 -4.4 798 0 997.5 NA 0.0000 9999 0 0 0 0
2019/11/08 15:47:00 BASE 0.98 228 1.85 210 -1.7 81 -4.5 837 0 997.5 NA 0.0000 9999 0 0 0 0
2019/11/08 15:48:00 BASE 0.50 187 1.85 210 -1.7 81 -4.5 721 0 997.5 NA 0.0000 9999 1570 0 0 0
2019/11/08 15:49:00 BASE 0.39 93 1.85 210 -1.6 81 -4.3 616 0 997.5 NA 0.0000 9999 1570 23100 0 0
2019/11/08 15:50:00 BASE 0.30 41 1.85 210 -1.5 81 -4.2 562 0 997.6 NA 0.0000 9999 1610 0 0 0
2019/11/08 15:51:00 BASE 0.33 338 1.85 210 -1.3 81 -4.1 410 0 997.6 NA 0.0000 9999 1710 0 0 0
2019/11/08 15:52:00 BASE 1.50 215 3.34 209 -1.2 81 -4.0 605 0 997.6 NA 0.0000 9999 1670 0 0 0
2019/11/08 15:53:00 BASE 2.11 206 3.34 209 -1.2 80 -4.1 1038 0 997.6 NA 0.0000 9999 1670 0 0 0
2019/11/08 15:54:00 BASE 2.22 198 4.01 205 -1.3 80 -4.3 1032 0 997.6 NA 0.0000 9999 1570 0 0 0
2019/11/08 15:55:00 BASE 2.80 197 4.01 205 -1.4 80 -4.4 541 0 997.6 NA 0.0000 9999 1540 0 0 0
2019/11/08 15:56:00 BASE 2.54 195 4.01 205 -1.5 80 -4.5 413 0 997.6 NA 0.0000 9999 1540 0 0 0
2019/11/08 15:57:00 BASE 2.08 192 4.01 205 -1.6 80 -4.6 428 0 997.6 NA 0.0000 9999 1570 0 0 0
2019/11/08 15:58:00 BASE 2.39 211 4.01 205 -1.6 81 -4.5 363 0 997.6 NA 0.0000 9999 1540 0 0 0
2019/11/08 15:59:00 BASE 2.55 254 4.01 205 -1.6 81 -4.4 365 0 997.6 NA 0.0000 9999 1540 0 0 0
2019/11/08 16:00:00 BASE 2.27 263 4.01 205 -1.7 82 -4.4 421 0 997.6 NA 0.0000 9999 1510 0 0 0
2019/11/08 16:01:00 BASE 2.57 232 4.37 205 -1.7 82 -4.3 990 0 997.6 NA 0.0000 9999 1510 0 0 0
2019/11/08 16:02:00 BASE 2.66 206 4.37 205 -1.7 82 -4.3 434 0 997.6 NA 0.0000 9999 1540 0 0 0
2019/11/08 16:03:00 BASE 1.75 203 4.37 205 -1.8 83 -4.3 414 0 997.6 NA 0.0000 9999 1510 0 0 0
2019/11/08 16:04:00 BASE 1.33 218 4.37 205 -1.8 83 -4.4 444 0 997.5 NA 0.0000 9999 1570 0 0 0
2019/11/08 16:05:00 BASE 1.71 231 4.37 205 -1.9 83 -4.4 480 0 997.6 NA 0.0000 9999 1540 0 0 0
2019/11/08 16:06:00 BASE 2.11 227 4.37 205 -1.9 83 -4.3 856 0 997.6 NA 0.0000 9999 1740 0 0 0
2019/11/08 16:07:00 BASE 2.42 210 4.37 205 -1.8 83 -4.3 531 0 997.6 NA 0.0000 9999 1480 0 0 0
2019/11/08 16:08:00 BASE 2.98 190 4.37 205 -1.8 84 -4.2 512 0 997.6 NA 0.0000 9999 1510 0 0 0
2019/11/08 16:09:00 BASE 3.62 171 4.89 137 -1.8 84 -4.2 744 0 997.6 NA 0.0000 9999 1510 0 0 0
2019/11/08 16:10:00 BASE 3.85 172 4.89 137 -1.8 84 -4.1 547 0 997.6 NA 0.0000 9999 1440 0 0 0
2019/11/08 16:11:00 BASE 3.58 174 4.89 137 -1.8 84 -4.1 691 0 997.6 NA 0.0000 9999 1440 0 0 0
2019/11/08 16:12:00 BASE 3.16 176 4.89 137 -1.7 84 -4.1 436 0 997.6 NA 0.0000 9999 1440 0 0 0
2019/11/08 16:13:00 BASE 3.28 200 4.89 137 -1.8 84 -4.0 450 0 997.6 NA 0.0000 9999 1540 0 0 0
2019/11/08 16:14:00 BASE 3.96 220 5.40 223 -1.8 85 -4.0 500 0 997.7 NA 0.0000 9999 1510 0 0 0
2019/11/08 16:15:00 BASE 3.95 230 5.40 223 -1.8 85 -4.1 789 0 997.7 NA 0.0000 9999 1410 0 0 0
2019/11/08 16:16:00 BASE 3.55 236 5.40 223 -1.9 85 -4.0 383 0 997.6 NA 0.0000 9999 1380 0 0 0
2019/11/08 16:17:00 BASE 3.80 235 5.40 223 -1.9 85 -4.1 349 0 997.6 NA 0.0000 9999 1350 1740 0 0
2019/11/08 16:18:00 BASE 3.38 231 5.40 223 -2.0 86 -4.1 507 0 997.6 NA 0.0000 9999 1310 0 0 0
2019/11/08 16:19:00 BASE 2.09 231 5.40 223 -2.0 86 -4.1 725 0 997.6 NA 0.0000 9999 1570 22210 0 0
2019/11/08 16:20:00 BASE 0.73 228 5.40 223 -2.0 86 -4.0 792 0 997.6 NA 0.0000 9999 1480 0 0 0
2019/11/08 16:21:00 BASE 0.79 226 5.40 223 -2.0 87 -3.9 996 0 997.6 NA 0.0000 9999 1410 0 0 0
2019/11/08 16:22:00 BASE 0.91 220 5.40 223 -2.0 87 -3.9 503 0 997.6 NA 0.0000 9999 1410 0 0 0
2019/11/08 16:23:00 BASE 0.49 223 5.40 223 -2.0 87 -3.8 488 0 997.6 NA 0.0000 9999 1380 0 0 0
2019/11/08 16:24:00 BASE 1.49 224 4.84 225 -1.9 87 -3.7 517 0 997.6 NA 0.0000 9999 1480 0 0 0
2019/11/08 16:25:00 BASE 2.40 223 4.84 225 -1.8 87 -3.7 357 0 997.7 NA 0.0000 9999 1310 0 0 0
2019/11/08 16:26:00 BASE 2.39 225 4.84 225 -1.9 87 -3.7 328 0 997.7 NA 0.0000 9999 1350 0 0 0
2019/11/08 16:27:01 BASE 1.77 220 3.34 222 -1.9 88 -3.7 591 0 997.7 NA 0.0000 9999 0 0 0 0
2019/11/08 16:28:00 BASE 2.17 220 3.45 221 -1.9 88 -3.7 438 0 997.7 NA 0.0000 9999 1540 0 0 0
2019/11/08 16:29:00 BASE 2.85 220 3.45 221 -1.9 88 -3.7 637 0 997.7 NA 0.0000 9999 1480 0 0 0
2019/11/08 16:30:00 BASE 2.54 219 3.45 221 -1.9 88 -3.6 677 0 997.7 NA 0.0000 9999 1570 0 0 0
2019/11/08 16:31:00 BASE 1.93 216 3.45 221 -1.9 88 -3.6 959 0 997.7 NA 0.0000 9999 0 0 0 0
2019/11/08 16:32:00 BASE 0.84 224 3.45 221 -1.9 88 -3.5 894 0 997.8 NA 0.0000 9999 0 0 0 0
2019/11/08 16:33:00 BASE 0.13 230 3.45 221 -1.8 89 -3.4 932 0 997.8 NA 0.0000 9999 1480 23300 0 0
2019/11/08 16:34:00 BASE 0.58 216 3.45 221 -1.7 89 -3.3 487 0 997.8 NA 0.0000 9999 1410 0 0 0
2019/11/08 16:35:00 BASE 1.71 200 3.45 221 -1.7 89 -3.3 877 0 997.8 NA 0.0000 9999 1480 0 0 0
2019/11/08 16:36:00 BASE 2.54 197 3.45 221 -1.6 89 -3.2 838 0 997.8 NA 0.0000 9999 0 0 0 0
2019/11/08 16:37:00 BASE 3.18 209 4.32 215 -1.5 89 -3.2 822 0 997.8 NA 0.0000 9999 0 0 0 0
2019/11/08 16:38:00 BASE 3.85 218 4.42 215 -1.6 88 -3.3 855 0 997.8 NA 0.0000 9999 0 0 0 0
2019/11/08 16:39:00 BASE 4.35 216 4.89 211 -1.7 88 -3.5 670 0 997.8 NA 0.0000 9999 1570 0 0 0
2019/11/08 16:40:00 BASE 4.53 215 4.89 211 -1.7 87 -3.6 888 0 997.8 NA 0.0000 9999 0 0 0 0
2019/11/08 16:41:00 BASE 4.08 213 4.89 211 -1.8 87 -3.7 343 0 997.8 NA 0.0000 9999 0 0 0 0
2019/11/08 16:42:00 BASE 3.57 216 4.89 211 -1.8 86 -3.8 597 0 997.8 NA 0.0000 9999 0 0 0 0
2019/11/08 16:43:00 BASE 3.22 213 4.89 211 -1.8 86 -3.9 477 0 997.8 NA 0.0000 9999 0 0 0 0
2019/11/08 16:44:00 BASE 3.26 211 4.89 211 -1.8 85 -4.0 851 0 997.8 NA 0.0000 9999 0 0 0 0
2019/11/08 16:45:00 BASE 3.59 223 4.89 211 -1.8 85 -4.0 817 0 997.8 NA 0.0000 9999 0 0 0 0
2019/11/08 16:46:00 BASE 3.83 226 4.89 211 -1.8 85 -4.0 818 0 997.8 NA 0.0000 9999 0 0 0 0
2019/11/08 16:47:00 BASE 3.72 223 4.89 211 -1.8 85 -4.1 806 0 997.8 NA 0.0000 9999 0 0 0 0
2019/11/08 16:48:00 BASE 3.61 213 4.89 211 -1.8 85 -4.0 799 0 997.8 NA 0.0000 9999 0 0 0 0
2019/11/08 16:49:00 BASE 3.49 198 4.68 219 -1.8 85 -4.0 793 0 997.8 NA 0.0000 9999 0 0 0 0
2019/11/08 16:50:00 BASE 3.18 201 4.58 220 -1.8 85 -4.1 793 0 997.8 NA 0.0000 9999 0 0 0 0
2019/11/08 16:51:00 BASE 3.00 204 4.58 220 -1.8 84 -4.1 795 0 997.8 NA 0.0000 9999 0 0 0 0
2019/11/08 16:52:00 BASE 2.59 198 4.58 220 -1.8 84 -4.1 796 0 997.8 NA 0.0000 9999 0 0 0 0
2019/11/08 16:53:00 BASE 2.21 204 4.58 220 -1.8 84 -4.2 788 0 997.8 NA 0.0000 9999 0 0 0 0
2019/11/08 16:54:00 BASE 1.99 208 4.58 220 -1.8 83 -4.3 788 0 997.8 NA 0.0000 9999 0 0 0 0
2019/11/08 16:55:00 BASE 1.83 210 4.58 220 -1.8 83 -4.3 784 0 997.8 NA 0.0000 9999 0 0 0 0
2019/11/08 16:56:00 BASE 1.30 204 4.01 198 -1.8 83 -4.3 782 0 997.8 NA 0.0000 9999 0 0 0 0
2019/11/08 16:57:00 BASE 1.40 195 4.01 198 -1.7 83 -4.2 781 0 997.8 NA 0.0000 9999 0 0 0 0
2019/11/08 16:58:00 BASE 2.33 200 3.65 202 -1.6 83 -4.2 777 0 997.9 NA 0.0000 9999 0 0 0 0
2019/11/08 16:59:00 BASE 2.81 203 3.65 202 -1.6 83 -4.1 776 0 997.9 NA 0.0000 9999 0 0 0 0
2019/11/08 17:00:00 BASE 2.89 206 3.34 209 -1.6 82 -4.2 782 0 997.9 NA 0.0000 9999 0 0 0 0
2019/11/08 17:01:00 BASE 2.39 205 3.24 208 -1.6 82 -4.2 769 0 997.9 NA 0.0000 9999 0 0 0 0
2019/11/08 17:02:00 BASE 2.12 201 3.24 208 -1.7 82 -4.4 776 0 997.9 NA 0.0000 9999 0 0 0 0
2019/11/08 17:03:00 BASE 2.45 204 3.24 208 -1.8 82 -4.4 772 0 997.9 NA 0.0000 9999 0 0 0 0
2019/11/08 17:04:00 BASE 2.82 210 3.34 212 -1.8 82 -4.4 774 0 997.9 NA 0.0000 9999 0 0 0 0
2019/11/08 17:05:00 BASE 2.79 209 3.34 212 -1.7 82 -4.4 776 0 997.9 NA 0.0000 9999 0 0 0 0
2019/11/08 17:06:00 BASE 2.19 205 3.34 212 -1.7 82 -4.4 776 0 997.9 NA 0.0000 9999 0 0 0 0
2019/11/08 17:07:00 BASE 1.57 208 3.34 212 -1.7 82 -4.3 760 0 997.9 NA 0.0000 9999 0 0 0 0
2019/11/08 17:08:00 BASE 1.16 204 3.34 212 -1.7 82 -4.3 785 0 997.9 NA 0.0000 9999 0 0 0 0
2019/11/08 17:09:00 BASE 1.53 198 3.34 212 -1.7 83 -4.3 779 0 997.9 NA 0.0000 9999 0 0 0 0
2019/11/08 17:10:00 BASE 2.32 213 3.34 212 -1.7 83 -4.2 785 0 997.9 NA 0.0000 9999 0 0 0 0
2019/11/08 17:11:00 BASE 2.05 219 3.34 212 -1.6 83 -4.1 806 0 998.0 NA 0.0000 9999 0 0 0 0
2019/11/08 17:12:00 BASE 1.67 217 3.34 212 -1.6 83 -4.1 821 0 998.0 NA 0.0000 9999 0 0 0 0
2019/11/08 17:13:00 BASE 1.87 229 3.34 212 -1.6 83 -4.1 820 0 997.9 NA 0.0000 9999 1540 0 0 0
2019/11/08 17:14:00 BASE 2.11 235 3.09 215 -1.6 83 -4.1 856 0 998.0 NA 0.0000 9999 1510 0 0 0
2019/11/08 17:15:00 BASE 2.39 230 3.04 216 -1.6 83 -4.0 897 0 998.0 NA 0.0000 9999 1510 0 0 0
2019/11/08 17:16:00 BASE 2.71 224 3.34 232 -1.6 84 -4.0 917 0 998.0 NA 0.0000 9999 1610 0 0 0
2019/11/08 17:17:00 BASE 2.95 225 3.50 230 -1.5 84 -3.9 592 0 998.0 NA 0.0000 9999 1740 0 0 0
2019/11/08 17:18:00 BASE 3.13 234 3.81 235 -1.6 84 -3.9 639 0 998.0 NA 0.0000 9999 1570 0 0 0
2019/11/08 17:19:00 BASE 2.88 249 3.81 235 -1.6 84 -3.9 625 0 998.0 NA 0.0000 9999 1540 0 0 0
2019/11/08 17:20:00 BASE 2.50 244 3.81 235 -1.7 84 -4.0 900 0 998.0 NA 0.0000 9999 1480 18080 19130 0
2019/11/08 17:21:00 BASE 2.41 227 3.81 235 -1.7 84 -4.1 316 0 998.0 NA 0.0000 9999 1480 0 0 0
2019/11/08 17:22:00 BASE 2.85 211 3.96 193 -1.7 84 -4.1 854 0 998.0 NA 0.0000 9999 1540 0 0 0
2019/11/08 17:23:00 BASE 3.52 204 3.96 193 -1.7 84 -4.1 804 0 998.0 NA 0.0000 9999 0 0 0 0
2019/11/08 17:24:00 BASE 3.65 215 4.12 224 -1.7 84 -4.0 803 0 998.0 NA 0.0000 9999 0 0 0 0
2019/11/08 17:25:00 BASE 3.36 223 4.12 224 -1.6 84 -3.9 810 0 998.0 NA 0.0000 9999 0 0 0 0
2019/11/08 17:26:00 BASE 3.05 225 4.12 224 -1.6 85 -3.9 421 0 998.0 NA 0.0000 9999 0 0 0 0
2019/11/08 17:27:00 BASE 2.96 220 4.12 224 -1.6 85 -3.8 810 0 998.0 NA 0.0000 9999 1410 0 0 0
2019/11/08 17:28:00 BASE 2.78 215 4.12 224 -1.6 85 -3.8 607 0 998.0 NA 0.0000 9999 0 0 0 0
2019/11/08 17:29:00 BASE 2.59 220 4.12 224 -1.6 85 -3.7 797 0 998.1 NA 0.0000 9999 0 0 0 0
2019/11/08 17:30:00 BASE 3.16 226 4.32 230 -1.5 86 -3.6 797 0 998.1 NA 0.0000 9999 0 0 0 0
2019/11/08 17:31:00 BASE 4.08 227 4.84 219 -1.5 86 -3.5 810 0 998.1 NA 0.0000 9999 0 0 0 0
2019/11/08 17:32:00 BASE 4.26 223 4.84 219 -1.4 86 -3.5 841 0 998.2 NA 0.0000 9999 1940 0 0 0
2019/11/08 17:33:00 BASE 4.40 218 5.14 216 -1.4 86 -3.4 386 0 998.2 NA 0.0000 9999 1410 0 0 0
2019/11/08 17:34:00 BASE 4.13 214 5.14 216 -1.5 86 -3.5 565 0 998.2 NA 0.0000 9999 0 0 0 0
2019/11/08 17:35:00 BASE 3.64 207 5.14 216 -1.5 86 -3.5 942 0 998.2 NA 0.0000 9999 0 0 0 0
2019/11/08 17:36:00 BASE 3.06 206 5.14 216 -1.6 86 -3.6 973 0 998.2 NA 0.0000 9999 0 0 0 0
2019/11/08 17:37:00 BASE 2.40 207 5.14 216 -1.6 86 -3.7 960 0 998.2 NA 0.0000 9999 1770 0 0 0
2019/11/08 17:38:00 BASE 2.44 211 5.14 216 -1.7 86 -3.7 436 0 998.2 NA 0.0000 9999 1870 0 0 0
2019/11/08 17:39:00 BASE 2.88 211 5.14 216 -1.6 86 -3.7 429 0 998.2 NA 0.0000 9999 1710 0 0 0
2019/11/08 17:40:00 BASE 3.26 212 5.14 216 -1.6 85 -3.8 501 0 998.2 NA 0.0000 9999 1970 21690 22570 0
2019/11/08 17:41:00 BASE 3.23 224 5.14 216 -1.6 85 -3.8 465 0 998.2 NA 0.0000 9999 1770 0 0 0
2019/11/08 17:42:00 BASE 2.78 239 5.14 216 -1.6 85 -3.8 504 0 998.2 NA 0.0000 9999 1740 0 0 0
2019/11/08 17:43:00 BASE 2.25 256 4.37 228 -1.7 85 -3.9 655 0 998.2 NA 0.0000 9999 1640 0 0 0
2019/11/08 17:44:00 BASE 2.09 265 4.37 228 -1.7 85 -3.9 717 0 998.2 NA 0.0000 9999 1570 0 0 0
2019/11/08 17:45:00 BASE 2.08 251 4.37 228 -1.7 85 -3.9 534 0 998.2 NA 0.0000 9999 1570 0 0 0
2019/11/08 17:46:00 BASE 2.95 225 4.37 228 -1.6 85 -3.8 467 0 998.2 NA 0.0000 9999 1480 0 0 0
2019/11/08 17:47:00 BASE 3.57 208 4.37 228 -1.6 85 -3.7 451 0 998.2 NA 0.0000 9999 1610 0 0 0
2019/11/08 17:48:00 BASE 3.23 198 4.37 228 -1.5 85 -3.6 430 0 998.2 NA 0.0000 9999 1740 0 0 0
2019/11/08 17:49:00 BASE 3.38 199 4.37 228 -1.4 86 -3.5 403 0 998.2 NA 0.0000 9999 1770 0 0 0
2019/11/08 17:50:00 BASE 3.66 203 4.42 195 -1.4 86 -3.5 375 0 998.3 NA 0.0000 9999 1540 0 0 0
2019/11/08 17:51:00 BASE 4.25 209 5.25 221 -1.5 86 -3.6 338 0 998.3 NA 0.0000 9999 1510 0 0 0
2019/11/08 17:52:00 BASE 4.62 216 5.25 221 -1.6 86 -3.6 355 0 998.2 NA 0.0000 9999 0 0 0 0
2019/11/08 17:53:00 BASE 4.53 214 5.25 221 -1.6 86 -3.7 987 0 998.3 NA 0.0000 9999 1540 2200 0 0
2019/11/08 17:54:00 BASE 4.02 213 5.25 221 -1.7 86 -3.7 578 0 998.3 NA 0.0000 9999 1800 0 0 0
2019/11/08 17:55:00 BASE 2.92 211 5.25 221 -1.7 86 -3.7 900 0 998.3 NA 0.0000 9999 0 0 0 0
2019/11/08 17:56:00 BASE 2.16 218 5.25 221 -1.7 86 -3.8 1036 0 998.3 NA 0.0000 9999 1870 23300 0 0
2019/11/08 17:57:00 BASE 1.37 220 5.25 221 -1.7 86 -3.7 1062 0 998.3 NA 0.0000 9999 1940 0 0 0
2019/11/08 17:58:00 BASE 0.40 193 5.25 221 -1.6 86 -3.7 901 0 998.3 NA 0.0000 9999 1710 0 0 0
2019/11/08 17:59:00 BASE 0.45 163 5.25 221 -1.5 86 -3.5 506 0 998.4 NA 0.0000 9999 1610 1970 0 0
2019/11/08 18:00:00 BASE 1.67 171 5.25 221 -1.4 86 -3.5 405 0 998.4 NA 0.0000 9999 1570 0 0 0
2019/11/08 18:01:00 BASE 2.35 190 4.99 218 -1.3 85 -3.5 404 0 998.4 NA 0.0000 9999 0 0 0 0
2019/11/08 18:02:00 BASE 1.94 212 4.78 213 -1.2 84 -3.5 393 0 998.5 NA 0.0000 9999 1900 0 0 0
2019/11/08 18:03:00 BASE 1.59 213 4.12 214 -1.2 84 -3.6 417 0 998.4 NA 0.0000 9999 1770 0 0 0
2019/11/08 18:04:00 BASE 1.76 203 2.98 219 -1.4 83 -3.8 461 0 998.5 NA 0.0000 9999 1570 0 0 0
2019/11/08 18:05:00 BASE 2.35 206 3.34 204 -1.4 83 -3.9 502 0 998.5 NA 0.0000 9999 1570 0 0 0
2019/11/08 18:06:00 BASE 2.94 203 4.42 203 -1.5 83 -4.0 573 0 998.4 NA 0.0000 9999 1510 0 0 0
2019/11/08 18:07:00 BASE 3.34 203 4.48 200 -1.6 83 -4.0 345 0 998.5 NA 0.0000 9999 1540 0 0 0
2019/11/08 18:08:00 BASE 2.88 213 4.48 200 -1.7 83 -4.1 329 0 998.5 NA 0.0000 9999 1440 0 0 0
2019/11/08 18:09:00 BASE 2.71 224 4.48 200 -1.7 84 -4.1 322 0 998.5 NA 0.0000 9999 2100 0 0 0
2019/11/08 18:10:00 BASE 3.56 225 4.48 200 -1.7 84 -4.0 314 0 998.5 NA 0.0000 9999 1900 0 0 0
2019/11/08 18:11:00 BASE 3.77 219 4.48 200 -1.7 84 -4.0 302 0 998.5 NA 0.0000 9999 1710 0 0 0
2019/11/08 18:12:00 BASE 3.48 206 4.48 200 -1.7 85 -4.0 293 0 998.5 NA 0.0000 9999 1740 0 0 0
2019/11/08 18:13:00 BASE 3.65 201 5.71 218 -1.7 85 -3.9 289 0 998.5 NA 0.0000 9999 1570 0 0 0
2019/11/08 18:14:00 BASE 4.44 213 5.86 215 -1.7 85 -3.8 288 0 998.5 NA 0.0000 9999 1510 0 0 0
2019/11/08 18:15:00 BASE 5.38 222 6.17 220 -1.7 86 -3.8 290 0 998.5 NA 0.0000 9999 1480 0 0 0
2019/11/08 18:16:00 BASE 5.63 219 6.17 220 -1.7 86 -3.8 294 0 998.5 NA 0.0000 9999 1480 0 0 0
2019/11/08 18:17:00 BASE 5.49 214 6.17 220 -1.7 86 -3.8 300 0 998.5 NA 0.0000 9999 1350 0 0 0
2019/11/08 18:18:00 BASE 5.81 218 7.36 229 -1.7 86 -3.8 309 0 998.5 NA 0.0000 9999 1250 0 0 0
2019/11/08 18:19:00 BASE 5.81 235 7.36 229 -1.7 86 -3.7 326 0 998.5 NA 0.0000 9999 1210 0 0 0
2019/11/08 18:20:00 BASE 5.56 238 7.36 229 -1.7 86 -3.7 343 0 998.5 NA 0.0000 9999 1380 0 0 0
2019/11/08 18:21:00 BASE 6.06 229 8.54 222 -1.7 87 -3.6 361 0 998.5 NA 0.0000 9999 1410 0 0 0
2019/11/08 18:22:00 BASE 7.36 223 8.69 218 -1.7 87 -3.5 380 0 998.5 NA 0.0000 9999 1020 1640 0 0
2019/11/08 18:23:00 BASE 8.36 222 9.47 227 -1.7 88 -3.4 394 0 998.6 NA 0.0000 9999 950 0 0 0
2019/11/08 18:24:00 BASE 8.10 228 9.47 227 -1.8 89 -3.4 445 0 998.6 NA 0.0000 9999 980 0 0 0
2019/11/08 18:25:00 BASE 7.57 233 9.47 227 -1.8 90 -3.2 412 0 998.6 NA 0.0000 9999 980 0 0 0
2019/11/08 18:26:00 BASE 7.62 234 9.47 227 -1.8 90 -3.1 408 0 998.6 NA 0.0000 9999 950 0 0 0
2019/11/08 18:27:00 BASE 8.48 235 10.08 231 -1.8 91 -3.1 418 0 998.6 NA 0.0000 9999 1150 0 0 0
2019/11/08 18:28:00 BASE 9.83 233 10.91 233 -1.8 92 -3.0 431 0 998.6 NA 0.0000 9999 1350 0 0 0
2019/11/08 18:29:00 BASE 10.47 231 11.21 230 -1.8 92 -2.9 448 0 998.6 NA 0.0000 9999 1380 0 0 0
2019/11/08 18:30:00 BASE 9.94 229 11.21 230 -1.9 93 -2.9 464 0 998.6 NA 0.0000 9999 1210 0 0 0
2019/11/08 18:31:00 BASE 9.30 230 11.21 230 -2.0 93 -2.9 464 0 998.6 NA 0.0000 9999 1280 0 0 0
2019/11/08 18:32:00 BASE 9.17 232 11.21 230 -2.0 93 -2.9 448 0 998.7 NA 0.0000 9999 1410 0 0 0
2019/11/08 18:33:00 BASE 8.46 228 11.21 230 -2.0 94 -2.9 452 0 998.7 NA 0.0000 9999 1080 1770 20770 0
2019/11/08 18:34:00 BASE 8.84 226 11.21 230 -2.0 94 -2.8 481 0 998.7 NA 0.0000 9999 920 0 0 0
2019/11/08 18:35:00 BASE 10.08 226 11.78 222 -2.0 95 -2.8 527 0 998.7 NA 0.0000 9999 1050 0 0 0
2019/11/08 18:36:00 BASE 10.30 226 11.78 222 -2.1 95 -2.8 628 0 998.7 NA 0.0000 9999 1640 0 0 0
2019/11/08 18:37:00 BASE 9.60 231 11.78 222 -2.1 95 -2.8 458 0 998.8 NA 0.0000 9999 1610 0 0 0
2019/11/08 18:38:00 BASE 9.23 235 11.78 222 -2.2 95 -2.9 449 0 998.8 NA 0.0000 9999 1840 0 0 0
2019/11/08 18:39:00 BASE 8.98 236 11.78 222 -2.2 95 -2.9 475 0 998.8 NA 0.0000 9999 1670 0 0 0
2019/11/08 18:40:00 BASE 8.98 232 11.78 222 -2.2 95 -2.9 591 0 998.8 NA 0.0000 9999 1380 0 0 0
2019/11/08 18:41:00 BASE 9.39 229 11.78 222 -2.2 95 -2.9 754 0 998.8 NA 0.0000 9999 1480 0 0 0
2019/11/08 18:42:00 BASE 8.91 230 11.78 222 -2.2 95 -2.9 838 0 998.8 NA 0.0000 9999 1410 0 0 0
2019/11/08 18:43:00 BASE 8.35 230 11.78 222 -2.2 95 -2.9 656 0 998.8 NA 0.0000 9999 1440 0 0 0
2019/11/08 18:44:00 BASE 8.25 230 11.78 222 -2.2 95 -2.9 485 0 998.8 NA 0.0000 9999 1510 0 0 0
2019/11/08 18:45:00 BASE 8.75 232 11.11 226 -2.2 95 -2.9 545 0 998.8 NA 0.0000 9999 1610 0 0 0
2019/11/08 18:46:00 BASE 8.52 236 10.65 232 -2.2 95 -2.9 591 0 998.8 NA 0.0000 9999 1840 0 0 0
2019/11/08 18:47:01 BASE 7.86 236 10.65 232 -2.2 95 -2.9 598 0 998.8 NA 0.0000 9999 1540 1900 0 0
2019/11/08 18:48:00 BASE 8.64 235 10.34 232 -2.2 95 -2.9 969 0 998.8 NA 0.0000 9999 1570 2000 23890 0
2019/11/08 18:49:00 BASE 8.68 235 10.34 232 -2.2 95 -2.9 441 0 998.8 NA 0.0000 9999 1670 0 0 0
2019/11/08 18:50:00 BASE 7.45 235 10.34 232 -2.2 95 -2.8 403 0 998.9 NA 0.0000 9999 1770 0 0 0
2019/11/08 18:51:00 BASE 7.29 237 10.34 232 -2.2 95 -2.8 343 0 998.9 NA 0.0000 9999 1740 0 0 0
2019/11/08 18:52:00 BASE 7.87 237 10.34 232 -2.2 95 -2.9 324 0 998.9 NA 0.0000 9999 1800 0 0 0
2019/11/08 18:53:00 BASE 8.51 233 10.34 232 -2.2 95 -2.9 311 0 998.9 NA 0.0000 9999 1310 0 0 0
2019/11/08 18:54:00 BASE 8.94 226 10.34 232 -2.3 95 -3.0 304 0 998.9 NA 0.0000 9999 1310 0 0 0
2019/11/08 18:55:00 BASE 8.41 224 10.34 232 -2.4 95 -3.0 298 0 998.9 NA 0.0000 9999 1350 0 0 0
2019/11/08 18:56:00 BASE 7.70 221 10.34 232 -2.4 95 -3.1 290 0 999.0 NA 0.0000 9999 1250 0 0 0
2019/11/08 18:57:00 BASE 7.20 213 10.34 232 -2.4 95 -3.1 286 0 999.0 NA 0.0000 9999 1210 0 0 0
2019/11/08 18:58:00 BASE 6.44 216 9.57 232 -2.4 95 -3.2 287 0 999.0 NA 0.0000 9999 1020 0 0 0
2019/11/08 18:59:00 BASE 6.84 230 9.52 219 -2.4 94 -3.2 290 0 999.0 NA 0.0000 9999 950 0 0 0
2019/11/08 19:00:00 BASE 6.99 236 9.52 219 -2.4 94 -3.2 299 0 999.0 NA 0.0000 9999 890 0 0 0
2019/11/08 19:01:00 BASE 6.27 237 9.52 219 -2.4 94 -3.2 314 0 999.0 NA 0.0000 9999 850 0 0 0
2019/11/08 19:02:00 BASE 7.18 242 9.52 219 -2.4 94 -3.1 323 0 999.0 NA 0.0000 9999 920 0 0 0
2019/11/08 19:03:00 BASE 7.85 240 9.52 219 -2.4 95 -3.1 324 0 999.0 NA 0.0000 9999 1310 0 0 0
2019/11/08 19:04:00 BASE 7.17 239 9.00 245 -2.4 95 -3.1 321 0 999.0 NA 0.0000 9999 1350 0 0 0
2019/11/08 19:05:00 BASE 7.25 243 9.00 245 -2.4 95 -3.1 319 0 999.1 NA 0.0000 9999 1250 0 0 0
2019/11/08 19:06:00 BASE 7.50 239 9.00 245 -2.5 95 -3.1 319 0 999.1 NA 0.0000 9999 1120 0 0 0
2019/11/08 19:07:00 BASE 7.13 235 9.00 245 -2.5 95 -3.2 326 0 999.1 NA 0.0000 9999 1180 0 0 0
2019/11/08 19:08:00 BASE 6.97 239 9.00 245 -2.6 96 -3.2 336 0 999.1 NA 0.0000 9999 1280 0 0 0
2019/11/08 19:09:00 BASE 6.87 241 9.00 245 -2.6 96 -3.2 343 0 999.1 NA 0.0000 9999 1080 0 0 0
2019/11/08 19:10:00 BASE 6.88 236 9.00 245 -2.6 96 -3.2 349 0 999.1 NA 0.0000 9999 1120 0 0 0
2019/11/08 19:11:00 BASE 7.18 227 9.00 245 -2.7 96 -3.2 367 0 999.1 NA 0.0000 9999 1150 0 0 0
2019/11/08 19:12:00 BASE 6.86 230 8.95 247 -2.7 96 -3.3 348 0 999.1 NA 0.0000 9999 1150 22640 0 0
2019/11/08 19:13:00 BASE 6.32 240 8.95 247 -2.7 96 -3.3 321 0 999.1 NA 0.0000 9999 1050 0 0 0
2019/11/08 19:14:00 BASE 5.86 242 8.95 247 -2.7 96 -3.3 297 0 999.1 NA 0.0000 9999 1050 0 0 0
2019/11/08 19:15:00 BASE 5.66 247 8.33 219 -2.7 96 -3.3 276 0 999.1 NA 0.0000 9999 1020 0 0 0
2019/11/08 19:16:00 BASE 5.52 248 8.33 219 -2.7 95 -3.3 262 0 999.1 NA 0.0000 9999 1050 0 0 0
2019/11/08 19:17:00 BASE 5.04 237 8.33 219 -2.7 95 -3.4 255 0 999.1 NA 0.0000 9999 1080 0 0 0
2019/11/08 19:18:00 BASE 4.68 228 8.33 219 -2.8 95 -3.5 252 0 999.1 NA 0.0000 9999 1050 0 0 0
2019/11/08 19:19:00 BASE 5.43 229 8.33 219 -2.8 94 -3.5 250 0 999.1 NA 0.0000 9999 1150 0 0 0
2019/11/08 19:20:00 BASE 6.48 230 8.03 221 -2.8 94 -3.6 246 0 999.1 NA 0.0000 9999 1080 0 0 0
2019/11/08 19:21:00 BASE 6.60 231 7.25 234 -2.8 94 -3.7 245 0 999.1 NA 0.0000 9999 1050 0 0 0
2019/11/08 19:22:00 BASE 6.63 235 7.61 242 -2.8 94 -3.7 247 0 999.2 NA 0.0000 9999 1020 0 0 0
2019/11/08 19:23:00 BASE 6.46 246 7.61 242 -2.8 94 -3.7 249 0 999.2 NA 0.0000 9999 1050 0 0 0
2019/11/08 19:24:00 BASE 5.80 254 7.61 242 -2.8 94 -3.7 248 0 999.2 NA 0.0000 9999 980 0 0 0
2019/11/08 19:25:00 BASE 5.31 246 7.61 242 -2.8 94 -3.7 244 0 999.2 NA 0.0000 9999 920 0 0 0
2019/11/08 19:26:00 BASE 6.21 232 7.72 227 -2.8 94 -3.6 245 0 999.2 NA 0.0000 9999 950 0 0 0
2019/11/08 19:27:00 BASE 7.04 228 8.80 229 -2.8 94 -3.6 255 0 999.2 NA 0.0000 9999 950 0 0 0
2019/11/08 19:28:00 BASE 7.04 230 8.80 229 -2.8 94 -3.7 262 0 999.2 NA 0.0000 9999 1020 0 0 0
2019/11/08 19:29:00 BASE 6.99 231 8.80 229 -2.8 94 -3.6 255 0 999.2 NA 0.0000 9999 1120 0 0 0
2019/11/08 19:30:00 BASE 6.61 233 8.80 229 -2.8 94 -3.6 239 0 999.2 NA 0.0000 9999 1020 0 0 0
2019/11/08 19:31:00 BASE 6.25 237 8.80 229 -2.8 95 -3.6 228 0 999.2 NA 0.0000 9999 980 22670 23160 0
2019/11/08 19:32:00 BASE 5.26 241 8.80 229 -2.8 95 -3.5 225 0 999.2 NA 0.0000 9999 980 0 0 0
2019/11/08 19:33:00 BASE 4.35 239 8.80 229 -2.8 95 -3.5 222 0 999.2 NA 0.0000 9999 980 0 0 0
2019/11/08 19:34:00 BASE 4.76 225 8.80 229 -2.9 95 -3.6 220 0 999.2 NA 0.0000 9999 1120 0 0 0
2019/11/08 19:35:00 BASE 4.85 216 8.80 229 -3.0 95 -3.6 222 0 999.2 NA 0.0000 9999 1080 0 0 0
2019/11/08 19:36:00 BASE 4.70 215 8.80 229 -3.0 95 -3.7 225 0 999.2 NA 0.0000 9999 1050 0 0 0
2019/11/08 19:37:00 BASE 5.25 216 8.54 235 -3.0 95 -3.7 232 0 999.2 NA 0.0000 9999 1120 0 0 0
2019/11/08 19:38:00 BASE 5.55 216 7.15 240 -2.9 95 -3.6 245 0 999.2 NA 0.0000 9999 1120 0 0 0
2019/11/08 19:39:00 BASE 5.67 218 7.15 240 -2.9 95 -3.6 254 0 999.2 NA 0.0000 9999 1080 0 0 0
2019/11/08 19:40:00 BASE 6.28 224 7.31 225 -2.8 95 -3.5 249 0 999.0 NA 0.0000 9999 1120 22380 0 0
2019/11/08 19:41:00 BASE 5.95 224 7.97 226 -2.8 95 -3.5 231 0 999.3 NA 0.0000 9999 1080 0 0 0
2019/11/08 19:42:00 BASE 4.14 216 7.97 226 -2.9 95 -3.6 215 0 999.4 NA 0.0000 9999 1050 0 0 0
2019/11/08 19:43:00 BASE 3.22 210 7.97 226 -2.9 95 -3.6 204 0 999.4 NA 0.0000 9999 1020 0 0 0
2019/11/08 19:44:00 BASE 3.66 219 7.97 226 -2.9 95 -3.6 197 0 999.3 NA 0.0000 9999 980 0 0 0
2019/11/08 19:45:00 BASE 3.81 229 7.97 226 -3.0 95 -3.7 193 0 999.4 NA 0.0000 9999 980 0 0 0
2019/11/08 19:46:00 BASE 3.52 231 7.97 226 -3.0 95 -3.6 192 0 999.4 NA 0.0000 9999 950 0 0 0
2019/11/08 19:47:00 BASE 3.44 231 7.97 226 -2.9 95 -3.6 193 0 999.4 NA 0.0000 9999 950 0 0 0
2019/11/08 19:48:00 BASE 4.28 228 7.97 226 -2.9 95 -3.5 195 0 999.4 NA 0.0000 9999 890 0 0 0
2019/11/08 19:49:00 BASE 5.63 227 7.97 226 -2.9 95 -3.5 201 0 999.4 NA 0.0000 9999 890 19290 21000 0
2019/11/08 19:50:00 BASE 5.89 229 7.97 226 -2.8 96 -3.4 212 0 999.4 NA 0.0000 9999 890 0 0 0
2019/11/08 19:51:00 BASE 5.73 227 6.74 231 -2.8 96 -3.4 221 0 999.4 NA 0.0000 9999 980 0 0 0
2019/11/08 19:52:00 BASE 5.88 218 6.74 231 -2.8 96 -3.3 228 0 999.4 NA 0.0000 9999 1120 0 0 0
2019/11/08 19:53:00 BASE 6.02 219 6.74 231 -2.8 96 -3.3 235 0 999.4 NA 0.0000 9999 1020 0 0 0
2019/11/08 19:54:00 BASE 5.72 234 6.74 231 -2.8 96 -3.4 239 0 999.4 NA 0.0000 9999 1020 0 0 0
2019/11/08 19:55:00 BASE 4.20 237 6.74 231 -2.9 96 -3.4 235 0 999.4 NA 0.0000 9999 980 0 0 0
2019/11/08 19:56:00 BASE 3.29 237 6.74 231 -2.9 96 -3.5 227 0 999.4 NA 0.0000 9999 1020 0 0 0
2019/11/08 19:57:00 BASE 3.76 244 6.74 231 -2.9 96 -3.5 223 0 999.5 NA 0.0000 9999 1050 0 0 0
2019/11/08 19:58:00 BASE 4.89 247 7.46 234 -3.0 96 -3.5 222 0 999.5 NA 0.0000 9999 1050 0 0 0
2019/11/08 19:59:00 BASE 5.61 242 7.46 234 -2.9 96 -3.5 224 0 999.5 NA 0.0000 9999 1050 0 0 0
2019/11/08 20:00:00 BASE 6.08 234 7.46 244 -2.9 96 -3.4 227 0 999.5 NA 0.0000 9999 1120 0 0 0
2019/11/08 20:01:00 BASE 6.76 230 7.61 230 -2.9 96 -3.4 227 0 999.5 NA 0.0000 9999 1120 0 0 0
2019/11/08 20:02:00 BASE 6.79 232 7.61 230 -2.9 96 -3.5 223 0 999.5 NA 0.0000 9999 1120 22840 0 0
2019/11/08 20:03:00 BASE 6.39 238 7.61 230 -2.9 95 -3.5 219 0 999.5 NA 0.0000 9999 1120 0 0 0
2019/11/08 20:04:00 BASE 5.28 243 7.61 230 -2.9 95 -3.6 215 0 999.6 NA 0.0000 9999 1050 19720 0 0
2019/11/08 20:05:00 BASE 3.80 249 7.61 230 -3.0 95 -3.6 212 0 999.6 NA 0.0000 9999 1050 0 0 0
2019/11/08 20:06:00 BASE 3.46 247 7.61 230 -3.0 95 -3.7 206 0 999.6 NA 0.0000 9999 1080 0 0 0
2019/11/08 20:07:00 BASE 3.57 226 7.61 230 -3.0 95 -3.7 201 0 999.6 NA 0.0000 9999 1080 0 0 0
2019/11/08 20:08:00 BASE 3.33 219 7.61 230 -3.0 95 -3.8 200 0 999.6 NA 0.0000 9999 980 0 0 0
2019/11/08 20:09:00 BASE 3.35 228 7.61 230 -3.0 94 -3.8 203 0 999.6 NA 0.0000 9999 1020 0 0 0
2019/11/08 20:10:00 BASE 3.79 221 7.61 230 -3.0 94 -3.8 208 0 999.6 NA 0.0000 9999 980 0 0 0
2019/11/08 20:11:00 BASE 4.04 217 7.25 236 -3.0 94 -3.8 213 0 999.6 NA 0.0000 9999 980 0 0 0
2019/11/08 20:12:00 BASE 3.79 224 7.05 232 -3.0 95 -3.7 219 0 999.6 NA 0.0000 9999 1020 0 0 0
2019/11/08 20:13:00 BASE 4.11 233 5.81 247 -2.9 95 -3.6 223 0 999.6 NA 0.0000 9999 1020 0 0 0
2019/11/08 20:14:00 BASE 4.52 235 5.56 222 -2.9 95 -3.6 225 0 999.6 NA 0.0000 9999 1050 22470 0 0
2019/11/08 20:15:00 BASE 5.10 230 7.72 235 -2.9 95 -3.6 225 0 999.6 NA 0.0000 9999 1120 0 0 0
2019/11/08 20:16:00 BASE 6.21 233 7.72 235 -2.9 95 -3.6 223 0 999.6 NA 0.0000 9999 1120 0 0 0
2019/11/08 20:17:00 BASE 7.48 236 8.69 228 -2.9 95 -3.6 222 0 999.6 NA 0.0000 9999 1120 0 0 0
2019/11/08 20:18:00 BASE 8.03 232 8.69 228 -2.9 95 -3.6 224 0 999.7 NA 0.0000 9999 1120 0 0 0
2019/11/08 20:19:00 BASE 7.13 231 8.69 228 -2.9 95 -3.6 226 0 999.7 NA 0.0000 9999 1150 0 0 0
2019/11/08 20:20:00 BASE 7.32 230 8.95 232 -2.9 95 -3.6 225 0 999.6 NA 0.0000 9999 1080 0 0 0
2019/11/08 20:21:00 BASE 7.82 228 8.95 232 -2.9 95 -3.6 225 0 999.7 NA 0.0000 9999 1120 0 0 0
2019/11/08 20:22:00 BASE 6.87 225 8.95 232 -3.0 95 -3.7 225 0 999.7 NA 0.0000 9999 1080 0 0 0
2019/11/08 20:23:00 BASE 5.80 218 8.95 232 -3.0 95 -3.7 223 0 999.6 NA 0.0000 9999 1050 0 0 0
2019/11/08 20:24:00 BASE 5.05 215 8.95 232 -3.0 95 -3.7 218 0 999.6 NA 0.0000 9999 1080 0 0 0
2019/11/08 20:25:00 BASE 4.37 214 8.95 232 -3.0 95 -3.7 212 0 999.7 NA 0.0000 9999 1080 0 0 0
2019/11/08 20:26:00 BASE 4.17 214 8.95 232 -3.0 95 -3.7 210 0 999.7 NA 0.0000 9999 1120 0 0 0
2019/11/08 20:27:00 BASE 4.35 222 8.95 232 -3.0 95 -3.7 209 0 999.7 NA 0.0000 9999 1150 0 0 0
2019/11/08 20:28:00 BASE 4.13 231 8.95 232 -3.0 95 -3.7 207 0 999.7 NA 0.0000 9999 1180 0 0 0
2019/11/08 20:29:00 BASE 4.05 222 8.95 232 -3.0 95 -3.7 203 0 999.7 NA 0.0000 9999 1150 22180 23430 0
2019/11/08 20:30:00 BASE 3.77 209 7.97 230 -3.0 95 -3.6 197 0 999.7 NA 0.0000 9999 1150 0 0 0
2019/11/08 20:31:00 BASE 3.43 201 6.84 220 -3.0 95 -3.6 187 0 999.7 NA 0.0000 9999 1080 0 0 0
2019/11/08 20:32:00 BASE 3.34 198 6.17 220 -3.0 95 -3.6 178 0 999.7 NA 0.0000 9999 1150 0 0 0
2019/11/08 20:33:00 BASE 3.08 211 5.35 219 -3.0 95 -3.7 172 0 999.7 NA 0.0000 9999 1120 0 0 0
2019/11/08 20:34:00 BASE 2.82 231 5.35 219 -3.0 95 -3.7 167 0 999.7 NA 0.0000 9999 1080 0 0 0
2019/11/08 20:35:00 BASE 3.47 238 5.35 219 -3.0 95 -3.6 165 0 999.7 NA 0.0000 9999 980 0 0 0
2019/11/08 20:36:00 BASE 4.38 235 5.45 238 -2.9 95 -3.6 167 0 999.7 NA 0.0000 9999 1020 0 0 0
2019/11/08 20:37:00 BASE 5.60 232 7.51 221 -2.9 95 -3.6 168 0 999.7 NA 0.0000 9999 1050 0 0 0
2019/11/08 20:38:00 BASE 6.99 234 8.08 236 -2.8 95 -3.5 168 0 999.7 NA 0.0000 9999 1120 0 0 0
2019/11/08 20:39:00 BASE 6.66 239 8.08 236 -2.8 95 -3.5 168 0 999.7 NA 0.0000 9999 1080 0 0 0
2019/11/08 20:40:00 BASE 6.48 240 8.08 233 -2.8 95 -3.5 167 0 999.7 NA 0.0000 9999 1050 0 0 0
2019/11/08 20:41:00 BASE 6.84 236 8.08 233 -2.9 95 -3.5 166 0 999.7 NA 0.0000 9999 1120 0 0 0
2019/11/08 20:42:00 BASE 6.43 232 8.08 233 -2.9 95 -3.6 163 0 999.7 NA 0.0000 9999 1180 21820 23070 0
2019/11/08 20:43:00 BASE 5.55 234 8.08 233 -2.9 95 -3.6 158 0 999.7 NA 0.0000 9999 1080 0 0 0
2019/11/08 20:44:00 BASE 5.26 238 8.08 233 -2.9 95 -3.6 152 0 999.7 NA 0.0000 9999 1180 0 0 0
2019/11/08 20:45:00 BASE 5.57 239 8.08 233 -3.0 95 -3.6 147 0 999.7 NA 0.0000 9999 1020 0 0 0
2019/11/08 20:46:00 BASE 5.58 249 8.23 254 -3.0 96 -3.6 146 0 999.7 NA 0.0000 9999 920 0 0 0
2019/11/08 20:47:00 BASE 6.49 252 8.64 248 -3.0 96 -3.6 150 0 999.7 NA 0.0000 9999 950 0 0 0
2019/11/08 20:48:00 BASE 7.11 247 8.64 248 -3.0 96 -3.6 156 0 999.7 NA 0.0000 9999 1020 0 0 0
2019/11/08 20:49:00 BASE 6.90 249 8.64 248 -3.0 96 -3.5 161 0 999.7 NA 0.0000 9999 1050 0 0 0
2019/11/08 20:50:00 BASE 6.86 245 8.64 248 -2.9 96 -3.5 166 0 999.7 NA 0.0000 9999 1020 0 0 0
2019/11/08 20:51:00 BASE 6.74 240 8.64 248 -2.9 96 -3.5 173 0 999.7 NA 0.0000 9999 1020 0 0 0
2019/11/08 20:52:00 BASE 6.99 234 8.64 248 -2.9 96 -3.5 176 0 999.7 NA 0.0000 9999 1050 0 0 0
2019/11/08 20:53:00 BASE 7.54 231 9.62 237 -2.9 96 -3.5 172 0 999.7 NA 0.0000 9999 1150 0 0 0
2019/11/08 20:54:00 BASE 7.64 234 9.62 237 -3.0 96 -3.5 165 0 999.8 NA 0.0000 9999 1120 0 0 0
2019/11/08 20:55:00 BASE 6.63 232 9.62 237 -3.1 96 -3.6 163 0 999.8 NA 0.0000 9999 1120 0 0 0
2019/11/08 20:56:00 BASE 6.29 230 9.62 237 -3.1 96 -3.6 167 0 999.8 NA 0.0000 9999 1050 0 0 0
2019/11/08 20:57:00 BASE 7.34 227 9.62 237 -3.1 96 -3.7 173 0 999.8 NA 0.0000 9999 1080 0 0 0
2019/11/08 20:58:00 BASE 7.79 225 9.62 237 -3.1 96 -3.7 173 0 999.8 NA 0.0000 9999 1120 0 0 0
2019/11/08 20:59:00 BASE 7.05 224 9.62 237 -3.2 96 -3.7 166 0 999.8 NA 0.0000 9999 1150 0 0 0
2019/11/08 21:00:00 BASE 6.74 218 9.62 237 -3.1 96 -3.7 161 0 999.8 NA 0.0000 9999 1120 20800 22900 0
2019/11/08 21:01:00 BASE 6.44 211 9.62 237 -3.2 96 -3.8 160 0 999.8 NA 0.0000 9999 1050 0 0 0
2019/11/08 21:02:00 BASE 5.86 211 9.62 237 -3.2 96 -3.8 160 0 999.8 NA 0.0000 9999 1020 0 0 0
2019/11/08 21:03:00 BASE 5.93 213 8.85 223 -3.2 95 -3.8 161 0 999.7 NA 0.0000 9999 980 0 0 0
2019/11/08 21:04:00 BASE 5.86 228 8.85 223 -3.1 95 -3.8 162 0 999.8 NA 0.0000 9999 980 0 0 0
2019/11/08 21:05:00 BASE 6.29 239 8.85 223 -3.1 95 -3.8 165 0 999.8 NA 0.0000 9999 980 22800 23750 0
2019/11/08 21:06:00 BASE 6.85 238 8.85 223 -3.1 95 -3.8 164 0 999.8 NA 0.0000 9999 1150 0 0 0
2019/11/08 21:07:00 BASE 6.51 234 8.85 223 -3.0 95 -3.7 163 0 999.8 NA 0.0000 9999 1180 0 0 0
2019/11/08 21:08:00 BASE 6.26 223 8.39 239 -3.0 95 -3.7 167 0 999.8 NA 0.0000 9999 1150 0 0 0
2019/11/08 21:09:00 BASE 6.35 218 8.39 239 -3.1 96 -3.7 172 0 999.8 NA 0.0000 9999 1150 0 0 0
2019/11/08 21:10:00 BASE 6.47 216 8.39 239 -3.1 96 -3.7 172 0 999.8 NA 0.0000 9999 1150 0 0 0
2019/11/08 21:11:00 BASE 7.14 217 8.39 239 -3.1 96 -3.7 168 0 999.8 NA 0.0000 9999 1150 0 0 0
2019/11/08 21:12:00 BASE 7.23 215 8.39 239 -3.2 96 -3.8 163 0 999.9 NA 0.0000 9999 1180 0 0 0
2019/11/08 21:13:00 BASE 6.74 216 8.39 239 -3.2 95 -3.8 160 0 999.9 NA 0.0000 9999 1250 0 0 0
2019/11/08 21:14:00 BASE 6.40 222 8.39 239 -3.2 95 -3.9 160 0 999.9 NA 0.0000 9999 1280 0 0 0
2019/11/08 21:15:00 BASE 5.96 230 8.39 239 -3.2 95 -3.9 158 0 999.9 NA 0.0000 9999 1120 0 0 0
2019/11/08 21:16:00 BASE 5.97 233 7.97 218 -3.2 95 -3.9 151 0 999.9 NA 0.0000 9999 1210 0 0 0
2019/11/08 21:17:00 BASE 5.85 233 7.97 218 -3.2 95 -3.9 143 0 999.9 NA 0.0000 9999 1280 0 0 0
2019/11/08 21:18:00 BASE 5.74 230 7.97 218 -3.3 95 -3.9 136 0 999.9 NA 0.0000 9999 1150 0 0 0
2019/11/08 21:19:00 BASE 6.52 220 7.97 218 -3.3 95 -3.9 133 0 999.9 NA 0.0000 9999 1150 0 0 0
2019/11/08 21:20:00 BASE 6.42 209 7.97 218 -3.3 95 -4.0 135 0 1000.0 NA 0.0000 9999 1310 0 0 0
2019/11/08 21:21:00 BASE 5.30 208 7.82 205 -3.3 95 -4.0 138 0 1000.1 NA 0.0000 9999 1350 0 0 0
2019/11/08 21:22:00 BASE 4.89 211 7.82 205 -3.3 94 -4.1 138 0 1000.1 NA 0.0000 9999 1280 0 0 0
2019/11/08 21:23:00 BASE 4.85 208 7.82 205 -3.3 94 -4.1 134 0 1000.1 NA 0.0000 9999 1120 0 0 0
2019/11/08 21:24:00 BASE 5.27 211 7.82 205 -3.3 94 -4.1 131 0 1000.1 NA 0.0000 9999 1180 20310 0 0
2019/11/08 21:25:00 BASE 5.12 222 7.82 205 -3.3 94 -4.2 130 0 1000.1 NA 0.0000 9999 1150 0 0 0
2019/11/08 21:26:00 BASE 3.73 233 7.82 205 -3.3 94 -4.2 129 0 1000.1 NA 0.0000 9999 1150 0 0 0
2019/11/08 21:27:00 BASE 3.33 238 7.82 205 -3.3 94 -4.1 131 0 1000.1 NA 0.0000 9999 1120 0 0 0
2019/11/08 21:28:00 BASE 3.95 240 7.82 205 -3.3 94 -4.1 133 0 1000.1 NA 0.0000 9999 1180 0 0 0
2019/11/08 21:29:00 BASE 4.15 238 6.69 203 -3.3 94 -4.2 131 0 1000.1 NA 0.0000 9999 1210 0 0 0
2019/11/08 21:30:00 BASE 3.89 230 6.64 224 -3.3 94 -4.1 126 0 1000.0 NA 0.0000 9999 1180 23030 0 0
2019/11/08 21:31:00 BASE 4.05 227 6.64 224 -3.3 94 -4.1 124 0 1000.2 NA 0.0000 9999 1310 0 0 0
2019/11/08 21:32:00 BASE 4.37 229 6.64 224 -3.3 94 -4.1 122 0 1000.2 NA 0.0000 9999 1120 0 0 0
2019/11/08 21:33:00 BASE 4.67 229 6.64 224 -3.3 94 -4.1 120 0 1000.2 NA 0.0000 9999 1080 0 0 0
2019/11/08 21:34:00 BASE 4.84 229 6.07 223 -3.3 94 -4.1 122 0 1000.2 NA 0.0000 9999 1210 0 0 0
2019/11/08 21:35:00 BASE 5.62 233 7.05 244 -3.3 94 -4.1 124 0 1000.2 NA 0.0000 9999 1150 0 0 0
2019/11/08 21:36:00 BASE 6.58 235 7.05 244 -3.3 94 -4.1 127 0 1000.2 NA 0.0000 9999 1150 0 0 0
2019/11/08 21:37:00 BASE 6.13 234 7.05 244 -3.3 94 -4.1 128 0 1000.1 NA 0.0000 9999 1210 0 0 0
2019/11/08 21:38:00 BASE 5.56 236 7.05 244 -3.3 95 -4.0 127 0 1000.1 NA 0.0000 9999 1180 0 0 0
2019/11/08 21:39:00 BASE 5.92 242 7.51 251 -3.3 95 -4.0 124 0 1000.1 NA 0.0000 9999 1280 0 0 0
2019/11/08 21:40:00 BASE 6.53 247 8.08 251 -3.3 95 -4.0 119 0 1000.1 NA 0.0000 9999 1250 0 0 0
2019/11/08 21:41:00 BASE 6.32 249 8.08 251 -3.3 95 -3.9 116 0 1000.1 NA 0.0000 9999 1210 0 0 0
2019/11/08 21:42:00 BASE 5.44 250 8.08 251 -3.2 95 -4.0 115 0 1000.1 NA 0.0000 9999 1120 0 0 0
2019/11/08 21:43:00 BASE 5.25 247 8.08 251 -3.2 95 -4.0 116 0 1000.2 NA 0.0000 9999 1150 0 0 0
2019/11/08 21:44:00 BASE 5.08 242 8.08 251 -3.2 94 -4.0 120 0 1000.2 NA 0.0000 9999 1120 0 0 0
2019/11/08 21:45:00 BASE 4.65 233 8.08 251 -3.3 94 -4.1 121 0 1000.2 NA 0.0000 9999 1250 0 0 0
2019/11/08 21:46:00 BASE 5.61 226 8.08 251 -3.3 94 -4.1 116 0 1000.2 NA 0.0000 9999 1250 0 0 0
2019/11/08 21:47:00 BASE 6.48 221 8.08 251 -3.3 94 -4.1 111 0 1000.2 NA 0.0000 9999 1280 0 0 0
2019/11/08 21:48:00 BASE 6.33 222 8.08 251 -3.3 94 -4.1 109 0 1000.2 NA 0.0000 9999 1280 0 0 0
2019/11/08 21:49:00 BASE 5.91 223 8.08 251 -3.3 94 -4.1 106 0 1000.2 NA 0.0000 9999 1310 0 0 0
2019/11/08 21:50:00 BASE 5.42 222 7.15 214 -3.3 94 -4.1 103 0 1000.2 NA 0.0000 9999 1280 0 0 0
2019/11/08 21:51:00 BASE 4.80 227 7.15 214 -3.3 94 -4.1 101 0 1000.1 NA 0.0000 9999 1150 0 0 0
2019/11/08 21:52:00 BASE 4.55 229 7.15 214 -3.3 94 -4.1 101 0 1000.1 NA 0.0000 9999 1210 0 0 0
2019/11/08 21:53:00 BASE 4.70 222 7.15 214 -3.3 94 -4.1 101 0 1000.1 NA 0.0000 9999 1120 0 0 0
2019/11/08 21:54:00 BASE 4.47 221 7.15 214 -3.3 94 -4.1 101 0 1000.1 NA 0.0000 9999 1080 0 0 0
2019/11/08 21:55:00 BASE 4.02 233 7.15 214 -3.3 94 -4.1 101 0 1000.1 NA 0.0000 9999 1180 0 0 0
2019/11/08 21:56:00 BASE 3.49 240 7.15 214 -3.3 94 -4.1 103 0 1000.1 NA 0.0000 9999 1150 0 0 0
2019/11/08 21:57:00 BASE 3.15 246 6.94 223 -3.3 94 -4.1 103 0 1000.1 NA 0.0000 9999 1210 0 0 0
2019/11/08 21:58:00 BASE 2.70 249 6.43 219 -3.3 94 -4.1 105 0 1000.1 NA 0.0000 9999 1180 0 0 0
2019/11/08 21:59:00 BASE 1.84 253 6.02 220 -3.3 94 -4.2 103 0 1000.1 NA 0.0000 9999 1180 0 0 0
2019/11/08 22:00:00 BASE 1.71 260 5.30 217 -3.3 94 -4.1 100 0 1000.1 NA 0.0000 9999 1250 0 0 0
2019/11/08 22:01:00 BASE 2.21 266 5.30 217 -3.3 94 -4.1 99 0 1000.1 NA 0.0000 9999 1120 0 0 0
2019/11/08 22:02:00 BASE 2.69 264 5.30 217 -3.3 94 -4.1 97 0 1000.1 NA 0.0000 9999 1120 0 0 0
2019/11/08 22:03:00 BASE 2.97 253 4.84 227 -3.3 94 -4.1 94 0 1000.1 NA 0.0000 9999 1080 0 0 0
2019/11/08 22:04:00 BASE 2.81 250 4.32 239 -3.2 94 -4.1 92 0 1000.1 NA 0.0000 9999 1120 0 0 0
2019/11/08 22:05:00 BASE 2.46 250 3.40 257 -3.2 94 -4.1 94 0 1000.1 NA 0.0000 9999 1080 0 0 0
2019/11/08 22:06:00 BASE 2.52 263 3.40 257 -3.2 94 -4.1 95 0 1000.1 NA 0.0000 9999 1050 0 0 0
2019/11/08 22:07:00 BASE 2.51 281 3.40 257 -3.2 94 -4.0 95 0 1000.1 NA 0.0000 9999 1120 0 0 0
2019/11/08 22:08:00 BASE 2.07 281 3.40 257 -3.2 94 -4.0 94 0 1000.1 NA 0.0000 9999 1210 0 0 0
2019/11/08 22:09:00 BASE 2.52 256 4.78 223 -3.1 94 -4.0 92 0 1000.1 NA 0.0000 9999 1180 0 0 0
2019/11/08 22:10:00 BASE 3.71 227 5.71 233 -3.1 94 -3.9 90 0 1000.1 NA 0.0000 9999 1150 0 0 0
2019/11/08 22:11:00 BASE 4.64 217 5.71 233 -3.1 94 -3.9 90 0 1000.1 NA 0.0000 9999 1150 1610 0 0
2019/11/08 22:12:01 BASE 4.62 222 5.71 233 -3.1 94 -3.8 90 0 1000.1 NA 0.0000 9999 1540 0 0 0
2019/11/08 22:13:00 BASE 4.17 233 5.71 233 -3.1 95 -3.8 90 0 1000.1 NA 0.0000 9999 1410 0 0 0
2019/11/08 22:14:00 BASE 4.17 239 5.71 233 -3.1 95 -3.8 90 0 1000.1 NA 0.0000 9999 1440 0 0 0
2019/11/08 22:15:00 BASE 4.42 240 5.71 233 -3.1 95 -3.8 88 0 1000.1 NA 0.0000 9999 1380 0 0 0
2019/11/08 22:16:00 BASE 4.64 239 5.71 233 -3.1 95 -3.8 85 0 1000.1 NA 0.0000 9999 1310 0 0 0
2019/11/08 22:17:00 BASE 4.42 236 5.71 233 -3.1 95 -3.9 83 0 1000.1 NA 0.0000 9999 1310 0 0 0
2019/11/08 22:18:00 BASE 3.94 235 5.71 233 -3.2 95 -3.9 82 0 1000.1 NA 0.0000 9999 1350 0 0 0
2019/11/08 22:19:00 BASE 3.71 232 5.71 233 -3.2 94 -4.0 81 0 1000.1 NA 0.0000 9999 1280 22410 0 0
2019/11/08 22:20:00 BASE 3.81 230 5.56 220 -3.2 94 -4.0 80 0 1000.1 NA 0.0000 9999 1250 0 0 0
2019/11/08 22:21:00 BASE 3.61 232 5.09 233 -3.2 94 -4.0 80 0 1000.1 NA 0.0000 9999 1150 0 0 0
2019/11/08 22:22:00 BASE 2.82 224 5.09 233 -3.2 94 -4.0 79 0 1000.1 NA 0.0000 9999 1120 0 0 0
2019/11/08 22:23:00 BASE 2.11 212 5.09 233 -3.2 94 -4.1 77 0 1000.1 NA 0.0000 9999 1120 0 0 0
2019/11/08 22:24:00 BASE 1.90 208 5.09 233 -3.2 94 -4.0 75 0 1000.1 NA 0.0000 9999 1120 0 0 0
2019/11/08 22:25:00 BASE 1.70 210 5.09 233 -3.1 94 -4.0 73 0 1000.1 NA 0.0000 9999 1150 0 0 0
2019/11/08 22:26:00 BASE 1.54 221 4.78 239 -3.1 94 -4.0 72 0 1000.1 NA 0.0000 9999 1050 0 0 0
2019/11/08 22:27:00 BASE 1.82 242 4.32 226 -3.1 94 -3.9 70 0 1000.1 NA 0.0000 9999 1020 0 0 0
2019/11/08 22:28:00 BASE 2.30 253 4.32 226 -3.1 94 -3.9 70 0 1000.2 NA 0.0000 9999 1050 0 0 0
2019/11/08 22:29:00 BASE 2.98 241 4.48 226 -3.1 94 -3.9 68 0 1000.2 NA 0.0000 9999 1050 0 0 0
2019/11/08 22:30:00 BASE 3.84 228 4.89 224 -3.1 94 -3.9 66 0 1000.2 NA 0.0000 9999 1050 0 0 0
2019/11/08 22:31:00 BASE 4.94 222 6.69 218 -3.1 94 -4.0 64 0 1000.3 NA 0.0000 9999 1150 0 0 0
2019/11/08 22:32:00 BASE 6.01 219 7.82 215 -3.2 94 -4.0 65 0 1000.2 NA 0.0000 9999 1440 0 0 0
2019/11/08 22:33:00 BASE 6.92 215 8.39 215 -3.2 94 -4.0 67 0 1000.3 NA 0.0000 9999 1510 0 0 0
2019/11/08 22:34:00 BASE 6.81 208 8.39 215 -3.2 94 -4.0 70 0 1000.3 NA 0.0000 9999 1410 0 0 0
2019/11/08 22:35:00 BASE 6.42 201 8.39 215 -3.2 94 -4.0 75 0 1000.3 NA 0.0000 9999 1350 0 0 0
2019/11/08 22:36:00 BASE 6.59 200 8.39 215 -3.2 94 -4.0 80 0 1000.2 NA 0.0000 9999 1350 0 0 0
2019/11/08 22:37:00 BASE 6.99 205 8.95 211 -3.2 94 -4.0 82 0 1000.3 NA 0.0000 9999 1350 0 0 0
2019/11/08 22:38:00 BASE 7.75 209 8.95 211 -3.1 94 -4.0 82 0 1000.3 NA 0.0000 9999 1440 0 0 0
2019/11/08 22:39:00 BASE 7.79 206 8.95 211 -3.1 94 -4.0 82 0 1000.3 NA 0.0000 9999 1640 0 0 0
2019/11/08 22:40:00 BASE 7.14 206 8.95 211 -3.1 94 -4.0 79 0 1000.3 NA 0.0000 9999 1570 0 0 0
2019/11/08 22:41:00 BASE 6.46 217 8.95 211 -3.1 93 -4.0 74 0 1000.3 NA 0.0000 9999 1380 0 0 0
2019/11/08 22:42:00 BASE 5.98 221 8.95 211 -3.1 93 -4.0 70 0 1000.3 NA 0.0000 9999 1440 0 0 0
2019/11/08 22:43:00 BASE 7.27 212 9.36 209 -3.1 93 -4.1 68 0 1000.3 NA 0.0000 9999 1350 0 0 0
2019/11/08 22:44:00 BASE 8.69 212 9.36 209 -3.2 93 -4.2 66 0 1000.3 NA 0.0000 9999 1440 0 0 0
2019/11/08 22:45:00 BASE 8.14 217 9.36 209 -3.2 92 -4.2 67 0 1000.4 NA 0.0000 9999 1440 0 0 0
2019/11/08 22:46:00 BASE 7.25 212 9.36 209 -3.2 92 -4.3 68 0 1000.4 NA 0.0000 9999 1510 22930 0 0
2019/11/08 22:47:00 BASE 7.36 207 9.36 209 -3.2 92 -4.3 65 0 1000.3 NA 0.0000 9999 1510 0 0 0
2019/11/08 22:48:00 BASE 7.92 204 9.36 209 -3.2 92 -4.3 60 0 1000.4 NA 0.0000 9999 1410 0 0 0
2019/11/08 22:49:00 BASE 7.59 196 9.36 209 -3.2 92 -4.3 58 0 1000.4 NA 0.0000 9999 1480 0 0 0
2019/11/08 22:50:00 BASE 7.02 196 9.36 209 -3.2 92 -4.3 59 0 1000.4 NA 0.0000 9999 1410 0 0 0
2019/11/08 22:51:00 BASE 6.59 201 9.36 209 -3.2 92 -4.3 60 0 1000.4 NA 0.0000 9999 1480 0 0 0
2019/11/08 22:52:00 BASE 6.22 198 9.36 209 -3.2 92 -4.4 57 0 1000.4 NA 0.0000 9999 1440 0 0 0
2019/11/08 22:53:00 BASE 6.26 197 9.11 215 -3.2 91 -4.4 56 0 1000.4 NA 0.0000 9999 1510 0 0 0
2019/11/08 22:54:00 BASE 7.24 202 8.85 210 -3.2 91 -4.4 57 0 1000.4 NA 0.0000 9999 1440 0 0 0
2019/11/08 22:55:00 BASE 8.24 206 9.05 203 -3.2 91 -4.5 60 0 1000.4 NA 0.0000 9999 1440 0 0 0
2019/11/08 22:56:00 BASE 8.00 207 9.05 203 -3.2 91 -4.5 61 0 1000.4 NA 0.0000 9999 1380 0 0 0
2019/11/08 22:57:00 BASE 7.40 213 9.05 203 -3.2 91 -4.5 59 0 1000.4 NA 0.0000 9999 1380 0 0 0
2019/11/08 22:58:00 BASE 7.46 216 9.05 203 -3.2 91 -4.5 58 0 1000.4 NA 0.0000 9999 1280 0 0 0
2019/11/08 22:59:00 BASE 6.82 211 9.05 203 -3.2 91 -4.5 58 0 1000.4 NA 0.0000 9999 1180 0 0 0
2019/11/08 23:00:00 BASE 5.66 209 9.05 203 -3.2 91 -4.5 57 0 1000.5 NA 0.0000 9999 1350 0 0 0
2019/11/08 23:01:00 BASE 6.04 208 9.11 203 -3.3 91 -4.5 54 0 1000.4 NA 0.0000 9999 1310 0 0 0
2019/11/08 23:02:00 BASE 7.23 208 9.31 213 -3.3 91 -4.5 50 0 1000.4 NA 0.0000 9999 1380 0 0 0
2019/11/08 23:03:00 BASE 8.59 208 9.88 206 -3.3 91 -4.5 44 0 1000.4 NA 0.0000 9999 1410 0 0 0
2019/11/08 23:04:00 BASE 9.17 204 9.88 206 -3.3 91 -4.5 42 0 1000.4 NA 0.0000 9999 1640 0 0 0
2019/11/08 23:05:00 BASE 8.30 207 9.88 206 -3.3 91 -4.5 44 0 1000.4 NA 0.0000 9999 1480 0 0 0
2019/11/08 23:06:00 BASE 7.25 205 9.88 206 -3.3 91 -4.5 44 0 1000.4 NA 0.0000 9999 1350 0 0 0
2019/11/08 23:07:00 BASE 6.75 205 9.88 206 -3.3 91 -4.6 40 0 1000.4 NA 0.0000 9999 1310 0 0 0
2019/11/08 23:08:00 BASE 7.33 211 9.88 206 -3.3 91 -4.6 39 0 1000.5 NA 0.0000 9999 1350 0 0 0
2019/11/08 23:09:00 BASE 7.83 212 9.88 206 -3.3 91 -4.6 38 0 1000.5 NA 0.0000 9999 1250 0 0 0
2019/11/08 23:10:00 BASE 7.80 211 9.88 206 -3.3 91 -4.6 38 0 1000.5 NA 0.0000 9999 1280 0 0 0
2019/11/08 23:11:00 BASE 7.80 210 9.88 206 -3.4 91 -4.6 40 0 1000.5 NA 0.0000 9999 1250 0 0 0
2019/11/08 23:12:00 BASE 7.34 208 9.88 206 -3.4 92 -4.5 42 0 1000.5 NA 0.0000 9999 1250 0 0 0
2019/11/08 23:13:00 BASE 7.27 210 9.62 203 -3.3 92 -4.5 42 0 1000.6 NA 0.0000 9999 1180 0 0 0
2019/11/08 23:14:00 BASE 6.69 211 9.21 215 -3.3 92 -4.5 43 0 1000.7 NA 0.0000 9999 1250 0 0 0
2019/11/08 23:15:00 BASE 5.88 210 9.21 215 -3.4 92 -4.4 42 0 1000.7 NA 0.0000 9999 1250 0 0 0
2019/11/08 23:16:00 BASE 5.85 208 9.21 215 -3.4 92 -4.4 41 0 1000.7 NA 0.0000 9999 1280 0 0 0
2019/11/08 23:17:00 BASE 5.83 208 9.21 215 -3.4 93 -4.4 40 0 1000.7 NA 0.0000 9999 1280 0 0 0
2019/11/08 23:18:00 BASE 6.73 215 9.21 215 -3.4 93 -4.4 38 0 1000.7 NA 0.0000 9999 1250 0 0 0
2019/11/08 23:19:00 BASE 7.33 222 9.21 215 -3.3 93 -4.3 39 0 1000.7 NA 0.0000 9999 1250 0 0 0
2019/11/08 23:20:00 BASE 7.14 221 9.21 215 -3.3 93 -4.3 40 0 1000.7 NA 0.0000 9999 1250 0 0 0
2019/11/08 23:21:00 BASE 7.65 218 8.85 222 -3.3 93 -4.3 39 0 1000.7 NA 0.0000 9999 1410 0 0 0
2019/11/08 23:22:00 BASE 7.67 217 8.85 222 -3.3 93 -4.3 35 0 1000.7 NA 0.0000 9999 1250 0 0 0
2019/11/08 23:23:00 BASE 7.39 217 8.85 222 -3.4 93 -4.3 33 0 1000.7 NA 0.0000 9999 1510 0 0 0
2019/11/08 23:24:00 BASE 7.80 215 9.11 210 -3.4 93 -4.3 34 0 1000.7 NA 0.0000 9999 1210 0 0 0
2019/11/08 23:25:00 BASE 8.38 216 9.31 214 -3.4 93 -4.3 36 0 1000.7 NA 0.0000 9999 1410 0 0 0
2019/11/08 23:26:00 BASE 8.44 223 9.31 214 -3.4 93 -4.3 40 0 1000.7 NA 0.0000 9999 1480 0 0 0
2019/11/08 23:27:00 BASE 8.93 225 11.21 230 -3.4 93 -4.3 44 0 1000.7 NA 0.0000 9999 1410 0 0 0
2019/11/08 23:28:00 BASE 9.85 223 11.21 230 -3.4 93 -4.3 48 0 1000.7 NA 0.0000 9999 1410 0 0 0
2019/11/08 23:29:00 BASE 9.36 222 11.21 230 -3.4 93 -4.4 53 0 1000.7 NA 0.0000 9999 1440 0 0 0
2019/11/08 23:30:00 BASE 9.67 224 11.68 230 -3.4 93 -4.4 57 0 1000.7 NA 0.0000 9999 1480 0 0 0
2019/11/08 23:31:00 BASE 11.13 226 12.71 225 -3.5 93 -4.4 55 0 1000.7 NA 0.0000 9999 1510 0 0 0
2019/11/08 23:32:00 BASE 11.61 225 12.96 228 -3.5 93 -4.5 48 0 1000.7 NA 0.0000 9999 1540 0 0 0
2019/11/08 23:33:00 BASE 10.90 222 12.96 228 -3.5 93 -4.5 40 0 1000.7 NA 0.0000 9999 1440 0 0 0
2019/11/08 23:34:00 BASE 9.52 221 12.96 228 -3.5 93 -4.5 35 0 1000.8 NA 0.0000 9999 1510 0 0 0
2019/11/08 23:35:00 BASE 8.31 216 12.96 228 -3.6 93 -4.6 29 0 1000.8 NA 0.0000 9999 1250 0 0 0
2019/11/08 23:36:00 BASE 6.97 211 12.96 228 -3.6 93 -4.6 25 0 1000.8 NA 0.0000 9999 1380 0 0 0
2019/11/08 23:37:00 BASE 6.52 202 12.96 228 -3.6 92 -4.7 23 0 1000.8 NA 0.0000 9999 1380 0 0 0
2019/11/08 23:38:00 BASE 7.54 195 12.96 228 -3.6 92 -4.7 22 0 1000.8 NA 0.0000 9999 1350 0 0 0
2019/11/08 23:39:00 BASE 8.23 197 12.96 228 -3.6 92 -4.8 21 0 1000.8 NA 0.0000 9999 1350 0 0 0
2019/11/08 23:40:00 BASE 7.61 200 12.96 228 -3.6 92 -4.8 21 0 1000.8 NA 0.0000 9999 1310 0 0 0
2019/11/08 23:41:00 BASE 7.31 202 12.96 228 -3.6 92 -4.8 22 0 1000.8 NA 0.0000 9999 1350 0 0 0
2019/11/08 23:42:00 BASE 7.93 203 10.96 213 -3.6 91 -4.8 23 0 1000.8 NA 0.0000 9999 1380 0 0 0
2019/11/08 23:43:00 BASE 8.48 203 10.19 222 -3.6 91 -4.8 24 0 1000.8 NA 0.0000 9999 1380 0 0 0
2019/11/08 23:44:00 BASE 8.57 202 9.72 207 -3.6 91 -4.9 25 0 1000.8 NA 0.0000 9999 1410 0 0 0
2019/11/08 23:45:00 BASE 7.33 204 9.62 203 -3.6 91 -4.9 25 0 1000.8 NA 0.0000 9999 1380 0 0 0
2019/11/08 23:46:00 BASE 7.48 205 10.55 208 -3.7 91 -4.9 23 0 1000.7 NA 0.0000 9999 1350 0 0 0
2019/11/08 23:47:00 BASE 8.51 208 10.55 208 -3.7 91 -4.9 21 0 1000.7 NA 0.0000 9999 1350 0 0 0
2019/11/08 23:48:00 BASE 7.80 211 10.55 208 -3.7 91 -4.9 20 0 1000.7 NA 0.0000 9999 1310 0 0 0
2019/11/08 23:49:00 BASE 6.74 207 10.55 208 -3.6 91 -4.9 18 0 1000.7 NA 0.0000 9999 1350 0 0 0
2019/11/08 23:50:00 BASE 6.81 212 10.55 208 -3.6 91 -4.8 17 0 1000.8 NA 0.0000 9999 1250 0 0 0
2019/11/08 23:51:00 BASE 7.43 218 10.55 208 -3.6 91 -4.8 17 0 1000.8 NA 0.0000 9999 1210 0 0 0
2019/11/08 23:52:00 BASE 7.62 214 10.55 208 -3.5 91 -4.7 17 0 1000.8 NA 0.0000 9999 1310 0 0 0
2019/11/08 23:53:00 BASE 7.72 214 10.55 208 -3.5 92 -4.7 15 0 1000.8 NA 0.0000 9999 1310 0 0 0
2019/11/08 23:54:00 BASE 7.62 211 10.55 208 -3.5 92 -4.7 13 0 1000.8 NA 0.0000 9999 1280 0 0 0
2019/11/08 23:55:00 BASE 7.94 209 10.55 208 -3.5 92 -4.6 12 0 1000.8 NA 0.0000 9999 1180 0 0 0
2019/11/08 23:56:00 BASE 8.38 211 9.62 218 -3.6 92 -4.7 12 0 1000.8 NA 0.0000 9999 1180 0 0 0
2019/11/08 23:57:00 BASE 8.06 213 9.62 218 -3.5 92 -4.7 12 0 1000.8 NA 0.0000 9999 1180 0 0 0
2019/11/08 23:58:00 BASE 7.89 215 9.62 218 -3.5 92 -4.7 11 0 1000.8 NA 0.0000 9999 1080 0 0 0
2019/11/08 23:59:00 BASE 8.11 215 9.62 218 -3.6 92 -4.7 10 0 1000.8 NA 0.0000 9999 1080 0 0 0